<?xml version="1.0" encoding="UTF-8" standalone="no" ?>
<gpx xmlns="http://www.topografix.com/GPX/1/1" xmlns:xsi="http://www.w3.org/2001/XMLSchema-instance" xsi:schemaLocation="http://www.topografix.com/GPX/1/1 http://www.topografix.com/GPX/1/1/gpx.xsd" version="1.1" creator="VisuGPX - https://www.visugpx.com">
  <metadata>
    <name>RandoLaBaffe</name>
    <desc><![CDATA[Randonnée VTT La Baffe 26 mars 2017]]></desc>
  </metadata>
  <trk>
    <name><![CDATA[Tracé actuel: 02 AVR 2017 09:23]]></name>
    <trkseg>
      <trkpt lat="48.16257" lon="6.57447">
        <ele>355.83</ele>
        <time>2017-04-02T07:23:57Z</time>
      </trkpt>
      <trkpt lat="48.1626" lon="6.57445">
        <ele>355.83</ele>
        <time>2017-04-02T07:23:59Z</time>
      </trkpt>
      <trkpt lat="48.1628" lon="6.57404">
        <ele>360.63</ele>
        <time>2017-04-02T07:24:13Z</time>
      </trkpt>
      <trkpt lat="48.16284" lon="6.57398">
        <ele>364.48</ele>
        <time>2017-04-02T07:24:15Z</time>
      </trkpt>
      <trkpt lat="48.16288" lon="6.57392">
        <ele>367.36</ele>
        <time>2017-04-02T07:24:17Z</time>
      </trkpt>
      <trkpt lat="48.16292" lon="6.57387">
        <ele>370.73</ele>
        <time>2017-04-02T07:24:19Z</time>
      </trkpt>
      <trkpt lat="48.16299" lon="6.5738">
        <ele>375.05</ele>
        <time>2017-04-02T07:24:22Z</time>
      </trkpt>
      <trkpt lat="48.16303" lon="6.57376">
        <ele>377.45</ele>
        <time>2017-04-02T07:24:24Z</time>
      </trkpt>
      <trkpt lat="48.16311" lon="6.57366">
        <ele>382.26</ele>
        <time>2017-04-02T07:24:28Z</time>
      </trkpt>
      <trkpt lat="48.1632" lon="6.57357">
        <ele>386.59</ele>
        <time>2017-04-02T07:24:32Z</time>
      </trkpt>
      <trkpt lat="48.16329" lon="6.57349">
        <ele>389.95</ele>
        <time>2017-04-02T07:24:36Z</time>
      </trkpt>
      <trkpt lat="48.16338" lon="6.57339">
        <ele>393.32</ele>
        <time>2017-04-02T07:24:40Z</time>
      </trkpt>
      <trkpt lat="48.1634" lon="6.57337">
        <ele>393.32</ele>
        <time>2017-04-02T07:24:41Z</time>
      </trkpt>
      <trkpt lat="48.16352" lon="6.57327">
        <ele>397.16</ele>
        <time>2017-04-02T07:24:46Z</time>
      </trkpt>
      <trkpt lat="48.16374" lon="6.57316">
        <ele>401.49</ele>
        <time>2017-04-02T07:24:55Z</time>
      </trkpt>
      <trkpt lat="48.16377" lon="6.57315">
        <ele>401.49</ele>
        <time>2017-04-02T07:24:56Z</time>
      </trkpt>
      <trkpt lat="48.16405" lon="6.57322">
        <ele>404.37</ele>
        <time>2017-04-02T07:25:06Z</time>
      </trkpt>
      <trkpt lat="48.16411" lon="6.57326">
        <ele>405.33</ele>
        <time>2017-04-02T07:25:08Z</time>
      </trkpt>
      <trkpt lat="48.16446" lon="6.57346">
        <ele>406.29</ele>
        <time>2017-04-02T07:25:19Z</time>
      </trkpt>
      <trkpt lat="48.16468" lon="6.57362">
        <ele>408.7</ele>
        <time>2017-04-02T07:25:28Z</time>
      </trkpt>
      <trkpt lat="48.16512" lon="6.57393">
        <ele>407.74</ele>
        <time>2017-04-02T07:25:41Z</time>
      </trkpt>
      <trkpt lat="48.16579" lon="6.57422">
        <ele>407.74</ele>
        <time>2017-04-02T07:25:55Z</time>
      </trkpt>
      <trkpt lat="48.16583" lon="6.57424">
        <ele>407.26</ele>
        <time>2017-04-02T07:25:56Z</time>
      </trkpt>
      <trkpt lat="48.16604" lon="6.57438">
        <ele>407.74</ele>
        <time>2017-04-02T07:26:01Z</time>
      </trkpt>
      <trkpt lat="48.16608" lon="6.57441">
        <ele>407.74</ele>
        <time>2017-04-02T07:26:02Z</time>
      </trkpt>
      <trkpt lat="48.16638" lon="6.57465">
        <ele>409.18</ele>
        <time>2017-04-02T07:26:12Z</time>
      </trkpt>
      <trkpt lat="48.16659" lon="6.57483">
        <ele>410.14</ele>
        <time>2017-04-02T07:26:19Z</time>
      </trkpt>
      <trkpt lat="48.16661" lon="6.57484">
        <ele>410.14</ele>
        <time>2017-04-02T07:26:20Z</time>
      </trkpt>
      <trkpt lat="48.16663" lon="6.57484">
        <ele>410.14</ele>
        <time>2017-04-02T07:26:21Z</time>
      </trkpt>
      <trkpt lat="48.16667" lon="6.57484">
        <ele>410.62</ele>
        <time>2017-04-02T07:26:22Z</time>
      </trkpt>
      <trkpt lat="48.1667" lon="6.57483">
        <ele>410.14</ele>
        <time>2017-04-02T07:26:23Z</time>
      </trkpt>
      <trkpt lat="48.1669" lon="6.57482">
        <ele>412.54</ele>
        <time>2017-04-02T07:26:31Z</time>
      </trkpt>
      <trkpt lat="48.16693" lon="6.57481">
        <ele>412.06</ele>
        <time>2017-04-02T07:26:32Z</time>
      </trkpt>
      <trkpt lat="48.16703" lon="6.5748">
        <ele>412.54</ele>
        <time>2017-04-02T07:26:36Z</time>
      </trkpt>
      <trkpt lat="48.16704" lon="6.5748">
        <ele>413.02</ele>
        <time>2017-04-02T07:26:37Z</time>
      </trkpt>
      <trkpt lat="48.1673" lon="6.57479">
        <ele>413.98</ele>
        <time>2017-04-02T07:26:45Z</time>
      </trkpt>
      <trkpt lat="48.16733" lon="6.57479">
        <ele>414.47</ele>
        <time>2017-04-02T07:26:46Z</time>
      </trkpt>
      <trkpt lat="48.16735" lon="6.57481">
        <ele>414.47</ele>
        <time>2017-04-02T07:26:47Z</time>
      </trkpt>
      <trkpt lat="48.16737" lon="6.57482">
        <ele>414.95</ele>
        <time>2017-04-02T07:26:48Z</time>
      </trkpt>
      <trkpt lat="48.1674" lon="6.57483">
        <ele>414.95</ele>
        <time>2017-04-02T07:26:49Z</time>
      </trkpt>
      <trkpt lat="48.16742" lon="6.57484">
        <ele>415.43</ele>
        <time>2017-04-02T07:26:50Z</time>
      </trkpt>
      <trkpt lat="48.16743" lon="6.57485">
        <ele>414.95</ele>
        <time>2017-04-02T07:26:51Z</time>
      </trkpt>
      <trkpt lat="48.16746" lon="6.57487">
        <ele>415.43</ele>
        <time>2017-04-02T07:26:52Z</time>
      </trkpt>
      <trkpt lat="48.1675" lon="6.5749">
        <ele>415.43</ele>
        <time>2017-04-02T07:26:54Z</time>
      </trkpt>
      <trkpt lat="48.16752" lon="6.57492">
        <ele>415.43</ele>
        <time>2017-04-02T07:26:55Z</time>
      </trkpt>
      <trkpt lat="48.16755" lon="6.57493">
        <ele>415.91</ele>
        <time>2017-04-02T07:26:56Z</time>
      </trkpt>
      <trkpt lat="48.16758" lon="6.57495">
        <ele>416.39</ele>
        <time>2017-04-02T07:26:57Z</time>
      </trkpt>
      <trkpt lat="48.16761" lon="6.57497">
        <ele>416.39</ele>
        <time>2017-04-02T07:26:58Z</time>
      </trkpt>
      <trkpt lat="48.16776" lon="6.57506">
        <ele>417.35</ele>
        <time>2017-04-02T07:27:03Z</time>
      </trkpt>
      <trkpt lat="48.16778" lon="6.57507">
        <ele>417.35</ele>
        <time>2017-04-02T07:27:04Z</time>
      </trkpt>
      <trkpt lat="48.16781" lon="6.5751">
        <ele>417.35</ele>
        <time>2017-04-02T07:27:05Z</time>
      </trkpt>
      <trkpt lat="48.16783" lon="6.57512">
        <ele>416.87</ele>
        <time>2017-04-02T07:27:06Z</time>
      </trkpt>
      <trkpt lat="48.16785" lon="6.57515">
        <ele>417.35</ele>
        <time>2017-04-02T07:27:07Z</time>
      </trkpt>
      <trkpt lat="48.16788" lon="6.57516">
        <ele>417.35</ele>
        <time>2017-04-02T07:27:08Z</time>
      </trkpt>
      <trkpt lat="48.16789" lon="6.57517">
        <ele>417.83</ele>
        <time>2017-04-02T07:27:09Z</time>
      </trkpt>
      <trkpt lat="48.16791" lon="6.57518">
        <ele>418.31</ele>
        <time>2017-04-02T07:27:10Z</time>
      </trkpt>
      <trkpt lat="48.16793" lon="6.5752">
        <ele>417.83</ele>
        <time>2017-04-02T07:27:11Z</time>
      </trkpt>
      <trkpt lat="48.16796" lon="6.57522">
        <ele>418.31</ele>
        <time>2017-04-02T07:27:12Z</time>
      </trkpt>
      <trkpt lat="48.16798" lon="6.57524">
        <ele>418.31</ele>
        <time>2017-04-02T07:27:13Z</time>
      </trkpt>
      <trkpt lat="48.16801" lon="6.57525">
        <ele>418.79</ele>
        <time>2017-04-02T07:27:14Z</time>
      </trkpt>
      <trkpt lat="48.16803" lon="6.57526">
        <ele>418.79</ele>
        <time>2017-04-02T07:27:15Z</time>
      </trkpt>
      <trkpt lat="48.16807" lon="6.57528">
        <ele>419.27</ele>
        <time>2017-04-02T07:27:16Z</time>
      </trkpt>
      <trkpt lat="48.1681" lon="6.57529">
        <ele>419.75</ele>
        <time>2017-04-02T07:27:17Z</time>
      </trkpt>
      <trkpt lat="48.16837" lon="6.57531">
        <ele>422.64</ele>
        <time>2017-04-02T07:27:27Z</time>
      </trkpt>
      <trkpt lat="48.16858" lon="6.57519">
        <ele>423.6</ele>
        <time>2017-04-02T07:27:36Z</time>
      </trkpt>
      <trkpt lat="48.16863" lon="6.57517">
        <ele>423.12</ele>
        <time>2017-04-02T07:27:38Z</time>
      </trkpt>
      <trkpt lat="48.16873" lon="6.57517">
        <ele>423.6</ele>
        <time>2017-04-02T07:27:42Z</time>
      </trkpt>
      <trkpt lat="48.16899" lon="6.57521">
        <ele>423.12</ele>
        <time>2017-04-02T07:27:50Z</time>
      </trkpt>
      <trkpt lat="48.16945" lon="6.57506">
        <ele>422.64</ele>
        <time>2017-04-02T07:28:00Z</time>
      </trkpt>
      <trkpt lat="48.16952" lon="6.57502">
        <ele>422.64</ele>
        <time>2017-04-02T07:28:03Z</time>
      </trkpt>
      <trkpt lat="48.16953" lon="6.57497">
        <ele>422.16</ele>
        <time>2017-04-02T07:28:06Z</time>
      </trkpt>
      <trkpt lat="48.16954" lon="6.57496">
        <ele>422.16</ele>
        <time>2017-04-02T07:28:07Z</time>
      </trkpt>
      <trkpt lat="48.16955" lon="6.57483">
        <ele>421.19</ele>
        <time>2017-04-02T07:28:10Z</time>
      </trkpt>
      <trkpt lat="48.16952" lon="6.57467">
        <ele>420.71</ele>
        <time>2017-04-02T07:28:12Z</time>
      </trkpt>
      <trkpt lat="48.16942" lon="6.57427">
        <ele>418.31</ele>
        <time>2017-04-02T07:28:16Z</time>
      </trkpt>
      <trkpt lat="48.16938" lon="6.57406">
        <ele>418.31</ele>
        <time>2017-04-02T07:28:18Z</time>
      </trkpt>
      <trkpt lat="48.1693" lon="6.57357">
        <ele>416.39</ele>
        <time>2017-04-02T07:28:23Z</time>
      </trkpt>
      <trkpt lat="48.16926" lon="6.57336">
        <ele>415.91</ele>
        <time>2017-04-02T07:28:25Z</time>
      </trkpt>
      <trkpt lat="48.16916" lon="6.57297">
        <ele>414.95</ele>
        <time>2017-04-02T07:28:29Z</time>
      </trkpt>
      <trkpt lat="48.16915" lon="6.57265">
        <ele>414.95</ele>
        <time>2017-04-02T07:28:33Z</time>
      </trkpt>
      <trkpt lat="48.1691" lon="6.57224">
        <ele>414.95</ele>
        <time>2017-04-02T07:28:39Z</time>
      </trkpt>
      <trkpt lat="48.16918" lon="6.5721">
        <ele>414.95</ele>
        <time>2017-04-02T07:28:46Z</time>
      </trkpt>
      <trkpt lat="48.16934" lon="6.57203">
        <ele>415.43</ele>
        <time>2017-04-02T07:28:52Z</time>
      </trkpt>
      <trkpt lat="48.16974" lon="6.57186">
        <ele>415.91</ele>
        <time>2017-04-02T07:29:05Z</time>
      </trkpt>
      <trkpt lat="48.17011" lon="6.57172">
        <ele>415.91</ele>
        <time>2017-04-02T07:29:16Z</time>
      </trkpt>
      <trkpt lat="48.17015" lon="6.57171">
        <ele>415.43</ele>
        <time>2017-04-02T07:29:17Z</time>
      </trkpt>
      <trkpt lat="48.17047" lon="6.5716">
        <ele>415.43</ele>
        <time>2017-04-02T07:29:25Z</time>
      </trkpt>
      <trkpt lat="48.17064" lon="6.57154">
        <ele>415.43</ele>
        <time>2017-04-02T07:29:31Z</time>
      </trkpt>
      <trkpt lat="48.17081" lon="6.57148">
        <ele>415.43</ele>
        <time>2017-04-02T07:29:35Z</time>
      </trkpt>
      <trkpt lat="48.171" lon="6.57141">
        <ele>414.95</ele>
        <time>2017-04-02T07:29:40Z</time>
      </trkpt>
      <trkpt lat="48.17111" lon="6.57136">
        <ele>414.95</ele>
        <time>2017-04-02T07:29:43Z</time>
      </trkpt>
      <trkpt lat="48.17124" lon="6.57131">
        <ele>414.95</ele>
        <time>2017-04-02T07:29:45Z</time>
      </trkpt>
      <trkpt lat="48.17147" lon="6.57122">
        <ele>413.02</ele>
        <time>2017-04-02T07:29:49Z</time>
      </trkpt>
      <trkpt lat="48.17172" lon="6.57114">
        <ele>411.58</ele>
        <time>2017-04-02T07:29:53Z</time>
      </trkpt>
      <trkpt lat="48.17208" lon="6.57098">
        <ele>409.66</ele>
        <time>2017-04-02T07:30:01Z</time>
      </trkpt>
      <trkpt lat="48.1722" lon="6.57096">
        <ele>409.66</ele>
        <time>2017-04-02T07:30:12Z</time>
      </trkpt>
      <trkpt lat="48.17228" lon="6.57098">
        <ele>409.66</ele>
        <time>2017-04-02T07:30:23Z</time>
      </trkpt>
      <trkpt lat="48.1723" lon="6.57102">
        <ele>409.66</ele>
        <time>2017-04-02T07:30:36Z</time>
      </trkpt>
      <trkpt lat="48.17236" lon="6.57101">
        <ele>409.18</ele>
        <time>2017-04-02T07:30:40Z</time>
      </trkpt>
      <trkpt lat="48.1725" lon="6.57089">
        <ele>408.22</ele>
        <time>2017-04-02T07:30:47Z</time>
      </trkpt>
      <trkpt lat="48.17254" lon="6.57086">
        <ele>407.74</ele>
        <time>2017-04-02T07:30:59Z</time>
      </trkpt>
      <trkpt lat="48.17263" lon="6.57084">
        <ele>407.74</ele>
        <time>2017-04-02T07:31:13Z</time>
      </trkpt>
      <trkpt lat="48.17283" lon="6.57082">
        <ele>406.77</ele>
        <time>2017-04-02T07:31:19Z</time>
      </trkpt>
      <trkpt lat="48.17296" lon="6.57082">
        <ele>407.26</ele>
        <time>2017-04-02T07:31:22Z</time>
      </trkpt>
      <trkpt lat="48.17326" lon="6.57085">
        <ele>407.26</ele>
        <time>2017-04-02T07:31:31Z</time>
      </trkpt>
      <trkpt lat="48.17337" lon="6.57141">
        <ele>409.18</ele>
        <time>2017-04-02T07:31:42Z</time>
      </trkpt>
      <trkpt lat="48.17338" lon="6.57147">
        <ele>409.66</ele>
        <time>2017-04-02T07:31:43Z</time>
      </trkpt>
      <trkpt lat="48.17339" lon="6.57152">
        <ele>409.66</ele>
        <time>2017-04-02T07:31:44Z</time>
      </trkpt>
      <trkpt lat="48.17338" lon="6.57165">
        <ele>410.14</ele>
        <time>2017-04-02T07:31:46Z</time>
      </trkpt>
      <trkpt lat="48.17336" lon="6.57171">
        <ele>410.62</ele>
        <time>2017-04-02T07:31:47Z</time>
      </trkpt>
      <trkpt lat="48.17337" lon="6.57178">
        <ele>410.62</ele>
        <time>2017-04-02T07:31:48Z</time>
      </trkpt>
      <trkpt lat="48.17337" lon="6.57184">
        <ele>411.1</ele>
        <time>2017-04-02T07:31:49Z</time>
      </trkpt>
      <trkpt lat="48.17337" lon="6.57221">
        <ele>412.06</ele>
        <time>2017-04-02T07:31:55Z</time>
      </trkpt>
      <trkpt lat="48.17336" lon="6.57227">
        <ele>412.54</ele>
        <time>2017-04-02T07:31:56Z</time>
      </trkpt>
      <trkpt lat="48.17336" lon="6.57277">
        <ele>414.47</ele>
        <time>2017-04-02T07:32:05Z</time>
      </trkpt>
      <trkpt lat="48.17336" lon="6.57314">
        <ele>415.43</ele>
        <time>2017-04-02T07:32:12Z</time>
      </trkpt>
      <trkpt lat="48.17332" lon="6.57364">
        <ele>414.95</ele>
        <time>2017-04-02T07:32:21Z</time>
      </trkpt>
      <trkpt lat="48.17333" lon="6.57372">
        <ele>414.95</ele>
        <time>2017-04-02T07:32:23Z</time>
      </trkpt>
      <trkpt lat="48.17332" lon="6.57419">
        <ele>414.95</ele>
        <time>2017-04-02T07:32:32Z</time>
      </trkpt>
      <trkpt lat="48.17332" lon="6.57424">
        <ele>415.43</ele>
        <time>2017-04-02T07:32:33Z</time>
      </trkpt>
      <trkpt lat="48.17331" lon="6.57429">
        <ele>415.43</ele>
        <time>2017-04-02T07:32:34Z</time>
      </trkpt>
      <trkpt lat="48.1733" lon="6.57434">
        <ele>415.43</ele>
        <time>2017-04-02T07:32:35Z</time>
      </trkpt>
      <trkpt lat="48.17329" lon="6.57439">
        <ele>415.43</ele>
        <time>2017-04-02T07:32:36Z</time>
      </trkpt>
      <trkpt lat="48.17328" lon="6.57444">
        <ele>415.91</ele>
        <time>2017-04-02T07:32:37Z</time>
      </trkpt>
      <trkpt lat="48.17326" lon="6.57449">
        <ele>415.43</ele>
        <time>2017-04-02T07:32:38Z</time>
      </trkpt>
      <trkpt lat="48.17325" lon="6.57453">
        <ele>415.43</ele>
        <time>2017-04-02T07:32:39Z</time>
      </trkpt>
      <trkpt lat="48.17324" lon="6.57457">
        <ele>415.43</ele>
        <time>2017-04-02T07:32:40Z</time>
      </trkpt>
      <trkpt lat="48.17322" lon="6.57461">
        <ele>415.43</ele>
        <time>2017-04-02T07:32:41Z</time>
      </trkpt>
      <trkpt lat="48.17322" lon="6.57464">
        <ele>415.43</ele>
        <time>2017-04-02T07:32:42Z</time>
      </trkpt>
      <trkpt lat="48.17321" lon="6.57468">
        <ele>414.95</ele>
        <time>2017-04-02T07:32:43Z</time>
      </trkpt>
      <trkpt lat="48.17309" lon="6.5751">
        <ele>413.5</ele>
        <time>2017-04-02T07:32:51Z</time>
      </trkpt>
      <trkpt lat="48.17308" lon="6.57516">
        <ele>413.5</ele>
        <time>2017-04-02T07:32:52Z</time>
      </trkpt>
      <trkpt lat="48.17308" lon="6.57521">
        <ele>413.02</ele>
        <time>2017-04-02T07:32:53Z</time>
      </trkpt>
      <trkpt lat="48.17307" lon="6.57527">
        <ele>412.54</ele>
        <time>2017-04-02T07:32:54Z</time>
      </trkpt>
      <trkpt lat="48.17305" lon="6.57532">
        <ele>412.06</ele>
        <time>2017-04-02T07:32:55Z</time>
      </trkpt>
      <trkpt lat="48.17291" lon="6.5759">
        <ele>410.62</ele>
        <time>2017-04-02T07:33:05Z</time>
      </trkpt>
      <trkpt lat="48.17277" lon="6.57639">
        <ele>410.14</ele>
        <time>2017-04-02T07:33:14Z</time>
      </trkpt>
      <trkpt lat="48.1727" lon="6.57673">
        <ele>408.7</ele>
        <time>2017-04-02T07:33:20Z</time>
      </trkpt>
      <trkpt lat="48.17268" lon="6.57679">
        <ele>408.22</ele>
        <time>2017-04-02T07:33:21Z</time>
      </trkpt>
      <trkpt lat="48.17265" lon="6.57695">
        <ele>407.26</ele>
        <time>2017-04-02T07:33:24Z</time>
      </trkpt>
      <trkpt lat="48.17265" lon="6.57698">
        <ele>406.77</ele>
        <time>2017-04-02T07:33:25Z</time>
      </trkpt>
      <trkpt lat="48.17265" lon="6.57703">
        <ele>407.26</ele>
        <time>2017-04-02T07:33:26Z</time>
      </trkpt>
      <trkpt lat="48.17264" lon="6.57707">
        <ele>406.77</ele>
        <time>2017-04-02T07:33:27Z</time>
      </trkpt>
      <trkpt lat="48.17263" lon="6.57711">
        <ele>406.77</ele>
        <time>2017-04-02T07:33:28Z</time>
      </trkpt>
      <trkpt lat="48.17262" lon="6.57716">
        <ele>406.77</ele>
        <time>2017-04-02T07:33:29Z</time>
      </trkpt>
      <trkpt lat="48.17262" lon="6.57723">
        <ele>406.77</ele>
        <time>2017-04-02T07:33:30Z</time>
      </trkpt>
      <trkpt lat="48.17262" lon="6.57728">
        <ele>406.29</ele>
        <time>2017-04-02T07:33:31Z</time>
      </trkpt>
      <trkpt lat="48.17262" lon="6.57733">
        <ele>406.29</ele>
        <time>2017-04-02T07:33:32Z</time>
      </trkpt>
      <trkpt lat="48.17262" lon="6.57738">
        <ele>405.81</ele>
        <time>2017-04-02T07:33:33Z</time>
      </trkpt>
      <trkpt lat="48.1726" lon="6.57745">
        <ele>405.81</ele>
        <time>2017-04-02T07:33:34Z</time>
      </trkpt>
      <trkpt lat="48.17256" lon="6.57752">
        <ele>405.33</ele>
        <time>2017-04-02T07:33:35Z</time>
      </trkpt>
      <trkpt lat="48.17252" lon="6.57759">
        <ele>404.85</ele>
        <time>2017-04-02T07:33:36Z</time>
      </trkpt>
      <trkpt lat="48.1723" lon="6.57787">
        <ele>403.41</ele>
        <time>2017-04-02T07:33:41Z</time>
      </trkpt>
      <trkpt lat="48.17226" lon="6.57793">
        <ele>402.93</ele>
        <time>2017-04-02T07:33:42Z</time>
      </trkpt>
      <trkpt lat="48.17221" lon="6.57799">
        <ele>402.45</ele>
        <time>2017-04-02T07:33:43Z</time>
      </trkpt>
      <trkpt lat="48.17217" lon="6.57805">
        <ele>402.45</ele>
        <time>2017-04-02T07:33:44Z</time>
      </trkpt>
      <trkpt lat="48.17203" lon="6.57826">
        <ele>400.53</ele>
        <time>2017-04-02T07:33:47Z</time>
      </trkpt>
      <trkpt lat="48.17197" lon="6.57832">
        <ele>400.05</ele>
        <time>2017-04-02T07:33:48Z</time>
      </trkpt>
      <trkpt lat="48.17192" lon="6.57839">
        <ele>400.05</ele>
        <time>2017-04-02T07:33:49Z</time>
      </trkpt>
      <trkpt lat="48.17172" lon="6.57859">
        <ele>399.57</ele>
        <time>2017-04-02T07:33:52Z</time>
      </trkpt>
      <trkpt lat="48.17165" lon="6.57863">
        <ele>399.08</ele>
        <time>2017-04-02T07:33:53Z</time>
      </trkpt>
      <trkpt lat="48.17142" lon="6.5788">
        <ele>398.6</ele>
        <time>2017-04-02T07:33:56Z</time>
      </trkpt>
      <trkpt lat="48.17136" lon="6.57886">
        <ele>398.6</ele>
        <time>2017-04-02T07:33:57Z</time>
      </trkpt>
      <trkpt lat="48.1713" lon="6.57895">
        <ele>398.6</ele>
        <time>2017-04-02T07:33:58Z</time>
      </trkpt>
      <trkpt lat="48.17125" lon="6.57904">
        <ele>398.6</ele>
        <time>2017-04-02T07:33:59Z</time>
      </trkpt>
      <trkpt lat="48.17121" lon="6.57912">
        <ele>398.6</ele>
        <time>2017-04-02T07:34:00Z</time>
      </trkpt>
      <trkpt lat="48.17117" lon="6.57919">
        <ele>398.12</ele>
        <time>2017-04-02T07:34:01Z</time>
      </trkpt>
      <trkpt lat="48.17111" lon="6.57925">
        <ele>398.12</ele>
        <time>2017-04-02T07:34:02Z</time>
      </trkpt>
      <trkpt lat="48.17104" lon="6.5793">
        <ele>398.6</ele>
        <time>2017-04-02T07:34:03Z</time>
      </trkpt>
      <trkpt lat="48.17098" lon="6.57934">
        <ele>398.6</ele>
        <time>2017-04-02T07:34:04Z</time>
      </trkpt>
      <trkpt lat="48.17092" lon="6.57937">
        <ele>399.08</ele>
        <time>2017-04-02T07:34:05Z</time>
      </trkpt>
      <trkpt lat="48.17079" lon="6.57942">
        <ele>399.08</ele>
        <time>2017-04-02T07:34:07Z</time>
      </trkpt>
      <trkpt lat="48.17068" lon="6.57946">
        <ele>399.57</ele>
        <time>2017-04-02T07:34:09Z</time>
      </trkpt>
      <trkpt lat="48.17063" lon="6.57949">
        <ele>400.05</ele>
        <time>2017-04-02T07:34:10Z</time>
      </trkpt>
      <trkpt lat="48.1705" lon="6.57959">
        <ele>401.01</ele>
        <time>2017-04-02T07:34:13Z</time>
      </trkpt>
      <trkpt lat="48.17014" lon="6.57999">
        <ele>403.41</ele>
        <time>2017-04-02T07:34:25Z</time>
      </trkpt>
      <trkpt lat="48.17003" lon="6.58014">
        <ele>404.37</ele>
        <time>2017-04-02T07:34:32Z</time>
      </trkpt>
      <trkpt lat="48.17002" lon="6.58017">
        <ele>404.37</ele>
        <time>2017-04-02T07:34:33Z</time>
      </trkpt>
      <trkpt lat="48.16989" lon="6.58043">
        <ele>405.33</ele>
        <time>2017-04-02T07:34:41Z</time>
      </trkpt>
      <trkpt lat="48.16989" lon="6.58047">
        <ele>405.33</ele>
        <time>2017-04-02T07:34:42Z</time>
      </trkpt>
      <trkpt lat="48.16988" lon="6.58051">
        <ele>405.33</ele>
        <time>2017-04-02T07:34:43Z</time>
      </trkpt>
      <trkpt lat="48.16987" lon="6.58054">
        <ele>405.33</ele>
        <time>2017-04-02T07:34:44Z</time>
      </trkpt>
      <trkpt lat="48.16987" lon="6.58058">
        <ele>405.81</ele>
        <time>2017-04-02T07:34:45Z</time>
      </trkpt>
      <trkpt lat="48.16986" lon="6.58061">
        <ele>405.81</ele>
        <time>2017-04-02T07:34:46Z</time>
      </trkpt>
      <trkpt lat="48.16986" lon="6.58063">
        <ele>405.81</ele>
        <time>2017-04-02T07:34:47Z</time>
      </trkpt>
      <trkpt lat="48.16986" lon="6.58066">
        <ele>405.81</ele>
        <time>2017-04-02T07:34:48Z</time>
      </trkpt>
      <trkpt lat="48.16979" lon="6.58079">
        <ele>406.29</ele>
        <time>2017-04-02T07:34:49Z</time>
      </trkpt>
      <trkpt lat="48.16977" lon="6.58086">
        <ele>405.81</ele>
        <time>2017-04-02T07:34:50Z</time>
      </trkpt>
      <trkpt lat="48.16975" lon="6.58092">
        <ele>406.29</ele>
        <time>2017-04-02T07:34:51Z</time>
      </trkpt>
      <trkpt lat="48.16974" lon="6.58132">
        <ele>407.26</ele>
        <time>2017-04-02T07:35:00Z</time>
      </trkpt>
      <trkpt lat="48.16976" lon="6.58136">
        <ele>407.26</ele>
        <time>2017-04-02T07:35:01Z</time>
      </trkpt>
      <trkpt lat="48.16977" lon="6.58139">
        <ele>407.26</ele>
        <time>2017-04-02T07:35:02Z</time>
      </trkpt>
      <trkpt lat="48.16979" lon="6.58142">
        <ele>407.26</ele>
        <time>2017-04-02T07:35:03Z</time>
      </trkpt>
      <trkpt lat="48.1698" lon="6.58146">
        <ele>407.74</ele>
        <time>2017-04-02T07:35:04Z</time>
      </trkpt>
      <trkpt lat="48.16981" lon="6.58151">
        <ele>407.26</ele>
        <time>2017-04-02T07:35:05Z</time>
      </trkpt>
      <trkpt lat="48.16981" lon="6.58214">
        <ele>408.22</ele>
        <time>2017-04-02T07:35:15Z</time>
      </trkpt>
      <trkpt lat="48.16986" lon="6.58296">
        <ele>410.14</ele>
        <time>2017-04-02T07:35:28Z</time>
      </trkpt>
      <trkpt lat="48.1699" lon="6.58336">
        <ele>409.18</ele>
        <time>2017-04-02T07:35:35Z</time>
      </trkpt>
      <trkpt lat="48.1699" lon="6.58351">
        <ele>408.7</ele>
        <time>2017-04-02T07:35:37Z</time>
      </trkpt>
      <trkpt lat="48.16991" lon="6.58359">
        <ele>408.22</ele>
        <time>2017-04-02T07:35:38Z</time>
      </trkpt>
      <trkpt lat="48.16992" lon="6.58367">
        <ele>408.22</ele>
        <time>2017-04-02T07:35:39Z</time>
      </trkpt>
      <trkpt lat="48.16993" lon="6.58376">
        <ele>407.74</ele>
        <time>2017-04-02T07:35:40Z</time>
      </trkpt>
      <trkpt lat="48.16993" lon="6.58385">
        <ele>406.77</ele>
        <time>2017-04-02T07:35:41Z</time>
      </trkpt>
      <trkpt lat="48.16994" lon="6.58404">
        <ele>405.81</ele>
        <time>2017-04-02T07:35:43Z</time>
      </trkpt>
      <trkpt lat="48.1702" lon="6.58523">
        <ele>403.41</ele>
        <time>2017-04-02T07:35:55Z</time>
      </trkpt>
      <trkpt lat="48.17072" lon="6.58644">
        <ele>403.41</ele>
        <time>2017-04-02T07:36:10Z</time>
      </trkpt>
      <trkpt lat="48.17079" lon="6.58654">
        <ele>403.41</ele>
        <time>2017-04-02T07:36:12Z</time>
      </trkpt>
      <trkpt lat="48.17083" lon="6.5866">
        <ele>402.93</ele>
        <time>2017-04-02T07:36:13Z</time>
      </trkpt>
      <trkpt lat="48.17097" lon="6.58679">
        <ele>401.97</ele>
        <time>2017-04-02T07:36:16Z</time>
      </trkpt>
      <trkpt lat="48.17101" lon="6.58688">
        <ele>401.01</ele>
        <time>2017-04-02T07:36:17Z</time>
      </trkpt>
      <trkpt lat="48.17103" lon="6.58697">
        <ele>400.53</ele>
        <time>2017-04-02T07:36:18Z</time>
      </trkpt>
      <trkpt lat="48.17103" lon="6.58705">
        <ele>400.05</ele>
        <time>2017-04-02T07:36:19Z</time>
      </trkpt>
      <trkpt lat="48.171" lon="6.58712">
        <ele>399.57</ele>
        <time>2017-04-02T07:36:20Z</time>
      </trkpt>
      <trkpt lat="48.17096" lon="6.58719">
        <ele>399.08</ele>
        <time>2017-04-02T07:36:21Z</time>
      </trkpt>
      <trkpt lat="48.17091" lon="6.58725">
        <ele>399.08</ele>
        <time>2017-04-02T07:36:22Z</time>
      </trkpt>
      <trkpt lat="48.17085" lon="6.5873">
        <ele>398.6</ele>
        <time>2017-04-02T07:36:23Z</time>
      </trkpt>
      <trkpt lat="48.1708" lon="6.58736">
        <ele>398.12</ele>
        <time>2017-04-02T07:36:24Z</time>
      </trkpt>
      <trkpt lat="48.17075" lon="6.58741">
        <ele>398.12</ele>
        <time>2017-04-02T07:36:25Z</time>
      </trkpt>
      <trkpt lat="48.17069" lon="6.58745">
        <ele>397.64</ele>
        <time>2017-04-02T07:36:26Z</time>
      </trkpt>
      <trkpt lat="48.17062" lon="6.58748">
        <ele>397.64</ele>
        <time>2017-04-02T07:36:27Z</time>
      </trkpt>
      <trkpt lat="48.17056" lon="6.58751">
        <ele>397.16</ele>
        <time>2017-04-02T07:36:28Z</time>
      </trkpt>
      <trkpt lat="48.17049" lon="6.58755">
        <ele>397.16</ele>
        <time>2017-04-02T07:36:29Z</time>
      </trkpt>
      <trkpt lat="48.17043" lon="6.5876">
        <ele>397.64</ele>
        <time>2017-04-02T07:36:30Z</time>
      </trkpt>
      <trkpt lat="48.17038" lon="6.58766">
        <ele>397.16</ele>
        <time>2017-04-02T07:36:31Z</time>
      </trkpt>
      <trkpt lat="48.17033" lon="6.58774">
        <ele>397.16</ele>
        <time>2017-04-02T07:36:32Z</time>
      </trkpt>
      <trkpt lat="48.17029" lon="6.58782">
        <ele>397.16</ele>
        <time>2017-04-02T07:36:33Z</time>
      </trkpt>
      <trkpt lat="48.17027" lon="6.58791">
        <ele>397.64</ele>
        <time>2017-04-02T07:36:34Z</time>
      </trkpt>
      <trkpt lat="48.17024" lon="6.588">
        <ele>397.64</ele>
        <time>2017-04-02T07:36:35Z</time>
      </trkpt>
      <trkpt lat="48.17022" lon="6.5881">
        <ele>397.64</ele>
        <time>2017-04-02T07:36:36Z</time>
      </trkpt>
      <trkpt lat="48.17021" lon="6.58819">
        <ele>397.64</ele>
        <time>2017-04-02T07:36:37Z</time>
      </trkpt>
      <trkpt lat="48.1702" lon="6.58828">
        <ele>397.64</ele>
        <time>2017-04-02T07:36:38Z</time>
      </trkpt>
      <trkpt lat="48.17019" lon="6.58837">
        <ele>398.12</ele>
        <time>2017-04-02T07:36:39Z</time>
      </trkpt>
      <trkpt lat="48.17013" lon="6.58887">
        <ele>398.6</ele>
        <time>2017-04-02T07:36:45Z</time>
      </trkpt>
      <trkpt lat="48.17011" lon="6.58895">
        <ele>399.08</ele>
        <time>2017-04-02T07:36:46Z</time>
      </trkpt>
      <trkpt lat="48.17009" lon="6.58902">
        <ele>399.08</ele>
        <time>2017-04-02T07:36:47Z</time>
      </trkpt>
      <trkpt lat="48.17006" lon="6.58908">
        <ele>399.57</ele>
        <time>2017-04-02T07:36:48Z</time>
      </trkpt>
      <trkpt lat="48.17003" lon="6.58913">
        <ele>399.57</ele>
        <time>2017-04-02T07:36:49Z</time>
      </trkpt>
      <trkpt lat="48.17" lon="6.58918">
        <ele>399.57</ele>
        <time>2017-04-02T07:36:50Z</time>
      </trkpt>
      <trkpt lat="48.16997" lon="6.58922">
        <ele>399.57</ele>
        <time>2017-04-02T07:36:51Z</time>
      </trkpt>
      <trkpt lat="48.16994" lon="6.58925">
        <ele>399.57</ele>
        <time>2017-04-02T07:36:52Z</time>
      </trkpt>
      <trkpt lat="48.1699" lon="6.58929">
        <ele>399.57</ele>
        <time>2017-04-02T07:36:53Z</time>
      </trkpt>
      <trkpt lat="48.16987" lon="6.58932">
        <ele>400.05</ele>
        <time>2017-04-02T07:36:54Z</time>
      </trkpt>
      <trkpt lat="48.16972" lon="6.58975">
        <ele>400.05</ele>
        <time>2017-04-02T07:37:04Z</time>
      </trkpt>
      <trkpt lat="48.16961" lon="6.59032">
        <ele>400.05</ele>
        <time>2017-04-02T07:37:15Z</time>
      </trkpt>
      <trkpt lat="48.1695" lon="6.5909">
        <ele>400.05</ele>
        <time>2017-04-02T07:37:25Z</time>
      </trkpt>
      <trkpt lat="48.16948" lon="6.59096">
        <ele>400.53</ele>
        <time>2017-04-02T07:37:26Z</time>
      </trkpt>
      <trkpt lat="48.16946" lon="6.59101">
        <ele>400.05</ele>
        <time>2017-04-02T07:37:27Z</time>
      </trkpt>
      <trkpt lat="48.16944" lon="6.59106">
        <ele>400.53</ele>
        <time>2017-04-02T07:37:28Z</time>
      </trkpt>
      <trkpt lat="48.16941" lon="6.59111">
        <ele>401.01</ele>
        <time>2017-04-02T07:37:29Z</time>
      </trkpt>
      <trkpt lat="48.16932" lon="6.59124">
        <ele>400.53</ele>
        <time>2017-04-02T07:37:32Z</time>
      </trkpt>
      <trkpt lat="48.16891" lon="6.59177">
        <ele>401.49</ele>
        <time>2017-04-02T07:37:45Z</time>
      </trkpt>
      <trkpt lat="48.16865" lon="6.5922">
        <ele>401.97</ele>
        <time>2017-04-02T07:37:56Z</time>
      </trkpt>
      <trkpt lat="48.16842" lon="6.59265">
        <ele>401.97</ele>
        <time>2017-04-02T07:38:08Z</time>
      </trkpt>
      <trkpt lat="48.1684" lon="6.59272">
        <ele>402.45</ele>
        <time>2017-04-02T07:38:10Z</time>
      </trkpt>
      <trkpt lat="48.1684" lon="6.59275">
        <ele>402.45</ele>
        <time>2017-04-02T07:38:11Z</time>
      </trkpt>
      <trkpt lat="48.1684" lon="6.59279">
        <ele>402.93</ele>
        <time>2017-04-02T07:38:12Z</time>
      </trkpt>
      <trkpt lat="48.16842" lon="6.59282">
        <ele>402.93</ele>
        <time>2017-04-02T07:38:13Z</time>
      </trkpt>
      <trkpt lat="48.16845" lon="6.59284">
        <ele>402.93</ele>
        <time>2017-04-02T07:38:14Z</time>
      </trkpt>
      <trkpt lat="48.16848" lon="6.59285">
        <ele>402.45</ele>
        <time>2017-04-02T07:38:15Z</time>
      </trkpt>
      <trkpt lat="48.16851" lon="6.59286">
        <ele>402.45</ele>
        <time>2017-04-02T07:38:16Z</time>
      </trkpt>
      <trkpt lat="48.16854" lon="6.59288">
        <ele>402.45</ele>
        <time>2017-04-02T07:38:17Z</time>
      </trkpt>
      <trkpt lat="48.16858" lon="6.5929">
        <ele>402.45</ele>
        <time>2017-04-02T07:38:18Z</time>
      </trkpt>
      <trkpt lat="48.1686" lon="6.59294">
        <ele>402.93</ele>
        <time>2017-04-02T07:38:19Z</time>
      </trkpt>
      <trkpt lat="48.16863" lon="6.59298">
        <ele>402.45</ele>
        <time>2017-04-02T07:38:20Z</time>
      </trkpt>
      <trkpt lat="48.16864" lon="6.59303">
        <ele>402.45</ele>
        <time>2017-04-02T07:38:21Z</time>
      </trkpt>
      <trkpt lat="48.16865" lon="6.59307">
        <ele>402.45</ele>
        <time>2017-04-02T07:38:22Z</time>
      </trkpt>
      <trkpt lat="48.16865" lon="6.59313">
        <ele>402.93</ele>
        <time>2017-04-02T07:38:23Z</time>
      </trkpt>
      <trkpt lat="48.16865" lon="6.59318">
        <ele>402.93</ele>
        <time>2017-04-02T07:38:24Z</time>
      </trkpt>
      <trkpt lat="48.16864" lon="6.59323">
        <ele>402.93</ele>
        <time>2017-04-02T07:38:25Z</time>
      </trkpt>
      <trkpt lat="48.16856" lon="6.59372">
        <ele>403.89</ele>
        <time>2017-04-02T07:38:34Z</time>
      </trkpt>
      <trkpt lat="48.16847" lon="6.59403">
        <ele>404.37</ele>
        <time>2017-04-02T07:38:40Z</time>
      </trkpt>
      <trkpt lat="48.16848" lon="6.59409">
        <ele>404.37</ele>
        <time>2017-04-02T07:38:41Z</time>
      </trkpt>
      <trkpt lat="48.16849" lon="6.59415">
        <ele>403.89</ele>
        <time>2017-04-02T07:38:42Z</time>
      </trkpt>
      <trkpt lat="48.16876" lon="6.59494">
        <ele>406.29</ele>
        <time>2017-04-02T07:38:57Z</time>
      </trkpt>
      <trkpt lat="48.16884" lon="6.59563">
        <ele>408.7</ele>
        <time>2017-04-02T07:39:10Z</time>
      </trkpt>
      <trkpt lat="48.16892" lon="6.59624">
        <ele>411.1</ele>
        <time>2017-04-02T07:39:23Z</time>
      </trkpt>
      <trkpt lat="48.169" lon="6.59671">
        <ele>413.98</ele>
        <time>2017-04-02T07:39:36Z</time>
      </trkpt>
      <trkpt lat="48.16902" lon="6.5972">
        <ele>417.35</ele>
        <time>2017-04-02T07:39:50Z</time>
      </trkpt>
      <trkpt lat="48.16905" lon="6.59757">
        <ele>420.23</ele>
        <time>2017-04-02T07:40:02Z</time>
      </trkpt>
      <trkpt lat="48.16906" lon="6.598">
        <ele>422.64</ele>
        <time>2017-04-02T07:40:15Z</time>
      </trkpt>
      <trkpt lat="48.16906" lon="6.59812">
        <ele>423.12</ele>
        <time>2017-04-02T07:40:19Z</time>
      </trkpt>
      <trkpt lat="48.16901" lon="6.59853">
        <ele>425.52</ele>
        <time>2017-04-02T07:40:32Z</time>
      </trkpt>
      <trkpt lat="48.16899" lon="6.59878">
        <ele>427.44</ele>
        <time>2017-04-02T07:40:40Z</time>
      </trkpt>
      <trkpt lat="48.16898" lon="6.59881">
        <ele>426.96</ele>
        <time>2017-04-02T07:40:41Z</time>
      </trkpt>
      <trkpt lat="48.16897" lon="6.59883">
        <ele>427.92</ele>
        <time>2017-04-02T07:40:42Z</time>
      </trkpt>
      <trkpt lat="48.16896" lon="6.59886">
        <ele>427.92</ele>
        <time>2017-04-02T07:40:43Z</time>
      </trkpt>
      <trkpt lat="48.16896" lon="6.59889">
        <ele>428.4</ele>
        <time>2017-04-02T07:40:44Z</time>
      </trkpt>
      <trkpt lat="48.16894" lon="6.59892">
        <ele>428.4</ele>
        <time>2017-04-02T07:40:45Z</time>
      </trkpt>
      <trkpt lat="48.16892" lon="6.59894">
        <ele>428.4</ele>
        <time>2017-04-02T07:40:46Z</time>
      </trkpt>
      <trkpt lat="48.16891" lon="6.59896">
        <ele>428.89</ele>
        <time>2017-04-02T07:40:47Z</time>
      </trkpt>
      <trkpt lat="48.16891" lon="6.59899">
        <ele>428.89</ele>
        <time>2017-04-02T07:40:48Z</time>
      </trkpt>
      <trkpt lat="48.1689" lon="6.59902">
        <ele>428.89</ele>
        <time>2017-04-02T07:40:49Z</time>
      </trkpt>
      <trkpt lat="48.1689" lon="6.59904">
        <ele>429.37</ele>
        <time>2017-04-02T07:40:50Z</time>
      </trkpt>
      <trkpt lat="48.16889" lon="6.59906">
        <ele>428.89</ele>
        <time>2017-04-02T07:40:51Z</time>
      </trkpt>
      <trkpt lat="48.16888" lon="6.59926">
        <ele>431.29</ele>
        <time>2017-04-02T07:40:59Z</time>
      </trkpt>
      <trkpt lat="48.1689" lon="6.5994">
        <ele>431.77</ele>
        <time>2017-04-02T07:41:05Z</time>
      </trkpt>
      <trkpt lat="48.16892" lon="6.59942">
        <ele>431.77</ele>
        <time>2017-04-02T07:41:06Z</time>
      </trkpt>
      <trkpt lat="48.16893" lon="6.59943">
        <ele>432.25</ele>
        <time>2017-04-02T07:41:07Z</time>
      </trkpt>
      <trkpt lat="48.16894" lon="6.59945">
        <ele>432.25</ele>
        <time>2017-04-02T07:41:08Z</time>
      </trkpt>
      <trkpt lat="48.16895" lon="6.59946">
        <ele>432.25</ele>
        <time>2017-04-02T07:41:09Z</time>
      </trkpt>
      <trkpt lat="48.16896" lon="6.59947">
        <ele>432.73</ele>
        <time>2017-04-02T07:41:10Z</time>
      </trkpt>
      <trkpt lat="48.16897" lon="6.59949">
        <ele>432.73</ele>
        <time>2017-04-02T07:41:11Z</time>
      </trkpt>
      <trkpt lat="48.16898" lon="6.5995">
        <ele>433.21</ele>
        <time>2017-04-02T07:41:12Z</time>
      </trkpt>
      <trkpt lat="48.16899" lon="6.59952">
        <ele>433.21</ele>
        <time>2017-04-02T07:41:13Z</time>
      </trkpt>
      <trkpt lat="48.16901" lon="6.59953">
        <ele>433.69</ele>
        <time>2017-04-02T07:41:14Z</time>
      </trkpt>
      <trkpt lat="48.16902" lon="6.59955">
        <ele>433.21</ele>
        <time>2017-04-02T07:41:15Z</time>
      </trkpt>
      <trkpt lat="48.16903" lon="6.59957">
        <ele>433.69</ele>
        <time>2017-04-02T07:41:16Z</time>
      </trkpt>
      <trkpt lat="48.16907" lon="6.59962">
        <ele>434.17</ele>
        <time>2017-04-02T07:41:19Z</time>
      </trkpt>
      <trkpt lat="48.16908" lon="6.59963">
        <ele>434.17</ele>
        <time>2017-04-02T07:41:20Z</time>
      </trkpt>
      <trkpt lat="48.1691" lon="6.59965">
        <ele>434.17</ele>
        <time>2017-04-02T07:41:21Z</time>
      </trkpt>
      <trkpt lat="48.16915" lon="6.59972">
        <ele>435.13</ele>
        <time>2017-04-02T07:41:26Z</time>
      </trkpt>
      <trkpt lat="48.16919" lon="6.59976">
        <ele>436.1</ele>
        <time>2017-04-02T07:41:29Z</time>
      </trkpt>
      <trkpt lat="48.1692" lon="6.59977">
        <ele>436.1</ele>
        <time>2017-04-02T07:41:30Z</time>
      </trkpt>
      <trkpt lat="48.16921" lon="6.59978">
        <ele>436.1</ele>
        <time>2017-04-02T07:41:31Z</time>
      </trkpt>
      <trkpt lat="48.16922" lon="6.59979">
        <ele>436.58</ele>
        <time>2017-04-02T07:41:32Z</time>
      </trkpt>
      <trkpt lat="48.16923" lon="6.5998">
        <ele>437.06</ele>
        <time>2017-04-02T07:41:33Z</time>
      </trkpt>
      <trkpt lat="48.16932" lon="6.59988">
        <ele>438.02</ele>
        <time>2017-04-02T07:41:39Z</time>
      </trkpt>
      <trkpt lat="48.16934" lon="6.59988">
        <ele>438.02</ele>
        <time>2017-04-02T07:41:40Z</time>
      </trkpt>
      <trkpt lat="48.16937" lon="6.59991">
        <ele>438.98</ele>
        <time>2017-04-02T07:41:43Z</time>
      </trkpt>
      <trkpt lat="48.16938" lon="6.59993">
        <ele>438.5</ele>
        <time>2017-04-02T07:41:44Z</time>
      </trkpt>
      <trkpt lat="48.1694" lon="6.59995">
        <ele>439.46</ele>
        <time>2017-04-02T07:41:45Z</time>
      </trkpt>
      <trkpt lat="48.16941" lon="6.59997">
        <ele>439.46</ele>
        <time>2017-04-02T07:41:46Z</time>
      </trkpt>
      <trkpt lat="48.16942" lon="6.59999">
        <ele>439.46</ele>
        <time>2017-04-02T07:41:47Z</time>
      </trkpt>
      <trkpt lat="48.16947" lon="6.60006">
        <ele>440.42</ele>
        <time>2017-04-02T07:41:51Z</time>
      </trkpt>
      <trkpt lat="48.16948" lon="6.60007">
        <ele>440.42</ele>
        <time>2017-04-02T07:41:52Z</time>
      </trkpt>
      <trkpt lat="48.1695" lon="6.60009">
        <ele>440.9</ele>
        <time>2017-04-02T07:41:53Z</time>
      </trkpt>
      <trkpt lat="48.16951" lon="6.6001">
        <ele>440.9</ele>
        <time>2017-04-02T07:41:54Z</time>
      </trkpt>
      <trkpt lat="48.16954" lon="6.60015">
        <ele>441.38</ele>
        <time>2017-04-02T07:41:57Z</time>
      </trkpt>
      <trkpt lat="48.16955" lon="6.60017">
        <ele>441.86</ele>
        <time>2017-04-02T07:41:58Z</time>
      </trkpt>
      <trkpt lat="48.16962" lon="6.60028">
        <ele>443.31</ele>
        <time>2017-04-02T07:42:05Z</time>
      </trkpt>
      <trkpt lat="48.16977" lon="6.60053">
        <ele>446.19</ele>
        <time>2017-04-02T07:42:19Z</time>
      </trkpt>
      <trkpt lat="48.1698" lon="6.60058">
        <ele>446.67</ele>
        <time>2017-04-02T07:42:22Z</time>
      </trkpt>
      <trkpt lat="48.1698" lon="6.60059">
        <ele>447.15</ele>
        <time>2017-04-02T07:42:23Z</time>
      </trkpt>
      <trkpt lat="48.16981" lon="6.60061">
        <ele>447.15</ele>
        <time>2017-04-02T07:42:24Z</time>
      </trkpt>
      <trkpt lat="48.16982" lon="6.60063">
        <ele>447.15</ele>
        <time>2017-04-02T07:42:25Z</time>
      </trkpt>
      <trkpt lat="48.16983" lon="6.60065">
        <ele>447.63</ele>
        <time>2017-04-02T07:42:26Z</time>
      </trkpt>
      <trkpt lat="48.16984" lon="6.60066">
        <ele>447.63</ele>
        <time>2017-04-02T07:42:27Z</time>
      </trkpt>
      <trkpt lat="48.16985" lon="6.60068">
        <ele>447.63</ele>
        <time>2017-04-02T07:42:28Z</time>
      </trkpt>
      <trkpt lat="48.16993" lon="6.60082">
        <ele>449.07</ele>
        <time>2017-04-02T07:42:37Z</time>
      </trkpt>
      <trkpt lat="48.16995" lon="6.60084">
        <ele>449.55</ele>
        <time>2017-04-02T07:42:38Z</time>
      </trkpt>
      <trkpt lat="48.16996" lon="6.60086">
        <ele>450.03</ele>
        <time>2017-04-02T07:42:39Z</time>
      </trkpt>
      <trkpt lat="48.16997" lon="6.60088">
        <ele>449.55</ele>
        <time>2017-04-02T07:42:40Z</time>
      </trkpt>
      <trkpt lat="48.16998" lon="6.6009">
        <ele>450.03</ele>
        <time>2017-04-02T07:42:41Z</time>
      </trkpt>
      <trkpt lat="48.17001" lon="6.60099">
        <ele>451.48</ele>
        <time>2017-04-02T07:42:46Z</time>
      </trkpt>
      <trkpt lat="48.17003" lon="6.601">
        <ele>451.48</ele>
        <time>2017-04-02T07:42:47Z</time>
      </trkpt>
      <trkpt lat="48.17004" lon="6.60102">
        <ele>451.48</ele>
        <time>2017-04-02T07:42:48Z</time>
      </trkpt>
      <trkpt lat="48.17005" lon="6.60103">
        <ele>451.96</ele>
        <time>2017-04-02T07:42:49Z</time>
      </trkpt>
      <trkpt lat="48.17006" lon="6.60105">
        <ele>451.96</ele>
        <time>2017-04-02T07:42:50Z</time>
      </trkpt>
      <trkpt lat="48.17007" lon="6.60106">
        <ele>451.96</ele>
        <time>2017-04-02T07:42:51Z</time>
      </trkpt>
      <trkpt lat="48.17008" lon="6.60107">
        <ele>452.44</ele>
        <time>2017-04-02T07:42:52Z</time>
      </trkpt>
      <trkpt lat="48.1701" lon="6.60109">
        <ele>452.44</ele>
        <time>2017-04-02T07:42:53Z</time>
      </trkpt>
      <trkpt lat="48.17011" lon="6.60111">
        <ele>452.92</ele>
        <time>2017-04-02T07:42:54Z</time>
      </trkpt>
      <trkpt lat="48.17012" lon="6.60112">
        <ele>452.92</ele>
        <time>2017-04-02T07:42:55Z</time>
      </trkpt>
      <trkpt lat="48.17014" lon="6.60114">
        <ele>453.4</ele>
        <time>2017-04-02T07:42:58Z</time>
      </trkpt>
      <trkpt lat="48.17016" lon="6.60114">
        <ele>453.88</ele>
        <time>2017-04-02T07:42:59Z</time>
      </trkpt>
      <trkpt lat="48.17018" lon="6.60115">
        <ele>453.88</ele>
        <time>2017-04-02T07:43:00Z</time>
      </trkpt>
      <trkpt lat="48.17019" lon="6.60116">
        <ele>453.88</ele>
        <time>2017-04-02T07:43:01Z</time>
      </trkpt>
      <trkpt lat="48.17021" lon="6.60117">
        <ele>454.36</ele>
        <time>2017-04-02T07:43:02Z</time>
      </trkpt>
      <trkpt lat="48.17031" lon="6.60118">
        <ele>455.8</ele>
        <time>2017-04-02T07:43:09Z</time>
      </trkpt>
      <trkpt lat="48.17035" lon="6.6012">
        <ele>455.8</ele>
        <time>2017-04-02T07:43:12Z</time>
      </trkpt>
      <trkpt lat="48.17036" lon="6.6012">
        <ele>455.8</ele>
        <time>2017-04-02T07:43:13Z</time>
      </trkpt>
      <trkpt lat="48.17052" lon="6.60121">
        <ele>457.24</ele>
        <time>2017-04-02T07:43:23Z</time>
      </trkpt>
      <trkpt lat="48.1706" lon="6.60124">
        <ele>458.21</ele>
        <time>2017-04-02T07:43:26Z</time>
      </trkpt>
      <trkpt lat="48.17062" lon="6.60123">
        <ele>458.21</ele>
        <time>2017-04-02T07:43:27Z</time>
      </trkpt>
      <trkpt lat="48.17066" lon="6.60123">
        <ele>458.69</ele>
        <time>2017-04-02T07:43:29Z</time>
      </trkpt>
      <trkpt lat="48.1707" lon="6.60123">
        <ele>459.65</ele>
        <time>2017-04-02T07:43:31Z</time>
      </trkpt>
      <trkpt lat="48.17072" lon="6.60123">
        <ele>459.65</ele>
        <time>2017-04-02T07:43:32Z</time>
      </trkpt>
      <trkpt lat="48.17074" lon="6.60124">
        <ele>459.65</ele>
        <time>2017-04-02T07:43:33Z</time>
      </trkpt>
      <trkpt lat="48.17076" lon="6.60124">
        <ele>460.13</ele>
        <time>2017-04-02T07:43:34Z</time>
      </trkpt>
      <trkpt lat="48.17079" lon="6.60125">
        <ele>460.13</ele>
        <time>2017-04-02T07:43:35Z</time>
      </trkpt>
      <trkpt lat="48.17083" lon="6.60125">
        <ele>460.61</ele>
        <time>2017-04-02T07:43:37Z</time>
      </trkpt>
      <trkpt lat="48.17085" lon="6.60126">
        <ele>460.61</ele>
        <time>2017-04-02T07:43:38Z</time>
      </trkpt>
      <trkpt lat="48.17087" lon="6.60126">
        <ele>460.61</ele>
        <time>2017-04-02T07:43:39Z</time>
      </trkpt>
      <trkpt lat="48.17089" lon="6.60126">
        <ele>461.09</ele>
        <time>2017-04-02T07:43:40Z</time>
      </trkpt>
      <trkpt lat="48.17091" lon="6.60126">
        <ele>461.57</ele>
        <time>2017-04-02T07:43:41Z</time>
      </trkpt>
      <trkpt lat="48.17092" lon="6.60127">
        <ele>462.05</ele>
        <time>2017-04-02T07:43:42Z</time>
      </trkpt>
      <trkpt lat="48.17096" lon="6.60127">
        <ele>462.05</ele>
        <time>2017-04-02T07:43:44Z</time>
      </trkpt>
      <trkpt lat="48.17098" lon="6.60127">
        <ele>462.05</ele>
        <time>2017-04-02T07:43:45Z</time>
      </trkpt>
      <trkpt lat="48.171" lon="6.60127">
        <ele>462.05</ele>
        <time>2017-04-02T07:43:46Z</time>
      </trkpt>
      <trkpt lat="48.17103" lon="6.60126">
        <ele>462.53</ele>
        <time>2017-04-02T07:43:47Z</time>
      </trkpt>
      <trkpt lat="48.17105" lon="6.60126">
        <ele>463.01</ele>
        <time>2017-04-02T07:43:48Z</time>
      </trkpt>
      <trkpt lat="48.17121" lon="6.60127">
        <ele>463.97</ele>
        <time>2017-04-02T07:43:56Z</time>
      </trkpt>
      <trkpt lat="48.17123" lon="6.60127">
        <ele>464.45</ele>
        <time>2017-04-02T07:43:57Z</time>
      </trkpt>
      <trkpt lat="48.17126" lon="6.60126">
        <ele>464.93</ele>
        <time>2017-04-02T07:43:58Z</time>
      </trkpt>
      <trkpt lat="48.17128" lon="6.60125">
        <ele>464.45</ele>
        <time>2017-04-02T07:43:59Z</time>
      </trkpt>
      <trkpt lat="48.1713" lon="6.60124">
        <ele>464.45</ele>
        <time>2017-04-02T07:44:00Z</time>
      </trkpt>
      <trkpt lat="48.17132" lon="6.60124">
        <ele>464.93</ele>
        <time>2017-04-02T07:44:01Z</time>
      </trkpt>
      <trkpt lat="48.17134" lon="6.60123">
        <ele>464.93</ele>
        <time>2017-04-02T07:44:02Z</time>
      </trkpt>
      <trkpt lat="48.17136" lon="6.60121">
        <ele>465.42</ele>
        <time>2017-04-02T07:44:03Z</time>
      </trkpt>
      <trkpt lat="48.17139" lon="6.6012">
        <ele>465.42</ele>
        <time>2017-04-02T07:44:04Z</time>
      </trkpt>
      <trkpt lat="48.17141" lon="6.60119">
        <ele>465.42</ele>
        <time>2017-04-02T07:44:05Z</time>
      </trkpt>
      <trkpt lat="48.17157" lon="6.60116">
        <ele>466.38</ele>
        <time>2017-04-02T07:44:12Z</time>
      </trkpt>
      <trkpt lat="48.1716" lon="6.60115">
        <ele>466.86</ele>
        <time>2017-04-02T07:44:13Z</time>
      </trkpt>
      <trkpt lat="48.17187" lon="6.60116">
        <ele>467.82</ele>
        <time>2017-04-02T07:44:25Z</time>
      </trkpt>
      <trkpt lat="48.17217" lon="6.60127">
        <ele>468.78</ele>
        <time>2017-04-02T07:44:38Z</time>
      </trkpt>
      <trkpt lat="48.17225" lon="6.60131">
        <ele>469.26</ele>
        <time>2017-04-02T07:44:43Z</time>
      </trkpt>
      <trkpt lat="48.17227" lon="6.60132">
        <ele>469.74</ele>
        <time>2017-04-02T07:44:44Z</time>
      </trkpt>
      <trkpt lat="48.17229" lon="6.60133">
        <ele>469.26</ele>
        <time>2017-04-02T07:44:45Z</time>
      </trkpt>
      <trkpt lat="48.17251" lon="6.60153">
        <ele>471.18</ele>
        <time>2017-04-02T07:44:57Z</time>
      </trkpt>
      <trkpt lat="48.17252" lon="6.60154">
        <ele>471.18</ele>
        <time>2017-04-02T07:44:58Z</time>
      </trkpt>
      <trkpt lat="48.17253" lon="6.60156">
        <ele>471.18</ele>
        <time>2017-04-02T07:44:59Z</time>
      </trkpt>
      <trkpt lat="48.17254" lon="6.60158">
        <ele>471.18</ele>
        <time>2017-04-02T07:45:00Z</time>
      </trkpt>
      <trkpt lat="48.17255" lon="6.60159">
        <ele>471.18</ele>
        <time>2017-04-02T07:45:01Z</time>
      </trkpt>
      <trkpt lat="48.17257" lon="6.60161">
        <ele>471.66</ele>
        <time>2017-04-02T07:45:03Z</time>
      </trkpt>
      <trkpt lat="48.17258" lon="6.60162">
        <ele>471.66</ele>
        <time>2017-04-02T07:45:04Z</time>
      </trkpt>
      <trkpt lat="48.17259" lon="6.60164">
        <ele>471.66</ele>
        <time>2017-04-02T07:45:05Z</time>
      </trkpt>
      <trkpt lat="48.1726" lon="6.60165">
        <ele>471.66</ele>
        <time>2017-04-02T07:45:06Z</time>
      </trkpt>
      <trkpt lat="48.17261" lon="6.60167">
        <ele>471.66</ele>
        <time>2017-04-02T07:45:07Z</time>
      </trkpt>
      <trkpt lat="48.17263" lon="6.60169">
        <ele>471.66</ele>
        <time>2017-04-02T07:45:09Z</time>
      </trkpt>
      <trkpt lat="48.17265" lon="6.60171">
        <ele>471.66</ele>
        <time>2017-04-02T07:45:10Z</time>
      </trkpt>
      <trkpt lat="48.17266" lon="6.60173">
        <ele>471.66</ele>
        <time>2017-04-02T07:45:11Z</time>
      </trkpt>
      <trkpt lat="48.17268" lon="6.60174">
        <ele>471.66</ele>
        <time>2017-04-02T07:45:12Z</time>
      </trkpt>
      <trkpt lat="48.1727" lon="6.60174">
        <ele>471.66</ele>
        <time>2017-04-02T07:45:13Z</time>
      </trkpt>
      <trkpt lat="48.17272" lon="6.60175">
        <ele>471.18</ele>
        <time>2017-04-02T07:45:14Z</time>
      </trkpt>
      <trkpt lat="48.17274" lon="6.60175">
        <ele>470.22</ele>
        <time>2017-04-02T07:45:15Z</time>
      </trkpt>
      <trkpt lat="48.17277" lon="6.60174">
        <ele>468.78</ele>
        <time>2017-04-02T07:45:16Z</time>
      </trkpt>
      <trkpt lat="48.1728" lon="6.60172">
        <ele>467.82</ele>
        <time>2017-04-02T07:45:17Z</time>
      </trkpt>
      <trkpt lat="48.17303" lon="6.60165">
        <ele>465.42</ele>
        <time>2017-04-02T07:45:21Z</time>
      </trkpt>
      <trkpt lat="48.1731" lon="6.60164">
        <ele>463.97</ele>
        <time>2017-04-02T07:45:22Z</time>
      </trkpt>
      <trkpt lat="48.17326" lon="6.60163">
        <ele>461.09</ele>
        <time>2017-04-02T07:45:24Z</time>
      </trkpt>
      <trkpt lat="48.17349" lon="6.60162">
        <ele>457.72</ele>
        <time>2017-04-02T07:45:28Z</time>
      </trkpt>
      <trkpt lat="48.17355" lon="6.6016">
        <ele>456.76</ele>
        <time>2017-04-02T07:45:29Z</time>
      </trkpt>
      <trkpt lat="48.17362" lon="6.60159">
        <ele>455.32</ele>
        <time>2017-04-02T07:45:30Z</time>
      </trkpt>
      <trkpt lat="48.1739" lon="6.60156">
        <ele>451</ele>
        <time>2017-04-02T07:45:34Z</time>
      </trkpt>
      <trkpt lat="48.17411" lon="6.60153">
        <ele>448.11</ele>
        <time>2017-04-02T07:45:37Z</time>
      </trkpt>
      <trkpt lat="48.17418" lon="6.60151">
        <ele>447.15</ele>
        <time>2017-04-02T07:45:38Z</time>
      </trkpt>
      <trkpt lat="48.17425" lon="6.60149">
        <ele>446.19</ele>
        <time>2017-04-02T07:45:39Z</time>
      </trkpt>
      <trkpt lat="48.17439" lon="6.60147">
        <ele>445.71</ele>
        <time>2017-04-02T07:45:41Z</time>
      </trkpt>
      <trkpt lat="48.17452" lon="6.60146">
        <ele>445.23</ele>
        <time>2017-04-02T07:45:43Z</time>
      </trkpt>
      <trkpt lat="48.17458" lon="6.60145">
        <ele>445.23</ele>
        <time>2017-04-02T07:45:44Z</time>
      </trkpt>
      <trkpt lat="48.1747" lon="6.60143">
        <ele>444.75</ele>
        <time>2017-04-02T07:45:46Z</time>
      </trkpt>
      <trkpt lat="48.17475" lon="6.60141">
        <ele>444.75</ele>
        <time>2017-04-02T07:45:47Z</time>
      </trkpt>
      <trkpt lat="48.1748" lon="6.60139">
        <ele>443.31</ele>
        <time>2017-04-02T07:45:48Z</time>
      </trkpt>
      <trkpt lat="48.1749" lon="6.60136">
        <ele>442.82</ele>
        <time>2017-04-02T07:45:50Z</time>
      </trkpt>
      <trkpt lat="48.17494" lon="6.60135">
        <ele>442.34</ele>
        <time>2017-04-02T07:45:51Z</time>
      </trkpt>
      <trkpt lat="48.17516" lon="6.60125">
        <ele>440.42</ele>
        <time>2017-04-02T07:45:55Z</time>
      </trkpt>
      <trkpt lat="48.17522" lon="6.60122">
        <ele>440.42</ele>
        <time>2017-04-02T07:45:56Z</time>
      </trkpt>
      <trkpt lat="48.17539" lon="6.60116">
        <ele>438.98</ele>
        <time>2017-04-02T07:45:59Z</time>
      </trkpt>
      <trkpt lat="48.17572" lon="6.60103">
        <ele>436.58</ele>
        <time>2017-04-02T07:46:04Z</time>
      </trkpt>
      <trkpt lat="48.1758" lon="6.60101">
        <ele>436.1</ele>
        <time>2017-04-02T07:46:05Z</time>
      </trkpt>
      <trkpt lat="48.17586" lon="6.60097">
        <ele>436.58</ele>
        <time>2017-04-02T07:46:06Z</time>
      </trkpt>
      <trkpt lat="48.17602" lon="6.60089">
        <ele>435.61</ele>
        <time>2017-04-02T07:46:09Z</time>
      </trkpt>
      <trkpt lat="48.17607" lon="6.60087">
        <ele>435.13</ele>
        <time>2017-04-02T07:46:10Z</time>
      </trkpt>
      <trkpt lat="48.17619" lon="6.60086">
        <ele>434.17</ele>
        <time>2017-04-02T07:46:12Z</time>
      </trkpt>
      <trkpt lat="48.1763" lon="6.60091">
        <ele>433.69</ele>
        <time>2017-04-02T07:46:14Z</time>
      </trkpt>
      <trkpt lat="48.17635" lon="6.60095">
        <ele>434.17</ele>
        <time>2017-04-02T07:46:15Z</time>
      </trkpt>
      <trkpt lat="48.1764" lon="6.60097">
        <ele>433.69</ele>
        <time>2017-04-02T07:46:16Z</time>
      </trkpt>
      <trkpt lat="48.17669" lon="6.60121">
        <ele>433.69</ele>
        <time>2017-04-02T07:46:22Z</time>
      </trkpt>
      <trkpt lat="48.1768" lon="6.60131">
        <ele>433.21</ele>
        <time>2017-04-02T07:46:24Z</time>
      </trkpt>
      <trkpt lat="48.1769" lon="6.60146">
        <ele>433.21</ele>
        <time>2017-04-02T07:46:26Z</time>
      </trkpt>
      <trkpt lat="48.17695" lon="6.60154">
        <ele>432.73</ele>
        <time>2017-04-02T07:46:27Z</time>
      </trkpt>
      <trkpt lat="48.17713" lon="6.60198">
        <ele>434.17</ele>
        <time>2017-04-02T07:46:32Z</time>
      </trkpt>
      <trkpt lat="48.17716" lon="6.60205">
        <ele>433.21</ele>
        <time>2017-04-02T07:46:33Z</time>
      </trkpt>
      <trkpt lat="48.17718" lon="6.60213">
        <ele>433.69</ele>
        <time>2017-04-02T07:46:34Z</time>
      </trkpt>
      <trkpt lat="48.1772" lon="6.60221">
        <ele>433.21</ele>
        <time>2017-04-02T07:46:35Z</time>
      </trkpt>
      <trkpt lat="48.17721" lon="6.6023">
        <ele>433.21</ele>
        <time>2017-04-02T07:46:36Z</time>
      </trkpt>
      <trkpt lat="48.17722" lon="6.60237">
        <ele>434.17</ele>
        <time>2017-04-02T07:46:37Z</time>
      </trkpt>
      <trkpt lat="48.17724" lon="6.60242">
        <ele>433.69</ele>
        <time>2017-04-02T07:46:38Z</time>
      </trkpt>
      <trkpt lat="48.17725" lon="6.60244">
        <ele>433.69</ele>
        <time>2017-04-02T07:46:39Z</time>
      </trkpt>
      <trkpt lat="48.17726" lon="6.60246">
        <ele>433.69</ele>
        <time>2017-04-02T07:46:40Z</time>
      </trkpt>
      <trkpt lat="48.17735" lon="6.6026">
        <ele>433.69</ele>
        <time>2017-04-02T07:46:45Z</time>
      </trkpt>
      <trkpt lat="48.17736" lon="6.60265">
        <ele>433.21</ele>
        <time>2017-04-02T07:46:46Z</time>
      </trkpt>
      <trkpt lat="48.17737" lon="6.6027">
        <ele>433.69</ele>
        <time>2017-04-02T07:46:47Z</time>
      </trkpt>
      <trkpt lat="48.17739" lon="6.60275">
        <ele>433.69</ele>
        <time>2017-04-02T07:46:48Z</time>
      </trkpt>
      <trkpt lat="48.17741" lon="6.60278">
        <ele>434.17</ele>
        <time>2017-04-02T07:46:49Z</time>
      </trkpt>
      <trkpt lat="48.17744" lon="6.60281">
        <ele>434.65</ele>
        <time>2017-04-02T07:46:50Z</time>
      </trkpt>
      <trkpt lat="48.17745" lon="6.60286">
        <ele>434.17</ele>
        <time>2017-04-02T07:46:51Z</time>
      </trkpt>
      <trkpt lat="48.17747" lon="6.60291">
        <ele>434.65</ele>
        <time>2017-04-02T07:46:52Z</time>
      </trkpt>
      <trkpt lat="48.17748" lon="6.60296">
        <ele>434.65</ele>
        <time>2017-04-02T07:46:53Z</time>
      </trkpt>
      <trkpt lat="48.17751" lon="6.60307">
        <ele>434.65</ele>
        <time>2017-04-02T07:46:55Z</time>
      </trkpt>
      <trkpt lat="48.17753" lon="6.60311">
        <ele>435.13</ele>
        <time>2017-04-02T07:46:56Z</time>
      </trkpt>
      <trkpt lat="48.17755" lon="6.60316">
        <ele>435.13</ele>
        <time>2017-04-02T07:46:57Z</time>
      </trkpt>
      <trkpt lat="48.17759" lon="6.60327">
        <ele>435.13</ele>
        <time>2017-04-02T07:46:59Z</time>
      </trkpt>
      <trkpt lat="48.17761" lon="6.60335">
        <ele>434.65</ele>
        <time>2017-04-02T07:47:00Z</time>
      </trkpt>
      <trkpt lat="48.17763" lon="6.60359">
        <ele>434.17</ele>
        <time>2017-04-02T07:47:03Z</time>
      </trkpt>
      <trkpt lat="48.17763" lon="6.60367">
        <ele>435.13</ele>
        <time>2017-04-02T07:47:04Z</time>
      </trkpt>
      <trkpt lat="48.17747" lon="6.60407">
        <ele>437.06</ele>
        <time>2017-04-02T07:47:13Z</time>
      </trkpt>
      <trkpt lat="48.17739" lon="6.60417">
        <ele>438.02</ele>
        <time>2017-04-02T07:47:17Z</time>
      </trkpt>
      <trkpt lat="48.17737" lon="6.60422">
        <ele>438.02</ele>
        <time>2017-04-02T07:47:18Z</time>
      </trkpt>
      <trkpt lat="48.17736" lon="6.60428">
        <ele>438.02</ele>
        <time>2017-04-02T07:47:19Z</time>
      </trkpt>
      <trkpt lat="48.17735" lon="6.60434">
        <ele>438.02</ele>
        <time>2017-04-02T07:47:20Z</time>
      </trkpt>
      <trkpt lat="48.17733" lon="6.60439">
        <ele>438.5</ele>
        <time>2017-04-02T07:47:21Z</time>
      </trkpt>
      <trkpt lat="48.17731" lon="6.60443">
        <ele>438.98</ele>
        <time>2017-04-02T07:47:22Z</time>
      </trkpt>
      <trkpt lat="48.17729" lon="6.60447">
        <ele>438.98</ele>
        <time>2017-04-02T07:47:23Z</time>
      </trkpt>
      <trkpt lat="48.17727" lon="6.60452">
        <ele>439.46</ele>
        <time>2017-04-02T07:47:24Z</time>
      </trkpt>
      <trkpt lat="48.17725" lon="6.60457">
        <ele>439.94</ele>
        <time>2017-04-02T07:47:25Z</time>
      </trkpt>
      <trkpt lat="48.17723" lon="6.6046">
        <ele>439.94</ele>
        <time>2017-04-02T07:47:26Z</time>
      </trkpt>
      <trkpt lat="48.17719" lon="6.60468">
        <ele>439.94</ele>
        <time>2017-04-02T07:47:28Z</time>
      </trkpt>
      <trkpt lat="48.17718" lon="6.60473">
        <ele>440.42</ele>
        <time>2017-04-02T07:47:29Z</time>
      </trkpt>
      <trkpt lat="48.17714" lon="6.60495">
        <ele>440.42</ele>
        <time>2017-04-02T07:47:34Z</time>
      </trkpt>
      <trkpt lat="48.17712" lon="6.60498">
        <ele>439.94</ele>
        <time>2017-04-02T07:47:35Z</time>
      </trkpt>
      <trkpt lat="48.17707" lon="6.60518">
        <ele>440.9</ele>
        <time>2017-04-02T07:47:40Z</time>
      </trkpt>
      <trkpt lat="48.17705" lon="6.60523">
        <ele>440.9</ele>
        <time>2017-04-02T07:47:41Z</time>
      </trkpt>
      <trkpt lat="48.177" lon="6.60542">
        <ele>441.38</ele>
        <time>2017-04-02T07:47:45Z</time>
      </trkpt>
      <trkpt lat="48.17699" lon="6.60546">
        <ele>441.86</ele>
        <time>2017-04-02T07:47:46Z</time>
      </trkpt>
      <trkpt lat="48.17699" lon="6.6055">
        <ele>441.38</ele>
        <time>2017-04-02T07:47:47Z</time>
      </trkpt>
      <trkpt lat="48.17697" lon="6.60565">
        <ele>442.34</ele>
        <time>2017-04-02T07:47:53Z</time>
      </trkpt>
      <trkpt lat="48.17696" lon="6.60569">
        <ele>441.86</ele>
        <time>2017-04-02T07:47:54Z</time>
      </trkpt>
      <trkpt lat="48.17694" lon="6.60572">
        <ele>442.34</ele>
        <time>2017-04-02T07:47:55Z</time>
      </trkpt>
      <trkpt lat="48.17692" lon="6.60574">
        <ele>442.82</ele>
        <time>2017-04-02T07:47:56Z</time>
      </trkpt>
      <trkpt lat="48.17691" lon="6.60577">
        <ele>442.82</ele>
        <time>2017-04-02T07:47:57Z</time>
      </trkpt>
      <trkpt lat="48.1769" lon="6.60581">
        <ele>443.31</ele>
        <time>2017-04-02T07:47:58Z</time>
      </trkpt>
      <trkpt lat="48.17689" lon="6.60584">
        <ele>443.31</ele>
        <time>2017-04-02T07:47:59Z</time>
      </trkpt>
      <trkpt lat="48.17689" lon="6.60586">
        <ele>443.31</ele>
        <time>2017-04-02T07:48:00Z</time>
      </trkpt>
      <trkpt lat="48.17688" lon="6.60588">
        <ele>443.79</ele>
        <time>2017-04-02T07:48:01Z</time>
      </trkpt>
      <trkpt lat="48.17684" lon="6.60598">
        <ele>444.27</ele>
        <time>2017-04-02T07:48:05Z</time>
      </trkpt>
      <trkpt lat="48.17673" lon="6.60615">
        <ele>445.23</ele>
        <time>2017-04-02T07:48:12Z</time>
      </trkpt>
      <trkpt lat="48.17658" lon="6.60633">
        <ele>446.67</ele>
        <time>2017-04-02T07:48:21Z</time>
      </trkpt>
      <trkpt lat="48.17646" lon="6.60652">
        <ele>447.63</ele>
        <time>2017-04-02T07:48:29Z</time>
      </trkpt>
      <trkpt lat="48.17643" lon="6.60655">
        <ele>447.63</ele>
        <time>2017-04-02T07:48:30Z</time>
      </trkpt>
      <trkpt lat="48.17635" lon="6.60662">
        <ele>448.59</ele>
        <time>2017-04-02T07:48:36Z</time>
      </trkpt>
      <trkpt lat="48.17632" lon="6.60662">
        <ele>449.07</ele>
        <time>2017-04-02T07:48:41Z</time>
      </trkpt>
      <trkpt lat="48.1761" lon="6.60694">
        <ele>451</ele>
        <time>2017-04-02T07:48:50Z</time>
      </trkpt>
      <trkpt lat="48.17602" lon="6.60704">
        <ele>451.48</ele>
        <time>2017-04-02T07:48:53Z</time>
      </trkpt>
      <trkpt lat="48.17586" lon="6.60719">
        <ele>453.88</ele>
        <time>2017-04-02T07:49:04Z</time>
      </trkpt>
      <trkpt lat="48.17559" lon="6.60743">
        <ele>455.8</ele>
        <time>2017-04-02T07:49:14Z</time>
      </trkpt>
      <trkpt lat="48.17558" lon="6.60743">
        <ele>455.8</ele>
        <time>2017-04-02T07:49:15Z</time>
      </trkpt>
      <trkpt lat="48.17526" lon="6.60777">
        <ele>457.72</ele>
        <time>2017-04-02T07:49:25Z</time>
      </trkpt>
      <trkpt lat="48.17524" lon="6.60781">
        <ele>458.21</ele>
        <time>2017-04-02T07:49:27Z</time>
      </trkpt>
      <trkpt lat="48.17508" lon="6.60796">
        <ele>460.13</ele>
        <time>2017-04-02T07:49:37Z</time>
      </trkpt>
      <trkpt lat="48.17504" lon="6.60801">
        <ele>460.13</ele>
        <time>2017-04-02T07:49:40Z</time>
      </trkpt>
      <trkpt lat="48.17492" lon="6.60815">
        <ele>462.05</ele>
        <time>2017-04-02T07:49:51Z</time>
      </trkpt>
      <trkpt lat="48.17476" lon="6.60834">
        <ele>465.42</ele>
        <time>2017-04-02T07:50:04Z</time>
      </trkpt>
      <trkpt lat="48.17471" lon="6.60844">
        <ele>466.38</ele>
        <time>2017-04-02T07:50:11Z</time>
      </trkpt>
      <trkpt lat="48.17468" lon="6.60849">
        <ele>466.86</ele>
        <time>2017-04-02T07:50:13Z</time>
      </trkpt>
      <trkpt lat="48.17465" lon="6.60854">
        <ele>467.34</ele>
        <time>2017-04-02T07:50:16Z</time>
      </trkpt>
      <trkpt lat="48.1746" lon="6.60859">
        <ele>468.78</ele>
        <time>2017-04-02T07:50:20Z</time>
      </trkpt>
      <trkpt lat="48.17459" lon="6.60862">
        <ele>469.26</ele>
        <time>2017-04-02T07:50:22Z</time>
      </trkpt>
      <trkpt lat="48.17457" lon="6.60863">
        <ele>469.26</ele>
        <time>2017-04-02T07:50:23Z</time>
      </trkpt>
      <trkpt lat="48.17443" lon="6.60881">
        <ele>471.66</ele>
        <time>2017-04-02T07:50:33Z</time>
      </trkpt>
      <trkpt lat="48.17443" lon="6.60882">
        <ele>471.66</ele>
        <time>2017-04-02T07:50:34Z</time>
      </trkpt>
      <trkpt lat="48.17436" lon="6.60887">
        <ele>473.11</ele>
        <time>2017-04-02T07:50:38Z</time>
      </trkpt>
      <trkpt lat="48.17428" lon="6.60896">
        <ele>474.55</ele>
        <time>2017-04-02T07:50:44Z</time>
      </trkpt>
      <trkpt lat="48.17424" lon="6.60905">
        <ele>475.99</ele>
        <time>2017-04-02T07:50:48Z</time>
      </trkpt>
      <trkpt lat="48.17415" lon="6.6092">
        <ele>477.91</ele>
        <time>2017-04-02T07:50:56Z</time>
      </trkpt>
      <trkpt lat="48.17398" lon="6.60959">
        <ele>479.35</ele>
        <time>2017-04-02T07:51:08Z</time>
      </trkpt>
      <trkpt lat="48.17397" lon="6.60966">
        <ele>479.35</ele>
        <time>2017-04-02T07:51:17Z</time>
      </trkpt>
      <trkpt lat="48.174" lon="6.60982">
        <ele>478.87</ele>
        <time>2017-04-02T07:51:28Z</time>
      </trkpt>
      <trkpt lat="48.17401" lon="6.60983">
        <ele>478.87</ele>
        <time>2017-04-02T07:51:45Z</time>
      </trkpt>
      <trkpt lat="48.17402" lon="6.60983">
        <ele>478.87</ele>
        <time>2017-04-02T07:52:02Z</time>
      </trkpt>
      <trkpt lat="48.17401" lon="6.60982">
        <ele>478.87</ele>
        <time>2017-04-02T07:52:19Z</time>
      </trkpt>
      <trkpt lat="48.17401" lon="6.60981">
        <ele>478.39</ele>
        <time>2017-04-02T07:52:37Z</time>
      </trkpt>
      <trkpt lat="48.174" lon="6.60981">
        <ele>478.39</ele>
        <time>2017-04-02T07:52:58Z</time>
      </trkpt>
      <trkpt lat="48.174" lon="6.60981">
        <ele>478.87</ele>
        <time>2017-04-02T07:53:04Z</time>
      </trkpt>
      <trkpt lat="48.174" lon="6.60981">
        <ele>478.87</ele>
        <time>2017-04-02T07:53:16Z</time>
      </trkpt>
      <trkpt lat="48.174" lon="6.60983">
        <ele>478.87</ele>
        <time>2017-04-02T07:53:29Z</time>
      </trkpt>
      <trkpt lat="48.174" lon="6.60984">
        <ele>478.87</ele>
        <time>2017-04-02T07:53:46Z</time>
      </trkpt>
      <trkpt lat="48.174" lon="6.60984">
        <ele>478.87</ele>
        <time>2017-04-02T07:54:01Z</time>
      </trkpt>
      <trkpt lat="48.17399" lon="6.60984">
        <ele>478.87</ele>
        <time>2017-04-02T07:54:18Z</time>
      </trkpt>
      <trkpt lat="48.17399" lon="6.60983">
        <ele>478.87</ele>
        <time>2017-04-02T07:54:37Z</time>
      </trkpt>
      <trkpt lat="48.17398" lon="6.60983">
        <ele>478.87</ele>
        <time>2017-04-02T07:54:55Z</time>
      </trkpt>
      <trkpt lat="48.17398" lon="6.60983">
        <ele>478.87</ele>
        <time>2017-04-02T07:55:14Z</time>
      </trkpt>
      <trkpt lat="48.17399" lon="6.60983">
        <ele>478.87</ele>
        <time>2017-04-02T07:55:30Z</time>
      </trkpt>
      <trkpt lat="48.174" lon="6.60983">
        <ele>478.87</ele>
        <time>2017-04-02T07:55:47Z</time>
      </trkpt>
      <trkpt lat="48.17401" lon="6.60984">
        <ele>478.39</ele>
        <time>2017-04-02T07:56:13Z</time>
      </trkpt>
      <trkpt lat="48.17401" lon="6.60983">
        <ele>478.39</ele>
        <time>2017-04-02T07:56:26Z</time>
      </trkpt>
      <trkpt lat="48.174" lon="6.60984">
        <ele>478.87</ele>
        <time>2017-04-02T07:56:39Z</time>
      </trkpt>
      <trkpt lat="48.17399" lon="6.60984">
        <ele>478.39</ele>
        <time>2017-04-02T07:56:59Z</time>
      </trkpt>
      <trkpt lat="48.174" lon="6.60985">
        <ele>478.39</ele>
        <time>2017-04-02T07:57:16Z</time>
      </trkpt>
      <trkpt lat="48.174" lon="6.60984">
        <ele>478.87</ele>
        <time>2017-04-02T07:57:40Z</time>
      </trkpt>
      <trkpt lat="48.17399" lon="6.60982">
        <ele>478.87</ele>
        <time>2017-04-02T07:58:00Z</time>
      </trkpt>
      <trkpt lat="48.17399" lon="6.60983">
        <ele>479.35</ele>
        <time>2017-04-02T07:58:16Z</time>
      </trkpt>
      <trkpt lat="48.17399" lon="6.60984">
        <ele>478.87</ele>
        <time>2017-04-02T07:58:35Z</time>
      </trkpt>
      <trkpt lat="48.17398" lon="6.60985">
        <ele>479.35</ele>
        <time>2017-04-02T07:58:56Z</time>
      </trkpt>
      <trkpt lat="48.17399" lon="6.60985">
        <ele>479.35</ele>
        <time>2017-04-02T07:59:16Z</time>
      </trkpt>
      <trkpt lat="48.17398" lon="6.60984">
        <ele>478.87</ele>
        <time>2017-04-02T07:59:34Z</time>
      </trkpt>
      <trkpt lat="48.17398" lon="6.60984">
        <ele>477.43</ele>
        <time>2017-04-02T07:59:51Z</time>
      </trkpt>
      <trkpt lat="48.17398" lon="6.60984">
        <ele>478.87</ele>
        <time>2017-04-02T07:59:53Z</time>
      </trkpt>
      <trkpt lat="48.17399" lon="6.60985">
        <ele>477.91</ele>
        <time>2017-04-02T08:00:21Z</time>
      </trkpt>
      <trkpt lat="48.174" lon="6.60986">
        <ele>478.87</ele>
        <time>2017-04-02T08:00:52Z</time>
      </trkpt>
      <trkpt lat="48.174" lon="6.60985">
        <ele>475.99</ele>
        <time>2017-04-02T08:01:03Z</time>
      </trkpt>
      <trkpt lat="48.174" lon="6.60985">
        <ele>478.87</ele>
        <time>2017-04-02T08:01:05Z</time>
      </trkpt>
      <trkpt lat="48.17399" lon="6.60984">
        <ele>478.87</ele>
        <time>2017-04-02T08:01:33Z</time>
      </trkpt>
      <trkpt lat="48.174" lon="6.60984">
        <ele>478.87</ele>
        <time>2017-04-02T08:01:38Z</time>
      </trkpt>
      <trkpt lat="48.17401" lon="6.60994">
        <ele>478.39</ele>
        <time>2017-04-02T08:01:42Z</time>
      </trkpt>
      <trkpt lat="48.17408" lon="6.61039">
        <ele>477.91</ele>
        <time>2017-04-02T08:01:53Z</time>
      </trkpt>
      <trkpt lat="48.17406" lon="6.61066">
        <ele>477.43</ele>
        <time>2017-04-02T08:01:58Z</time>
      </trkpt>
      <trkpt lat="48.17399" lon="6.6112">
        <ele>477.43</ele>
        <time>2017-04-02T08:02:07Z</time>
      </trkpt>
      <trkpt lat="48.17398" lon="6.61133">
        <ele>477.43</ele>
        <time>2017-04-02T08:02:09Z</time>
      </trkpt>
      <trkpt lat="48.17397" lon="6.6114">
        <ele>477.43</ele>
        <time>2017-04-02T08:02:10Z</time>
      </trkpt>
      <trkpt lat="48.17396" lon="6.61147">
        <ele>476.95</ele>
        <time>2017-04-02T08:02:11Z</time>
      </trkpt>
      <trkpt lat="48.17395" lon="6.61153">
        <ele>477.91</ele>
        <time>2017-04-02T08:02:12Z</time>
      </trkpt>
      <trkpt lat="48.17395" lon="6.61159">
        <ele>477.43</ele>
        <time>2017-04-02T08:02:13Z</time>
      </trkpt>
      <trkpt lat="48.17394" lon="6.61165">
        <ele>477.91</ele>
        <time>2017-04-02T08:02:14Z</time>
      </trkpt>
      <trkpt lat="48.17394" lon="6.61177">
        <ele>477.91</ele>
        <time>2017-04-02T08:02:16Z</time>
      </trkpt>
      <trkpt lat="48.17393" lon="6.61191">
        <ele>478.39</ele>
        <time>2017-04-02T08:02:18Z</time>
      </trkpt>
      <trkpt lat="48.17393" lon="6.61197">
        <ele>478.39</ele>
        <time>2017-04-02T08:02:19Z</time>
      </trkpt>
      <trkpt lat="48.17393" lon="6.61204">
        <ele>478.39</ele>
        <time>2017-04-02T08:02:20Z</time>
      </trkpt>
      <trkpt lat="48.17394" lon="6.6121">
        <ele>478.87</ele>
        <time>2017-04-02T08:02:21Z</time>
      </trkpt>
      <trkpt lat="48.17395" lon="6.61216">
        <ele>478.87</ele>
        <time>2017-04-02T08:02:22Z</time>
      </trkpt>
      <trkpt lat="48.17396" lon="6.61223">
        <ele>479.35</ele>
        <time>2017-04-02T08:02:23Z</time>
      </trkpt>
      <trkpt lat="48.17406" lon="6.61276">
        <ele>479.35</ele>
        <time>2017-04-02T08:02:32Z</time>
      </trkpt>
      <trkpt lat="48.17409" lon="6.61294">
        <ele>478.87</ele>
        <time>2017-04-02T08:02:35Z</time>
      </trkpt>
      <trkpt lat="48.17412" lon="6.61327">
        <ele>479.84</ele>
        <time>2017-04-02T08:02:41Z</time>
      </trkpt>
      <trkpt lat="48.17413" lon="6.61331">
        <ele>479.84</ele>
        <time>2017-04-02T08:02:42Z</time>
      </trkpt>
      <trkpt lat="48.17414" lon="6.61335">
        <ele>479.84</ele>
        <time>2017-04-02T08:02:43Z</time>
      </trkpt>
      <trkpt lat="48.17416" lon="6.61379">
        <ele>480.8</ele>
        <time>2017-04-02T08:02:52Z</time>
      </trkpt>
      <trkpt lat="48.17416" lon="6.61389">
        <ele>481.28</ele>
        <time>2017-04-02T08:02:55Z</time>
      </trkpt>
      <trkpt lat="48.17418" lon="6.6139">
        <ele>481.28</ele>
        <time>2017-04-02T08:02:56Z</time>
      </trkpt>
      <trkpt lat="48.17419" lon="6.6139">
        <ele>481.76</ele>
        <time>2017-04-02T08:02:57Z</time>
      </trkpt>
      <trkpt lat="48.17421" lon="6.61389">
        <ele>481.76</ele>
        <time>2017-04-02T08:02:58Z</time>
      </trkpt>
      <trkpt lat="48.17423" lon="6.61386">
        <ele>482.24</ele>
        <time>2017-04-02T08:02:59Z</time>
      </trkpt>
      <trkpt lat="48.17424" lon="6.61383">
        <ele>482.24</ele>
        <time>2017-04-02T08:03:00Z</time>
      </trkpt>
      <trkpt lat="48.17438" lon="6.61359">
        <ele>484.16</ele>
        <time>2017-04-02T08:03:09Z</time>
      </trkpt>
      <trkpt lat="48.1744" lon="6.61356">
        <ele>484.16</ele>
        <time>2017-04-02T08:03:10Z</time>
      </trkpt>
      <trkpt lat="48.17442" lon="6.61353">
        <ele>484.16</ele>
        <time>2017-04-02T08:03:11Z</time>
      </trkpt>
      <trkpt lat="48.17443" lon="6.61349">
        <ele>484.64</ele>
        <time>2017-04-02T08:03:12Z</time>
      </trkpt>
      <trkpt lat="48.17444" lon="6.61346">
        <ele>485.12</ele>
        <time>2017-04-02T08:03:13Z</time>
      </trkpt>
      <trkpt lat="48.17445" lon="6.61344">
        <ele>485.12</ele>
        <time>2017-04-02T08:03:14Z</time>
      </trkpt>
      <trkpt lat="48.17447" lon="6.61341">
        <ele>485.12</ele>
        <time>2017-04-02T08:03:15Z</time>
      </trkpt>
      <trkpt lat="48.17448" lon="6.61338">
        <ele>486.08</ele>
        <time>2017-04-02T08:03:16Z</time>
      </trkpt>
      <trkpt lat="48.17449" lon="6.61335">
        <ele>486.08</ele>
        <time>2017-04-02T08:03:17Z</time>
      </trkpt>
      <trkpt lat="48.1745" lon="6.61333">
        <ele>486.08</ele>
        <time>2017-04-02T08:03:18Z</time>
      </trkpt>
      <trkpt lat="48.17464" lon="6.61303">
        <ele>488.49</ele>
        <time>2017-04-02T08:03:28Z</time>
      </trkpt>
      <trkpt lat="48.17484" lon="6.61284">
        <ele>490.89</ele>
        <time>2017-04-02T08:03:38Z</time>
      </trkpt>
      <trkpt lat="48.17512" lon="6.61269">
        <ele>492.81</ele>
        <time>2017-04-02T08:03:51Z</time>
      </trkpt>
      <trkpt lat="48.17539" lon="6.61265">
        <ele>493.77</ele>
        <time>2017-04-02T08:04:03Z</time>
      </trkpt>
      <trkpt lat="48.1756" lon="6.61252">
        <ele>494.74</ele>
        <time>2017-04-02T08:04:13Z</time>
      </trkpt>
      <trkpt lat="48.17577" lon="6.61231">
        <ele>493.77</ele>
        <time>2017-04-02T08:04:20Z</time>
      </trkpt>
      <trkpt lat="48.1758" lon="6.61228">
        <ele>494.26</ele>
        <time>2017-04-02T08:04:21Z</time>
      </trkpt>
      <trkpt lat="48.17582" lon="6.61224">
        <ele>494.26</ele>
        <time>2017-04-02T08:04:22Z</time>
      </trkpt>
      <trkpt lat="48.17611" lon="6.61171">
        <ele>492.81</ele>
        <time>2017-04-02T08:04:34Z</time>
      </trkpt>
      <trkpt lat="48.17644" lon="6.61134">
        <ele>493.29</ele>
        <time>2017-04-02T08:04:46Z</time>
      </trkpt>
      <trkpt lat="48.17666" lon="6.61125">
        <ele>493.29</ele>
        <time>2017-04-02T08:04:54Z</time>
      </trkpt>
      <trkpt lat="48.17674" lon="6.61122">
        <ele>494.26</ele>
        <time>2017-04-02T08:04:57Z</time>
      </trkpt>
      <trkpt lat="48.17676" lon="6.6112">
        <ele>493.77</ele>
        <time>2017-04-02T08:04:58Z</time>
      </trkpt>
      <trkpt lat="48.17678" lon="6.61118">
        <ele>493.77</ele>
        <time>2017-04-02T08:04:59Z</time>
      </trkpt>
      <trkpt lat="48.17682" lon="6.61118">
        <ele>493.77</ele>
        <time>2017-04-02T08:05:00Z</time>
      </trkpt>
      <trkpt lat="48.17685" lon="6.61117">
        <ele>494.26</ele>
        <time>2017-04-02T08:05:01Z</time>
      </trkpt>
      <trkpt lat="48.17688" lon="6.61117">
        <ele>493.77</ele>
        <time>2017-04-02T08:05:02Z</time>
      </trkpt>
      <trkpt lat="48.17696" lon="6.61115">
        <ele>494.26</ele>
        <time>2017-04-02T08:05:04Z</time>
      </trkpt>
      <trkpt lat="48.17726" lon="6.61113">
        <ele>494.74</ele>
        <time>2017-04-02T08:05:13Z</time>
      </trkpt>
      <trkpt lat="48.17751" lon="6.61114">
        <ele>495.22</ele>
        <time>2017-04-02T08:05:21Z</time>
      </trkpt>
      <trkpt lat="48.17781" lon="6.61119">
        <ele>494.74</ele>
        <time>2017-04-02T08:05:30Z</time>
      </trkpt>
      <trkpt lat="48.17805" lon="6.61134">
        <ele>493.29</ele>
        <time>2017-04-02T08:05:35Z</time>
      </trkpt>
      <trkpt lat="48.17809" lon="6.61139">
        <ele>492.81</ele>
        <time>2017-04-02T08:05:36Z</time>
      </trkpt>
      <trkpt lat="48.17814" lon="6.61146">
        <ele>492.33</ele>
        <time>2017-04-02T08:05:37Z</time>
      </trkpt>
      <trkpt lat="48.17819" lon="6.61153">
        <ele>492.33</ele>
        <time>2017-04-02T08:05:38Z</time>
      </trkpt>
      <trkpt lat="48.17823" lon="6.61163">
        <ele>491.85</ele>
        <time>2017-04-02T08:05:39Z</time>
      </trkpt>
      <trkpt lat="48.17826" lon="6.61172">
        <ele>492.33</ele>
        <time>2017-04-02T08:05:40Z</time>
      </trkpt>
      <trkpt lat="48.17833" lon="6.61189">
        <ele>492.33</ele>
        <time>2017-04-02T08:05:42Z</time>
      </trkpt>
      <trkpt lat="48.17839" lon="6.61201">
        <ele>492.81</ele>
        <time>2017-04-02T08:05:44Z</time>
      </trkpt>
      <trkpt lat="48.17843" lon="6.61204">
        <ele>493.29</ele>
        <time>2017-04-02T08:05:45Z</time>
      </trkpt>
      <trkpt lat="48.17851" lon="6.6121">
        <ele>495.22</ele>
        <time>2017-04-02T08:05:48Z</time>
      </trkpt>
      <trkpt lat="48.17861" lon="6.61217">
        <ele>496.66</ele>
        <time>2017-04-02T08:05:57Z</time>
      </trkpt>
      <trkpt lat="48.17863" lon="6.61217">
        <ele>497.14</ele>
        <time>2017-04-02T08:05:58Z</time>
      </trkpt>
      <trkpt lat="48.17865" lon="6.61218">
        <ele>497.14</ele>
        <time>2017-04-02T08:05:59Z</time>
      </trkpt>
      <trkpt lat="48.17868" lon="6.61219">
        <ele>497.62</ele>
        <time>2017-04-02T08:06:00Z</time>
      </trkpt>
      <trkpt lat="48.1787" lon="6.6122">
        <ele>498.1</ele>
        <time>2017-04-02T08:06:01Z</time>
      </trkpt>
      <trkpt lat="48.17872" lon="6.6122">
        <ele>498.58</ele>
        <time>2017-04-02T08:06:02Z</time>
      </trkpt>
      <trkpt lat="48.17874" lon="6.61221">
        <ele>499.06</ele>
        <time>2017-04-02T08:06:03Z</time>
      </trkpt>
      <trkpt lat="48.1789" lon="6.61225">
        <ele>501.46</ele>
        <time>2017-04-02T08:06:11Z</time>
      </trkpt>
      <trkpt lat="48.17893" lon="6.61225">
        <ele>501.95</ele>
        <time>2017-04-02T08:06:12Z</time>
      </trkpt>
      <trkpt lat="48.17902" lon="6.61224">
        <ele>502.43</ele>
        <time>2017-04-02T08:06:16Z</time>
      </trkpt>
      <trkpt lat="48.17904" lon="6.61223">
        <ele>502.43</ele>
        <time>2017-04-02T08:06:17Z</time>
      </trkpt>
      <trkpt lat="48.17906" lon="6.61223">
        <ele>502.43</ele>
        <time>2017-04-02T08:06:18Z</time>
      </trkpt>
      <trkpt lat="48.17909" lon="6.61222">
        <ele>502.91</ele>
        <time>2017-04-02T08:06:19Z</time>
      </trkpt>
      <trkpt lat="48.17912" lon="6.61223">
        <ele>503.39</ele>
        <time>2017-04-02T08:06:20Z</time>
      </trkpt>
      <trkpt lat="48.17914" lon="6.61223">
        <ele>502.43</ele>
        <time>2017-04-02T08:06:21Z</time>
      </trkpt>
      <trkpt lat="48.17917" lon="6.61223">
        <ele>502.91</ele>
        <time>2017-04-02T08:06:22Z</time>
      </trkpt>
      <trkpt lat="48.17941" lon="6.61206">
        <ele>500.98</ele>
        <time>2017-04-02T08:06:30Z</time>
      </trkpt>
      <trkpt lat="48.17944" lon="6.61201">
        <ele>501.46</ele>
        <time>2017-04-02T08:06:31Z</time>
      </trkpt>
      <trkpt lat="48.17947" lon="6.61197">
        <ele>501.95</ele>
        <time>2017-04-02T08:06:32Z</time>
      </trkpt>
      <trkpt lat="48.17955" lon="6.61185">
        <ele>501.46</ele>
        <time>2017-04-02T08:06:35Z</time>
      </trkpt>
      <trkpt lat="48.17961" lon="6.61168">
        <ele>501.95</ele>
        <time>2017-04-02T08:06:38Z</time>
      </trkpt>
      <trkpt lat="48.17964" lon="6.61163">
        <ele>501.95</ele>
        <time>2017-04-02T08:06:39Z</time>
      </trkpt>
      <trkpt lat="48.17967" lon="6.6116">
        <ele>502.43</ele>
        <time>2017-04-02T08:06:40Z</time>
      </trkpt>
      <trkpt lat="48.17975" lon="6.61145">
        <ele>502.91</ele>
        <time>2017-04-02T08:06:43Z</time>
      </trkpt>
      <trkpt lat="48.17998" lon="6.61108">
        <ele>503.87</ele>
        <time>2017-04-02T08:06:52Z</time>
      </trkpt>
      <trkpt lat="48.18002" lon="6.61104">
        <ele>503.39</ele>
        <time>2017-04-02T08:06:53Z</time>
      </trkpt>
      <trkpt lat="48.18025" lon="6.61087">
        <ele>501.46</ele>
        <time>2017-04-02T08:06:58Z</time>
      </trkpt>
      <trkpt lat="48.1803" lon="6.61085">
        <ele>500.5</ele>
        <time>2017-04-02T08:06:59Z</time>
      </trkpt>
      <trkpt lat="48.18037" lon="6.61084">
        <ele>500.02</ele>
        <time>2017-04-02T08:07:00Z</time>
      </trkpt>
      <trkpt lat="48.18044" lon="6.61085">
        <ele>499.54</ele>
        <time>2017-04-02T08:07:01Z</time>
      </trkpt>
      <trkpt lat="48.18051" lon="6.61085">
        <ele>499.06</ele>
        <time>2017-04-02T08:07:02Z</time>
      </trkpt>
      <trkpt lat="48.18058" lon="6.61087">
        <ele>499.06</ele>
        <time>2017-04-02T08:07:03Z</time>
      </trkpt>
      <trkpt lat="48.18072" lon="6.61091">
        <ele>499.06</ele>
        <time>2017-04-02T08:07:05Z</time>
      </trkpt>
      <trkpt lat="48.18085" lon="6.61092">
        <ele>498.58</ele>
        <time>2017-04-02T08:07:07Z</time>
      </trkpt>
      <trkpt lat="48.18092" lon="6.61091">
        <ele>499.06</ele>
        <time>2017-04-02T08:07:08Z</time>
      </trkpt>
      <trkpt lat="48.18098" lon="6.61092">
        <ele>498.58</ele>
        <time>2017-04-02T08:07:09Z</time>
      </trkpt>
      <trkpt lat="48.18104" lon="6.61095">
        <ele>499.06</ele>
        <time>2017-04-02T08:07:10Z</time>
      </trkpt>
      <trkpt lat="48.1812" lon="6.61104">
        <ele>499.54</ele>
        <time>2017-04-02T08:07:13Z</time>
      </trkpt>
      <trkpt lat="48.18124" lon="6.61107">
        <ele>500.02</ele>
        <time>2017-04-02T08:07:14Z</time>
      </trkpt>
      <trkpt lat="48.18129" lon="6.61109">
        <ele>500.5</ele>
        <time>2017-04-02T08:07:15Z</time>
      </trkpt>
      <trkpt lat="48.18133" lon="6.6111">
        <ele>500.5</ele>
        <time>2017-04-02T08:07:16Z</time>
      </trkpt>
      <trkpt lat="48.18138" lon="6.6111">
        <ele>500.5</ele>
        <time>2017-04-02T08:07:17Z</time>
      </trkpt>
      <trkpt lat="48.18141" lon="6.61109">
        <ele>500.98</ele>
        <time>2017-04-02T08:07:18Z</time>
      </trkpt>
      <trkpt lat="48.18145" lon="6.61109">
        <ele>501.46</ele>
        <time>2017-04-02T08:07:19Z</time>
      </trkpt>
      <trkpt lat="48.18147" lon="6.61108">
        <ele>501.46</ele>
        <time>2017-04-02T08:07:20Z</time>
      </trkpt>
      <trkpt lat="48.18159" lon="6.611">
        <ele>502.91</ele>
        <time>2017-04-02T08:07:26Z</time>
      </trkpt>
      <trkpt lat="48.1816" lon="6.61099">
        <ele>503.39</ele>
        <time>2017-04-02T08:07:27Z</time>
      </trkpt>
      <trkpt lat="48.18162" lon="6.61098">
        <ele>503.87</ele>
        <time>2017-04-02T08:07:28Z</time>
      </trkpt>
      <trkpt lat="48.18163" lon="6.61096">
        <ele>503.39</ele>
        <time>2017-04-02T08:07:29Z</time>
      </trkpt>
      <trkpt lat="48.18165" lon="6.61095">
        <ele>503.87</ele>
        <time>2017-04-02T08:07:30Z</time>
      </trkpt>
      <trkpt lat="48.18166" lon="6.61093">
        <ele>503.87</ele>
        <time>2017-04-02T08:07:31Z</time>
      </trkpt>
      <trkpt lat="48.18167" lon="6.61092">
        <ele>504.35</ele>
        <time>2017-04-02T08:07:32Z</time>
      </trkpt>
      <trkpt lat="48.18169" lon="6.6109">
        <ele>504.35</ele>
        <time>2017-04-02T08:07:33Z</time>
      </trkpt>
      <trkpt lat="48.18173" lon="6.61085">
        <ele>505.31</ele>
        <time>2017-04-02T08:07:36Z</time>
      </trkpt>
      <trkpt lat="48.18173" lon="6.61083">
        <ele>505.31</ele>
        <time>2017-04-02T08:07:37Z</time>
      </trkpt>
      <trkpt lat="48.18174" lon="6.61081">
        <ele>505.31</ele>
        <time>2017-04-02T08:07:38Z</time>
      </trkpt>
      <trkpt lat="48.18176" lon="6.61079">
        <ele>505.31</ele>
        <time>2017-04-02T08:07:39Z</time>
      </trkpt>
      <trkpt lat="48.18177" lon="6.61077">
        <ele>505.79</ele>
        <time>2017-04-02T08:07:40Z</time>
      </trkpt>
      <trkpt lat="48.18179" lon="6.61075">
        <ele>505.79</ele>
        <time>2017-04-02T08:07:41Z</time>
      </trkpt>
      <trkpt lat="48.18181" lon="6.61072">
        <ele>506.27</ele>
        <time>2017-04-02T08:07:43Z</time>
      </trkpt>
      <trkpt lat="48.18182" lon="6.6107">
        <ele>506.27</ele>
        <time>2017-04-02T08:07:44Z</time>
      </trkpt>
      <trkpt lat="48.18184" lon="6.61068">
        <ele>506.75</ele>
        <time>2017-04-02T08:07:45Z</time>
      </trkpt>
      <trkpt lat="48.18185" lon="6.61066">
        <ele>506.75</ele>
        <time>2017-04-02T08:07:46Z</time>
      </trkpt>
      <trkpt lat="48.18186" lon="6.61064">
        <ele>506.75</ele>
        <time>2017-04-02T08:07:47Z</time>
      </trkpt>
      <trkpt lat="48.18188" lon="6.6106">
        <ele>507.23</ele>
        <time>2017-04-02T08:07:49Z</time>
      </trkpt>
      <trkpt lat="48.18191" lon="6.61057">
        <ele>507.71</ele>
        <time>2017-04-02T08:07:51Z</time>
      </trkpt>
      <trkpt lat="48.18201" lon="6.61043">
        <ele>509.64</ele>
        <time>2017-04-02T08:08:00Z</time>
      </trkpt>
      <trkpt lat="48.18202" lon="6.61042">
        <ele>510.12</ele>
        <time>2017-04-02T08:08:01Z</time>
      </trkpt>
      <trkpt lat="48.18204" lon="6.61041">
        <ele>510.6</ele>
        <time>2017-04-02T08:08:02Z</time>
      </trkpt>
      <trkpt lat="48.18209" lon="6.61034">
        <ele>511.56</ele>
        <time>2017-04-02T08:08:08Z</time>
      </trkpt>
      <trkpt lat="48.18222" lon="6.61029">
        <ele>513.48</ele>
        <time>2017-04-02T08:08:17Z</time>
      </trkpt>
      <trkpt lat="48.18224" lon="6.61028">
        <ele>513.96</ele>
        <time>2017-04-02T08:08:18Z</time>
      </trkpt>
      <trkpt lat="48.18225" lon="6.61028">
        <ele>513.96</ele>
        <time>2017-04-02T08:08:19Z</time>
      </trkpt>
      <trkpt lat="48.18228" lon="6.61028">
        <ele>514.44</ele>
        <time>2017-04-02T08:08:20Z</time>
      </trkpt>
      <trkpt lat="48.18229" lon="6.61028">
        <ele>515.4</ele>
        <time>2017-04-02T08:08:21Z</time>
      </trkpt>
      <trkpt lat="48.18231" lon="6.61027">
        <ele>515.4</ele>
        <time>2017-04-02T08:08:22Z</time>
      </trkpt>
      <trkpt lat="48.18232" lon="6.61027">
        <ele>514.92</ele>
        <time>2017-04-02T08:08:23Z</time>
      </trkpt>
      <trkpt lat="48.18234" lon="6.61026">
        <ele>515.88</ele>
        <time>2017-04-02T08:08:24Z</time>
      </trkpt>
      <trkpt lat="48.18236" lon="6.61025">
        <ele>515.88</ele>
        <time>2017-04-02T08:08:25Z</time>
      </trkpt>
      <trkpt lat="48.18244" lon="6.6102">
        <ele>516.37</ele>
        <time>2017-04-02T08:08:30Z</time>
      </trkpt>
      <trkpt lat="48.18245" lon="6.61019">
        <ele>516.37</ele>
        <time>2017-04-02T08:08:31Z</time>
      </trkpt>
      <trkpt lat="48.18249" lon="6.61016">
        <ele>516.37</ele>
        <time>2017-04-02T08:08:34Z</time>
      </trkpt>
      <trkpt lat="48.18251" lon="6.61016">
        <ele>516.37</ele>
        <time>2017-04-02T08:08:35Z</time>
      </trkpt>
      <trkpt lat="48.18253" lon="6.61015">
        <ele>516.37</ele>
        <time>2017-04-02T08:08:36Z</time>
      </trkpt>
      <trkpt lat="48.18255" lon="6.61015">
        <ele>516.37</ele>
        <time>2017-04-02T08:08:37Z</time>
      </trkpt>
      <trkpt lat="48.18258" lon="6.61015">
        <ele>516.37</ele>
        <time>2017-04-02T08:08:38Z</time>
      </trkpt>
      <trkpt lat="48.1826" lon="6.61015">
        <ele>516.85</ele>
        <time>2017-04-02T08:08:39Z</time>
      </trkpt>
      <trkpt lat="48.18262" lon="6.61016">
        <ele>516.37</ele>
        <time>2017-04-02T08:08:40Z</time>
      </trkpt>
      <trkpt lat="48.18264" lon="6.61016">
        <ele>516.85</ele>
        <time>2017-04-02T08:08:41Z</time>
      </trkpt>
      <trkpt lat="48.18267" lon="6.61016">
        <ele>516.85</ele>
        <time>2017-04-02T08:08:42Z</time>
      </trkpt>
      <trkpt lat="48.18282" lon="6.6102">
        <ele>518.29</ele>
        <time>2017-04-02T08:08:49Z</time>
      </trkpt>
      <trkpt lat="48.18284" lon="6.6102">
        <ele>517.81</ele>
        <time>2017-04-02T08:08:50Z</time>
      </trkpt>
      <trkpt lat="48.183" lon="6.61032">
        <ele>519.25</ele>
        <time>2017-04-02T08:08:58Z</time>
      </trkpt>
      <trkpt lat="48.18303" lon="6.61045">
        <ele>521.17</ele>
        <time>2017-04-02T08:09:05Z</time>
      </trkpt>
      <trkpt lat="48.18324" lon="6.61062">
        <ele>522.61</ele>
        <time>2017-04-02T08:09:14Z</time>
      </trkpt>
      <trkpt lat="48.18332" lon="6.61068">
        <ele>522.61</ele>
        <time>2017-04-02T08:09:18Z</time>
      </trkpt>
      <trkpt lat="48.18341" lon="6.6108">
        <ele>523.58</ele>
        <time>2017-04-02T08:09:24Z</time>
      </trkpt>
      <trkpt lat="48.18355" lon="6.61095">
        <ele>524.54</ele>
        <time>2017-04-02T08:09:33Z</time>
      </trkpt>
      <trkpt lat="48.1836" lon="6.611">
        <ele>525.02</ele>
        <time>2017-04-02T08:09:39Z</time>
      </trkpt>
      <trkpt lat="48.18367" lon="6.61106">
        <ele>525.5</ele>
        <time>2017-04-02T08:09:43Z</time>
      </trkpt>
      <trkpt lat="48.18386" lon="6.61128">
        <ele>525.5</ele>
        <time>2017-04-02T08:09:52Z</time>
      </trkpt>
      <trkpt lat="48.18395" lon="6.61141">
        <ele>525.98</ele>
        <time>2017-04-02T08:09:58Z</time>
      </trkpt>
      <trkpt lat="48.18415" lon="6.61162">
        <ele>526.46</ele>
        <time>2017-04-02T08:10:05Z</time>
      </trkpt>
      <trkpt lat="48.18438" lon="6.61182">
        <ele>526.94</ele>
        <time>2017-04-02T08:10:12Z</time>
      </trkpt>
      <trkpt lat="48.1846" lon="6.61201">
        <ele>527.42</ele>
        <time>2017-04-02T08:10:18Z</time>
      </trkpt>
      <trkpt lat="48.18491" lon="6.61231">
        <ele>527.42</ele>
        <time>2017-04-02T08:10:27Z</time>
      </trkpt>
      <trkpt lat="48.1851" lon="6.61253">
        <ele>526.94</ele>
        <time>2017-04-02T08:10:33Z</time>
      </trkpt>
      <trkpt lat="48.18549" lon="6.61298">
        <ele>526.94</ele>
        <time>2017-04-02T08:10:44Z</time>
      </trkpt>
      <trkpt lat="48.18563" lon="6.61309">
        <ele>526.94</ele>
        <time>2017-04-02T08:10:47Z</time>
      </trkpt>
      <trkpt lat="48.18576" lon="6.61326">
        <ele>526.46</ele>
        <time>2017-04-02T08:10:51Z</time>
      </trkpt>
      <trkpt lat="48.18596" lon="6.61343">
        <ele>525.98</ele>
        <time>2017-04-02T08:10:56Z</time>
      </trkpt>
      <trkpt lat="48.18636" lon="6.61382">
        <ele>525.98</ele>
        <time>2017-04-02T08:11:06Z</time>
      </trkpt>
      <trkpt lat="48.1864" lon="6.61385">
        <ele>525.98</ele>
        <time>2017-04-02T08:11:07Z</time>
      </trkpt>
      <trkpt lat="48.18651" lon="6.61395">
        <ele>525.98</ele>
        <time>2017-04-02T08:11:10Z</time>
      </trkpt>
      <trkpt lat="48.1867" lon="6.61413">
        <ele>525.98</ele>
        <time>2017-04-02T08:11:15Z</time>
      </trkpt>
      <trkpt lat="48.18686" lon="6.61429">
        <ele>525.98</ele>
        <time>2017-04-02T08:11:20Z</time>
      </trkpt>
      <trkpt lat="48.18698" lon="6.61442">
        <ele>525.98</ele>
        <time>2017-04-02T08:11:25Z</time>
      </trkpt>
      <trkpt lat="48.18704" lon="6.61446">
        <ele>525.98</ele>
        <time>2017-04-02T08:11:27Z</time>
      </trkpt>
      <trkpt lat="48.1872" lon="6.61471">
        <ele>525.98</ele>
        <time>2017-04-02T08:11:33Z</time>
      </trkpt>
      <trkpt lat="48.18725" lon="6.61512">
        <ele>526.94</ele>
        <time>2017-04-02T08:11:42Z</time>
      </trkpt>
      <trkpt lat="48.18727" lon="6.61518">
        <ele>527.9</ele>
        <time>2017-04-02T08:11:44Z</time>
      </trkpt>
      <trkpt lat="48.18729" lon="6.61525">
        <ele>527.9</ele>
        <time>2017-04-02T08:11:46Z</time>
      </trkpt>
      <trkpt lat="48.1873" lon="6.61536">
        <ele>528.86</ele>
        <time>2017-04-02T08:11:50Z</time>
      </trkpt>
      <trkpt lat="48.18738" lon="6.61573">
        <ele>529.34</ele>
        <time>2017-04-02T08:12:00Z</time>
      </trkpt>
      <trkpt lat="48.1874" lon="6.61589">
        <ele>529.82</ele>
        <time>2017-04-02T08:12:04Z</time>
      </trkpt>
      <trkpt lat="48.18745" lon="6.61623">
        <ele>530.3</ele>
        <time>2017-04-02T08:12:13Z</time>
      </trkpt>
      <trkpt lat="48.18759" lon="6.6164">
        <ele>531.27</ele>
        <time>2017-04-02T08:12:20Z</time>
      </trkpt>
      <trkpt lat="48.1876" lon="6.61643">
        <ele>531.75</ele>
        <time>2017-04-02T08:12:21Z</time>
      </trkpt>
      <trkpt lat="48.18761" lon="6.6165">
        <ele>531.75</ele>
        <time>2017-04-02T08:12:23Z</time>
      </trkpt>
      <trkpt lat="48.18766" lon="6.61666">
        <ele>532.23</ele>
        <time>2017-04-02T08:12:28Z</time>
      </trkpt>
      <trkpt lat="48.1877" lon="6.61698">
        <ele>533.19</ele>
        <time>2017-04-02T08:12:37Z</time>
      </trkpt>
      <trkpt lat="48.18771" lon="6.61701">
        <ele>533.19</ele>
        <time>2017-04-02T08:12:38Z</time>
      </trkpt>
      <trkpt lat="48.18782" lon="6.61739">
        <ele>533.19</ele>
        <time>2017-04-02T08:12:48Z</time>
      </trkpt>
      <trkpt lat="48.18792" lon="6.61772">
        <ele>532.23</ele>
        <time>2017-04-02T08:12:55Z</time>
      </trkpt>
      <trkpt lat="48.18798" lon="6.61779">
        <ele>532.23</ele>
        <time>2017-04-02T08:12:57Z</time>
      </trkpt>
      <trkpt lat="48.18802" lon="6.61783">
        <ele>532.23</ele>
        <time>2017-04-02T08:12:58Z</time>
      </trkpt>
      <trkpt lat="48.18805" lon="6.61787">
        <ele>531.75</ele>
        <time>2017-04-02T08:12:59Z</time>
      </trkpt>
      <trkpt lat="48.18807" lon="6.61791">
        <ele>532.23</ele>
        <time>2017-04-02T08:13:00Z</time>
      </trkpt>
      <trkpt lat="48.18809" lon="6.61794">
        <ele>532.23</ele>
        <time>2017-04-02T08:13:01Z</time>
      </trkpt>
      <trkpt lat="48.18812" lon="6.61798">
        <ele>532.23</ele>
        <time>2017-04-02T08:13:02Z</time>
      </trkpt>
      <trkpt lat="48.18815" lon="6.61801">
        <ele>532.23</ele>
        <time>2017-04-02T08:13:03Z</time>
      </trkpt>
      <trkpt lat="48.18819" lon="6.61805">
        <ele>532.71</ele>
        <time>2017-04-02T08:13:04Z</time>
      </trkpt>
      <trkpt lat="48.18822" lon="6.61808">
        <ele>532.71</ele>
        <time>2017-04-02T08:13:05Z</time>
      </trkpt>
      <trkpt lat="48.18825" lon="6.61812">
        <ele>533.19</ele>
        <time>2017-04-02T08:13:06Z</time>
      </trkpt>
      <trkpt lat="48.18828" lon="6.61817">
        <ele>533.19</ele>
        <time>2017-04-02T08:13:07Z</time>
      </trkpt>
      <trkpt lat="48.18831" lon="6.61821">
        <ele>532.71</ele>
        <time>2017-04-02T08:13:08Z</time>
      </trkpt>
      <trkpt lat="48.18834" lon="6.61824">
        <ele>532.71</ele>
        <time>2017-04-02T08:13:09Z</time>
      </trkpt>
      <trkpt lat="48.18837" lon="6.61828">
        <ele>533.19</ele>
        <time>2017-04-02T08:13:10Z</time>
      </trkpt>
      <trkpt lat="48.18843" lon="6.61837">
        <ele>533.19</ele>
        <time>2017-04-02T08:13:18Z</time>
      </trkpt>
      <trkpt lat="48.1884" lon="6.61836">
        <ele>533.19</ele>
        <time>2017-04-02T08:13:20Z</time>
      </trkpt>
      <trkpt lat="48.18839" lon="6.61833">
        <ele>533.19</ele>
        <time>2017-04-02T08:13:22Z</time>
      </trkpt>
      <trkpt lat="48.18835" lon="6.61828">
        <ele>533.19</ele>
        <time>2017-04-02T08:13:25Z</time>
      </trkpt>
      <trkpt lat="48.18836" lon="6.61821">
        <ele>532.71</ele>
        <time>2017-04-02T08:13:32Z</time>
      </trkpt>
      <trkpt lat="48.1882" lon="6.6181">
        <ele>532.71</ele>
        <time>2017-04-02T08:13:39Z</time>
      </trkpt>
      <trkpt lat="48.1882" lon="6.61811">
        <ele>532.71</ele>
        <time>2017-04-02T08:13:40Z</time>
      </trkpt>
      <trkpt lat="48.18816" lon="6.61816">
        <ele>531.75</ele>
        <time>2017-04-02T08:13:45Z</time>
      </trkpt>
      <trkpt lat="48.18814" lon="6.61825">
        <ele>531.75</ele>
        <time>2017-04-02T08:13:50Z</time>
      </trkpt>
      <trkpt lat="48.18803" lon="6.61844">
        <ele>531.75</ele>
        <time>2017-04-02T08:13:56Z</time>
      </trkpt>
      <trkpt lat="48.18797" lon="6.61849">
        <ele>532.23</ele>
        <time>2017-04-02T08:14:06Z</time>
      </trkpt>
      <trkpt lat="48.18793" lon="6.61851">
        <ele>532.23</ele>
        <time>2017-04-02T08:14:18Z</time>
      </trkpt>
      <trkpt lat="48.1879" lon="6.61853">
        <ele>532.23</ele>
        <time>2017-04-02T08:14:33Z</time>
      </trkpt>
      <trkpt lat="48.18786" lon="6.61855">
        <ele>531.27</ele>
        <time>2017-04-02T08:14:50Z</time>
      </trkpt>
      <trkpt lat="48.18785" lon="6.6186">
        <ele>532.23</ele>
        <time>2017-04-02T08:15:13Z</time>
      </trkpt>
      <trkpt lat="48.18786" lon="6.6186">
        <ele>537.03</ele>
        <time>2017-04-02T08:15:22Z</time>
      </trkpt>
      <trkpt lat="48.18786" lon="6.6186">
        <ele>532.71</ele>
        <time>2017-04-02T08:15:23Z</time>
      </trkpt>
      <trkpt lat="48.18786" lon="6.6186">
        <ele>534.63</ele>
        <time>2017-04-02T08:15:32Z</time>
      </trkpt>
      <trkpt lat="48.18786" lon="6.6186">
        <ele>529.34</ele>
        <time>2017-04-02T08:15:36Z</time>
      </trkpt>
      <trkpt lat="48.18786" lon="6.6186">
        <ele>533.19</ele>
        <time>2017-04-02T08:15:37Z</time>
      </trkpt>
      <trkpt lat="48.18786" lon="6.6186">
        <ele>529.82</ele>
        <time>2017-04-02T08:15:39Z</time>
      </trkpt>
      <trkpt lat="48.18786" lon="6.6186">
        <ele>533.19</ele>
        <time>2017-04-02T08:15:40Z</time>
      </trkpt>
      <trkpt lat="48.18787" lon="6.61861">
        <ele>533.19</ele>
        <time>2017-04-02T08:15:54Z</time>
      </trkpt>
      <trkpt lat="48.18786" lon="6.61862">
        <ele>533.19</ele>
        <time>2017-04-02T08:16:18Z</time>
      </trkpt>
      <trkpt lat="48.18784" lon="6.61862">
        <ele>532.71</ele>
        <time>2017-04-02T08:16:48Z</time>
      </trkpt>
      <trkpt lat="48.18782" lon="6.61863">
        <ele>532.71</ele>
        <time>2017-04-02T08:17:18Z</time>
      </trkpt>
      <trkpt lat="48.18781" lon="6.61864">
        <ele>533.19</ele>
        <time>2017-04-02T08:17:45Z</time>
      </trkpt>
      <trkpt lat="48.18781" lon="6.61865">
        <ele>533.19</ele>
        <time>2017-04-02T08:18:11Z</time>
      </trkpt>
      <trkpt lat="48.18781" lon="6.61864">
        <ele>533.67</ele>
        <time>2017-04-02T08:18:40Z</time>
      </trkpt>
      <trkpt lat="48.18782" lon="6.61864">
        <ele>530.3</ele>
        <time>2017-04-02T08:18:45Z</time>
      </trkpt>
      <trkpt lat="48.18782" lon="6.61864">
        <ele>533.67</ele>
        <time>2017-04-02T08:18:46Z</time>
      </trkpt>
      <trkpt lat="48.18781" lon="6.61863">
        <ele>533.19</ele>
        <time>2017-04-02T08:19:07Z</time>
      </trkpt>
      <trkpt lat="48.18781" lon="6.61863">
        <ele>533.19</ele>
        <time>2017-04-02T08:19:30Z</time>
      </trkpt>
      <trkpt lat="48.18781" lon="6.61863">
        <ele>533.67</ele>
        <time>2017-04-02T08:19:59Z</time>
      </trkpt>
      <trkpt lat="48.18781" lon="6.61864">
        <ele>533.67</ele>
        <time>2017-04-02T08:20:30Z</time>
      </trkpt>
      <trkpt lat="48.18791" lon="6.61866">
        <ele>534.15</ele>
        <time>2017-04-02T08:20:48Z</time>
      </trkpt>
      <trkpt lat="48.18788" lon="6.61864">
        <ele>533.67</ele>
        <time>2017-04-02T08:21:08Z</time>
      </trkpt>
      <trkpt lat="48.18788" lon="6.61865">
        <ele>534.15</ele>
        <time>2017-04-02T08:21:27Z</time>
      </trkpt>
      <trkpt lat="48.18789" lon="6.61867">
        <ele>534.15</ele>
        <time>2017-04-02T08:21:53Z</time>
      </trkpt>
      <trkpt lat="48.1879" lon="6.61866">
        <ele>534.15</ele>
        <time>2017-04-02T08:22:20Z</time>
      </trkpt>
      <trkpt lat="48.1879" lon="6.61864">
        <ele>534.15</ele>
        <time>2017-04-02T08:22:46Z</time>
      </trkpt>
      <trkpt lat="48.18789" lon="6.61863">
        <ele>534.63</ele>
        <time>2017-04-02T08:23:15Z</time>
      </trkpt>
      <trkpt lat="48.18789" lon="6.61862">
        <ele>534.63</ele>
        <time>2017-04-02T08:23:34Z</time>
      </trkpt>
      <trkpt lat="48.18789" lon="6.6186">
        <ele>534.63</ele>
        <time>2017-04-02T08:23:55Z</time>
      </trkpt>
      <trkpt lat="48.18789" lon="6.6186">
        <ele>534.63</ele>
        <time>2017-04-02T08:23:57Z</time>
      </trkpt>
      <trkpt lat="48.18786" lon="6.61871">
        <ele>534.63</ele>
        <time>2017-04-02T08:24:03Z</time>
      </trkpt>
      <trkpt lat="48.18788" lon="6.61875">
        <ele>534.63</ele>
        <time>2017-04-02T08:24:07Z</time>
      </trkpt>
      <trkpt lat="48.18788" lon="6.6188">
        <ele>534.15</ele>
        <time>2017-04-02T08:24:10Z</time>
      </trkpt>
      <trkpt lat="48.18791" lon="6.61883">
        <ele>534.63</ele>
        <time>2017-04-02T08:24:12Z</time>
      </trkpt>
      <trkpt lat="48.18788" lon="6.61905">
        <ele>534.15</ele>
        <time>2017-04-02T08:24:18Z</time>
      </trkpt>
      <trkpt lat="48.18788" lon="6.61914">
        <ele>535.11</ele>
        <time>2017-04-02T08:24:20Z</time>
      </trkpt>
      <trkpt lat="48.18785" lon="6.61929">
        <ele>535.11</ele>
        <time>2017-04-02T08:24:23Z</time>
      </trkpt>
      <trkpt lat="48.1878" lon="6.61945">
        <ele>535.11</ele>
        <time>2017-04-02T08:24:29Z</time>
      </trkpt>
      <trkpt lat="48.18777" lon="6.6198">
        <ele>535.59</ele>
        <time>2017-04-02T08:24:34Z</time>
      </trkpt>
      <trkpt lat="48.18775" lon="6.62031">
        <ele>537.51</ele>
        <time>2017-04-02T08:24:43Z</time>
      </trkpt>
      <trkpt lat="48.18778" lon="6.62044">
        <ele>538.48</ele>
        <time>2017-04-02T08:24:46Z</time>
      </trkpt>
      <trkpt lat="48.18793" lon="6.6207">
        <ele>538.96</ele>
        <time>2017-04-02T08:24:55Z</time>
      </trkpt>
      <trkpt lat="48.18803" lon="6.621">
        <ele>538.96</ele>
        <time>2017-04-02T08:25:02Z</time>
      </trkpt>
      <trkpt lat="48.1881" lon="6.62121">
        <ele>539.92</ele>
        <time>2017-04-02T08:25:08Z</time>
      </trkpt>
      <trkpt lat="48.18825" lon="6.6215">
        <ele>541.36</ele>
        <time>2017-04-02T08:25:18Z</time>
      </trkpt>
      <trkpt lat="48.18831" lon="6.62163">
        <ele>541.84</ele>
        <time>2017-04-02T08:25:21Z</time>
      </trkpt>
      <trkpt lat="48.18856" lon="6.62221">
        <ele>541.36</ele>
        <time>2017-04-02T08:25:34Z</time>
      </trkpt>
      <trkpt lat="48.18878" lon="6.6226">
        <ele>539.92</ele>
        <time>2017-04-02T08:25:43Z</time>
      </trkpt>
      <trkpt lat="48.18886" lon="6.62276">
        <ele>538.48</ele>
        <time>2017-04-02T08:25:47Z</time>
      </trkpt>
      <trkpt lat="48.18889" lon="6.6229">
        <ele>537.51</ele>
        <time>2017-04-02T08:25:49Z</time>
      </trkpt>
      <trkpt lat="48.18889" lon="6.62298">
        <ele>536.07</ele>
        <time>2017-04-02T08:25:50Z</time>
      </trkpt>
      <trkpt lat="48.18889" lon="6.62316">
        <ele>533.67</ele>
        <time>2017-04-02T08:25:52Z</time>
      </trkpt>
      <trkpt lat="48.18887" lon="6.62325">
        <ele>533.19</ele>
        <time>2017-04-02T08:25:53Z</time>
      </trkpt>
      <trkpt lat="48.18885" lon="6.62331">
        <ele>533.19</ele>
        <time>2017-04-02T08:25:54Z</time>
      </trkpt>
      <trkpt lat="48.18882" lon="6.62334">
        <ele>532.23</ele>
        <time>2017-04-02T08:25:55Z</time>
      </trkpt>
      <trkpt lat="48.18873" lon="6.62339">
        <ele>532.23</ele>
        <time>2017-04-02T08:25:57Z</time>
      </trkpt>
      <trkpt lat="48.1887" lon="6.62344">
        <ele>531.75</ele>
        <time>2017-04-02T08:25:58Z</time>
      </trkpt>
      <trkpt lat="48.18867" lon="6.62349">
        <ele>531.75</ele>
        <time>2017-04-02T08:25:59Z</time>
      </trkpt>
      <trkpt lat="48.18857" lon="6.62375">
        <ele>531.75</ele>
        <time>2017-04-02T08:26:03Z</time>
      </trkpt>
      <trkpt lat="48.18851" lon="6.62388">
        <ele>531.75</ele>
        <time>2017-04-02T08:26:05Z</time>
      </trkpt>
      <trkpt lat="48.18849" lon="6.62394">
        <ele>531.75</ele>
        <time>2017-04-02T08:26:06Z</time>
      </trkpt>
      <trkpt lat="48.18847" lon="6.62399">
        <ele>531.75</ele>
        <time>2017-04-02T08:26:07Z</time>
      </trkpt>
      <trkpt lat="48.18825" lon="6.62454">
        <ele>532.71</ele>
        <time>2017-04-02T08:26:17Z</time>
      </trkpt>
      <trkpt lat="48.18807" lon="6.62499">
        <ele>533.67</ele>
        <time>2017-04-02T08:26:28Z</time>
      </trkpt>
      <trkpt lat="48.188" lon="6.62517">
        <ele>534.63</ele>
        <time>2017-04-02T08:26:34Z</time>
      </trkpt>
      <trkpt lat="48.18795" lon="6.62535">
        <ele>535.59</ele>
        <time>2017-04-02T08:26:46Z</time>
      </trkpt>
      <trkpt lat="48.18793" lon="6.62545">
        <ele>536.07</ele>
        <time>2017-04-02T08:26:58Z</time>
      </trkpt>
      <trkpt lat="48.18787" lon="6.62545">
        <ele>536.55</ele>
        <time>2017-04-02T08:27:10Z</time>
      </trkpt>
      <trkpt lat="48.18783" lon="6.6254">
        <ele>535.59</ele>
        <time>2017-04-02T08:27:19Z</time>
      </trkpt>
      <trkpt lat="48.18778" lon="6.62534">
        <ele>536.07</ele>
        <time>2017-04-02T08:27:28Z</time>
      </trkpt>
      <trkpt lat="48.18782" lon="6.62546">
        <ele>536.55</ele>
        <time>2017-04-02T08:27:44Z</time>
      </trkpt>
      <trkpt lat="48.18782" lon="6.62546">
        <ele>536.07</ele>
        <time>2017-04-02T08:28:00Z</time>
      </trkpt>
      <trkpt lat="48.18783" lon="6.62548">
        <ele>536.07</ele>
        <time>2017-04-02T08:28:22Z</time>
      </trkpt>
      <trkpt lat="48.18782" lon="6.62551">
        <ele>536.55</ele>
        <time>2017-04-02T08:28:43Z</time>
      </trkpt>
      <trkpt lat="48.18783" lon="6.62552">
        <ele>536.07</ele>
        <time>2017-04-02T08:29:04Z</time>
      </trkpt>
      <trkpt lat="48.18783" lon="6.62551">
        <ele>536.07</ele>
        <time>2017-04-02T08:29:25Z</time>
      </trkpt>
      <trkpt lat="48.18783" lon="6.62549">
        <ele>536.07</ele>
        <time>2017-04-02T08:29:45Z</time>
      </trkpt>
      <trkpt lat="48.18783" lon="6.62552">
        <ele>536.07</ele>
        <time>2017-04-02T08:30:08Z</time>
      </trkpt>
      <trkpt lat="48.18783" lon="6.62549">
        <ele>536.07</ele>
        <time>2017-04-02T08:30:28Z</time>
      </trkpt>
      <trkpt lat="48.18783" lon="6.62549">
        <ele>536.55</ele>
        <time>2017-04-02T08:30:49Z</time>
      </trkpt>
      <trkpt lat="48.18781" lon="6.62548">
        <ele>537.03</ele>
        <time>2017-04-02T08:31:05Z</time>
      </trkpt>
      <trkpt lat="48.1878" lon="6.62548">
        <ele>536.55</ele>
        <time>2017-04-02T08:31:28Z</time>
      </trkpt>
      <trkpt lat="48.18781" lon="6.62549">
        <ele>536.55</ele>
        <time>2017-04-02T08:31:48Z</time>
      </trkpt>
      <trkpt lat="48.18782" lon="6.62548">
        <ele>536.55</ele>
        <time>2017-04-02T08:32:05Z</time>
      </trkpt>
      <trkpt lat="48.18782" lon="6.62547">
        <ele>537.51</ele>
        <time>2017-04-02T08:32:26Z</time>
      </trkpt>
      <trkpt lat="48.18781" lon="6.62548">
        <ele>537.03</ele>
        <time>2017-04-02T08:32:45Z</time>
      </trkpt>
      <trkpt lat="48.18778" lon="6.62558">
        <ele>537.03</ele>
        <time>2017-04-02T08:33:00Z</time>
      </trkpt>
      <trkpt lat="48.18776" lon="6.62549">
        <ele>536.55</ele>
        <time>2017-04-02T08:33:14Z</time>
      </trkpt>
      <trkpt lat="48.18777" lon="6.62541">
        <ele>537.03</ele>
        <time>2017-04-02T08:33:24Z</time>
      </trkpt>
      <trkpt lat="48.1878" lon="6.62539">
        <ele>536.55</ele>
        <time>2017-04-02T08:33:37Z</time>
      </trkpt>
      <trkpt lat="48.1878" lon="6.62543">
        <ele>537.51</ele>
        <time>2017-04-02T08:33:48Z</time>
      </trkpt>
      <trkpt lat="48.18785" lon="6.62546">
        <ele>536.55</ele>
        <time>2017-04-02T08:33:57Z</time>
      </trkpt>
      <trkpt lat="48.18795" lon="6.6255">
        <ele>537.51</ele>
        <time>2017-04-02T08:34:04Z</time>
      </trkpt>
      <trkpt lat="48.18802" lon="6.62554">
        <ele>537.03</ele>
        <time>2017-04-02T08:34:09Z</time>
      </trkpt>
      <trkpt lat="48.18815" lon="6.62558">
        <ele>537.03</ele>
        <time>2017-04-02T08:34:15Z</time>
      </trkpt>
      <trkpt lat="48.18825" lon="6.62566">
        <ele>536.55</ele>
        <time>2017-04-02T08:34:20Z</time>
      </trkpt>
      <trkpt lat="48.18847" lon="6.62589">
        <ele>537.03</ele>
        <time>2017-04-02T08:34:29Z</time>
      </trkpt>
      <trkpt lat="48.18855" lon="6.62595">
        <ele>536.55</ele>
        <time>2017-04-02T08:34:32Z</time>
      </trkpt>
      <trkpt lat="48.18867" lon="6.62594">
        <ele>536.07</ele>
        <time>2017-04-02T08:34:35Z</time>
      </trkpt>
      <trkpt lat="48.18872" lon="6.62591">
        <ele>535.59</ele>
        <time>2017-04-02T08:34:36Z</time>
      </trkpt>
      <trkpt lat="48.18876" lon="6.62585">
        <ele>535.11</ele>
        <time>2017-04-02T08:34:37Z</time>
      </trkpt>
      <trkpt lat="48.18879" lon="6.62576">
        <ele>535.11</ele>
        <time>2017-04-02T08:34:38Z</time>
      </trkpt>
      <trkpt lat="48.1888" lon="6.62567">
        <ele>534.63</ele>
        <time>2017-04-02T08:34:39Z</time>
      </trkpt>
      <trkpt lat="48.18881" lon="6.62558">
        <ele>535.11</ele>
        <time>2017-04-02T08:34:40Z</time>
      </trkpt>
      <trkpt lat="48.1888" lon="6.62548">
        <ele>534.63</ele>
        <time>2017-04-02T08:34:41Z</time>
      </trkpt>
      <trkpt lat="48.18879" lon="6.62538">
        <ele>534.63</ele>
        <time>2017-04-02T08:34:42Z</time>
      </trkpt>
      <trkpt lat="48.18879" lon="6.62528">
        <ele>533.67</ele>
        <time>2017-04-02T08:34:43Z</time>
      </trkpt>
      <trkpt lat="48.18877" lon="6.625">
        <ele>533.67</ele>
        <time>2017-04-02T08:34:46Z</time>
      </trkpt>
      <trkpt lat="48.18877" lon="6.62492">
        <ele>533.19</ele>
        <time>2017-04-02T08:34:47Z</time>
      </trkpt>
      <trkpt lat="48.18879" lon="6.62484">
        <ele>532.71</ele>
        <time>2017-04-02T08:34:48Z</time>
      </trkpt>
      <trkpt lat="48.18882" lon="6.62478">
        <ele>532.71</ele>
        <time>2017-04-02T08:34:49Z</time>
      </trkpt>
      <trkpt lat="48.18886" lon="6.62473">
        <ele>532.23</ele>
        <time>2017-04-02T08:34:50Z</time>
      </trkpt>
      <trkpt lat="48.18891" lon="6.62468">
        <ele>531.75</ele>
        <time>2017-04-02T08:34:51Z</time>
      </trkpt>
      <trkpt lat="48.18895" lon="6.62463">
        <ele>531.27</ele>
        <time>2017-04-02T08:34:52Z</time>
      </trkpt>
      <trkpt lat="48.18908" lon="6.62445">
        <ele>530.79</ele>
        <time>2017-04-02T08:34:55Z</time>
      </trkpt>
      <trkpt lat="48.18911" lon="6.62439">
        <ele>530.79</ele>
        <time>2017-04-02T08:34:56Z</time>
      </trkpt>
      <trkpt lat="48.18913" lon="6.62433">
        <ele>530.79</ele>
        <time>2017-04-02T08:34:57Z</time>
      </trkpt>
      <trkpt lat="48.18915" lon="6.62426">
        <ele>530.79</ele>
        <time>2017-04-02T08:34:58Z</time>
      </trkpt>
      <trkpt lat="48.18918" lon="6.62419">
        <ele>530.79</ele>
        <time>2017-04-02T08:34:59Z</time>
      </trkpt>
      <trkpt lat="48.18921" lon="6.62414">
        <ele>530.79</ele>
        <time>2017-04-02T08:35:00Z</time>
      </trkpt>
      <trkpt lat="48.18928" lon="6.62404">
        <ele>530.3</ele>
        <time>2017-04-02T08:35:02Z</time>
      </trkpt>
      <trkpt lat="48.18945" lon="6.62377">
        <ele>531.75</ele>
        <time>2017-04-02T08:35:09Z</time>
      </trkpt>
      <trkpt lat="48.18946" lon="6.62369">
        <ele>533.19</ele>
        <time>2017-04-02T08:35:11Z</time>
      </trkpt>
      <trkpt lat="48.18948" lon="6.62366">
        <ele>533.67</ele>
        <time>2017-04-02T08:35:12Z</time>
      </trkpt>
      <trkpt lat="48.18949" lon="6.62362">
        <ele>534.15</ele>
        <time>2017-04-02T08:35:13Z</time>
      </trkpt>
      <trkpt lat="48.1895" lon="6.62358">
        <ele>534.15</ele>
        <time>2017-04-02T08:35:14Z</time>
      </trkpt>
      <trkpt lat="48.18951" lon="6.62355">
        <ele>535.11</ele>
        <time>2017-04-02T08:35:15Z</time>
      </trkpt>
      <trkpt lat="48.18952" lon="6.62351">
        <ele>534.63</ele>
        <time>2017-04-02T08:35:16Z</time>
      </trkpt>
      <trkpt lat="48.18954" lon="6.62348">
        <ele>535.59</ele>
        <time>2017-04-02T08:35:17Z</time>
      </trkpt>
      <trkpt lat="48.18956" lon="6.62342">
        <ele>535.59</ele>
        <time>2017-04-02T08:35:19Z</time>
      </trkpt>
      <trkpt lat="48.1896" lon="6.62319">
        <ele>535.11</ele>
        <time>2017-04-02T08:35:24Z</time>
      </trkpt>
      <trkpt lat="48.18961" lon="6.62316">
        <ele>535.11</ele>
        <time>2017-04-02T08:35:25Z</time>
      </trkpt>
      <trkpt lat="48.18963" lon="6.62311">
        <ele>535.11</ele>
        <time>2017-04-02T08:35:26Z</time>
      </trkpt>
      <trkpt lat="48.18965" lon="6.62306">
        <ele>535.11</ele>
        <time>2017-04-02T08:35:27Z</time>
      </trkpt>
      <trkpt lat="48.18968" lon="6.62301">
        <ele>534.63</ele>
        <time>2017-04-02T08:35:28Z</time>
      </trkpt>
      <trkpt lat="48.1897" lon="6.62296">
        <ele>534.63</ele>
        <time>2017-04-02T08:35:29Z</time>
      </trkpt>
      <trkpt lat="48.18973" lon="6.62292">
        <ele>534.63</ele>
        <time>2017-04-02T08:35:30Z</time>
      </trkpt>
      <trkpt lat="48.18975" lon="6.62287">
        <ele>534.15</ele>
        <time>2017-04-02T08:35:31Z</time>
      </trkpt>
      <trkpt lat="48.18978" lon="6.62283">
        <ele>534.15</ele>
        <time>2017-04-02T08:35:32Z</time>
      </trkpt>
      <trkpt lat="48.1898" lon="6.62279">
        <ele>534.15</ele>
        <time>2017-04-02T08:35:33Z</time>
      </trkpt>
      <trkpt lat="48.18981" lon="6.62274">
        <ele>533.67</ele>
        <time>2017-04-02T08:35:34Z</time>
      </trkpt>
      <trkpt lat="48.18982" lon="6.62269">
        <ele>533.19</ele>
        <time>2017-04-02T08:35:35Z</time>
      </trkpt>
      <trkpt lat="48.18985" lon="6.62264">
        <ele>533.19</ele>
        <time>2017-04-02T08:35:36Z</time>
      </trkpt>
      <trkpt lat="48.18989" lon="6.6226">
        <ele>532.71</ele>
        <time>2017-04-02T08:35:37Z</time>
      </trkpt>
      <trkpt lat="48.18993" lon="6.62254">
        <ele>532.71</ele>
        <time>2017-04-02T08:35:38Z</time>
      </trkpt>
      <trkpt lat="48.18998" lon="6.62248">
        <ele>531.75</ele>
        <time>2017-04-02T08:35:39Z</time>
      </trkpt>
      <trkpt lat="48.19012" lon="6.62232">
        <ele>531.27</ele>
        <time>2017-04-02T08:35:42Z</time>
      </trkpt>
      <trkpt lat="48.19017" lon="6.62228">
        <ele>531.75</ele>
        <time>2017-04-02T08:35:43Z</time>
      </trkpt>
      <trkpt lat="48.19021" lon="6.62224">
        <ele>531.27</ele>
        <time>2017-04-02T08:35:44Z</time>
      </trkpt>
      <trkpt lat="48.19034" lon="6.62214">
        <ele>531.75</ele>
        <time>2017-04-02T08:35:47Z</time>
      </trkpt>
      <trkpt lat="48.19036" lon="6.6221">
        <ele>531.75</ele>
        <time>2017-04-02T08:35:48Z</time>
      </trkpt>
      <trkpt lat="48.19038" lon="6.62206">
        <ele>531.27</ele>
        <time>2017-04-02T08:35:49Z</time>
      </trkpt>
      <trkpt lat="48.19041" lon="6.62202">
        <ele>531.27</ele>
        <time>2017-04-02T08:35:50Z</time>
      </trkpt>
      <trkpt lat="48.19044" lon="6.62198">
        <ele>531.27</ele>
        <time>2017-04-02T08:35:51Z</time>
      </trkpt>
      <trkpt lat="48.19048" lon="6.62194">
        <ele>531.27</ele>
        <time>2017-04-02T08:35:52Z</time>
      </trkpt>
      <trkpt lat="48.19052" lon="6.6219">
        <ele>531.27</ele>
        <time>2017-04-02T08:35:53Z</time>
      </trkpt>
      <trkpt lat="48.19055" lon="6.62186">
        <ele>531.27</ele>
        <time>2017-04-02T08:35:54Z</time>
      </trkpt>
      <trkpt lat="48.19057" lon="6.62181">
        <ele>530.79</ele>
        <time>2017-04-02T08:35:55Z</time>
      </trkpt>
      <trkpt lat="48.1906" lon="6.62176">
        <ele>530.3</ele>
        <time>2017-04-02T08:35:56Z</time>
      </trkpt>
      <trkpt lat="48.19068" lon="6.62159">
        <ele>528.86</ele>
        <time>2017-04-02T08:35:59Z</time>
      </trkpt>
      <trkpt lat="48.19071" lon="6.62153">
        <ele>527.9</ele>
        <time>2017-04-02T08:36:00Z</time>
      </trkpt>
      <trkpt lat="48.19075" lon="6.62148">
        <ele>527.42</ele>
        <time>2017-04-02T08:36:01Z</time>
      </trkpt>
      <trkpt lat="48.19079" lon="6.62144">
        <ele>527.42</ele>
        <time>2017-04-02T08:36:02Z</time>
      </trkpt>
      <trkpt lat="48.19081" lon="6.62138">
        <ele>526.94</ele>
        <time>2017-04-02T08:36:03Z</time>
      </trkpt>
      <trkpt lat="48.19084" lon="6.62133">
        <ele>526.46</ele>
        <time>2017-04-02T08:36:04Z</time>
      </trkpt>
      <trkpt lat="48.19087" lon="6.62128">
        <ele>525.98</ele>
        <time>2017-04-02T08:36:05Z</time>
      </trkpt>
      <trkpt lat="48.19094" lon="6.62117">
        <ele>524.54</ele>
        <time>2017-04-02T08:36:07Z</time>
      </trkpt>
      <trkpt lat="48.19097" lon="6.6211">
        <ele>524.06</ele>
        <time>2017-04-02T08:36:08Z</time>
      </trkpt>
      <trkpt lat="48.191" lon="6.62102">
        <ele>523.58</ele>
        <time>2017-04-02T08:36:09Z</time>
      </trkpt>
      <trkpt lat="48.19108" lon="6.6208">
        <ele>521.65</ele>
        <time>2017-04-02T08:36:12Z</time>
      </trkpt>
      <trkpt lat="48.1911" lon="6.62071">
        <ele>521.17</ele>
        <time>2017-04-02T08:36:13Z</time>
      </trkpt>
      <trkpt lat="48.19111" lon="6.62064">
        <ele>521.17</ele>
        <time>2017-04-02T08:36:14Z</time>
      </trkpt>
      <trkpt lat="48.19125" lon="6.62022">
        <ele>520.69</ele>
        <time>2017-04-02T08:36:23Z</time>
      </trkpt>
      <trkpt lat="48.19142" lon="6.61993">
        <ele>519.73</ele>
        <time>2017-04-02T08:36:29Z</time>
      </trkpt>
      <trkpt lat="48.19145" lon="6.61987">
        <ele>519.73</ele>
        <time>2017-04-02T08:36:30Z</time>
      </trkpt>
      <trkpt lat="48.19148" lon="6.61982">
        <ele>519.73</ele>
        <time>2017-04-02T08:36:31Z</time>
      </trkpt>
      <trkpt lat="48.19151" lon="6.61977">
        <ele>519.25</ele>
        <time>2017-04-02T08:36:32Z</time>
      </trkpt>
      <trkpt lat="48.19154" lon="6.61971">
        <ele>519.73</ele>
        <time>2017-04-02T08:36:33Z</time>
      </trkpt>
      <trkpt lat="48.19156" lon="6.61965">
        <ele>519.25</ele>
        <time>2017-04-02T08:36:34Z</time>
      </trkpt>
      <trkpt lat="48.19157" lon="6.61958">
        <ele>519.25</ele>
        <time>2017-04-02T08:36:35Z</time>
      </trkpt>
      <trkpt lat="48.19158" lon="6.61952">
        <ele>519.25</ele>
        <time>2017-04-02T08:36:36Z</time>
      </trkpt>
      <trkpt lat="48.19158" lon="6.61947">
        <ele>519.25</ele>
        <time>2017-04-02T08:36:37Z</time>
      </trkpt>
      <trkpt lat="48.19158" lon="6.61941">
        <ele>519.25</ele>
        <time>2017-04-02T08:36:38Z</time>
      </trkpt>
      <trkpt lat="48.19158" lon="6.61934">
        <ele>519.25</ele>
        <time>2017-04-02T08:36:39Z</time>
      </trkpt>
      <trkpt lat="48.19158" lon="6.61918">
        <ele>518.77</ele>
        <time>2017-04-02T08:36:41Z</time>
      </trkpt>
      <trkpt lat="48.1915" lon="6.61885">
        <ele>518.77</ele>
        <time>2017-04-02T08:36:47Z</time>
      </trkpt>
      <trkpt lat="48.19133" lon="6.6185">
        <ele>518.77</ele>
        <time>2017-04-02T08:36:53Z</time>
      </trkpt>
      <trkpt lat="48.19128" lon="6.61839">
        <ele>519.25</ele>
        <time>2017-04-02T08:36:55Z</time>
      </trkpt>
      <trkpt lat="48.1912" lon="6.61821">
        <ele>520.69</ele>
        <time>2017-04-02T08:36:58Z</time>
      </trkpt>
      <trkpt lat="48.19091" lon="6.61769">
        <ele>523.58</ele>
        <time>2017-04-02T08:37:09Z</time>
      </trkpt>
      <trkpt lat="48.19073" lon="6.61749">
        <ele>523.58</ele>
        <time>2017-04-02T08:37:15Z</time>
      </trkpt>
      <trkpt lat="48.19053" lon="6.61725">
        <ele>525.02</ele>
        <time>2017-04-02T08:37:22Z</time>
      </trkpt>
      <trkpt lat="48.19033" lon="6.6171">
        <ele>525.98</ele>
        <time>2017-04-02T08:37:30Z</time>
      </trkpt>
      <trkpt lat="48.19013" lon="6.61701">
        <ele>526.46</ele>
        <time>2017-04-02T08:37:37Z</time>
      </trkpt>
      <trkpt lat="48.18992" lon="6.61689">
        <ele>526.94</ele>
        <time>2017-04-02T08:37:44Z</time>
      </trkpt>
      <trkpt lat="48.18962" lon="6.61665">
        <ele>526.94</ele>
        <time>2017-04-02T08:37:54Z</time>
      </trkpt>
      <trkpt lat="48.18937" lon="6.61637">
        <ele>527.42</ele>
        <time>2017-04-02T08:38:04Z</time>
      </trkpt>
      <trkpt lat="48.18929" lon="6.61631">
        <ele>527.42</ele>
        <time>2017-04-02T08:38:07Z</time>
      </trkpt>
      <trkpt lat="48.18924" lon="6.61601">
        <ele>526.94</ele>
        <time>2017-04-02T08:38:15Z</time>
      </trkpt>
      <trkpt lat="48.18924" lon="6.61594">
        <ele>525.5</ele>
        <time>2017-04-02T08:38:16Z</time>
      </trkpt>
      <trkpt lat="48.18927" lon="6.6156">
        <ele>523.58</ele>
        <time>2017-04-02T08:38:21Z</time>
      </trkpt>
      <trkpt lat="48.18928" lon="6.61547">
        <ele>522.13</ele>
        <time>2017-04-02T08:38:23Z</time>
      </trkpt>
      <trkpt lat="48.18942" lon="6.61517">
        <ele>519.73</ele>
        <time>2017-04-02T08:38:29Z</time>
      </trkpt>
      <trkpt lat="48.18956" lon="6.61494">
        <ele>516.85</ele>
        <time>2017-04-02T08:38:32Z</time>
      </trkpt>
      <trkpt lat="48.18966" lon="6.61473">
        <ele>514.92</ele>
        <time>2017-04-02T08:38:35Z</time>
      </trkpt>
      <trkpt lat="48.1897" lon="6.61466">
        <ele>514.44</ele>
        <time>2017-04-02T08:38:36Z</time>
      </trkpt>
      <trkpt lat="48.18972" lon="6.61459">
        <ele>513.48</ele>
        <time>2017-04-02T08:38:37Z</time>
      </trkpt>
      <trkpt lat="48.18976" lon="6.61453">
        <ele>512.52</ele>
        <time>2017-04-02T08:38:38Z</time>
      </trkpt>
      <trkpt lat="48.18979" lon="6.61448">
        <ele>511.56</ele>
        <time>2017-04-02T08:38:39Z</time>
      </trkpt>
      <trkpt lat="48.18981" lon="6.61437">
        <ele>510.6</ele>
        <time>2017-04-02T08:38:41Z</time>
      </trkpt>
      <trkpt lat="48.1898" lon="6.61432">
        <ele>510.12</ele>
        <time>2017-04-02T08:38:42Z</time>
      </trkpt>
      <trkpt lat="48.18979" lon="6.61428">
        <ele>510.6</ele>
        <time>2017-04-02T08:38:43Z</time>
      </trkpt>
      <trkpt lat="48.18977" lon="6.61424">
        <ele>510.6</ele>
        <time>2017-04-02T08:38:44Z</time>
      </trkpt>
      <trkpt lat="48.18975" lon="6.61422">
        <ele>511.08</ele>
        <time>2017-04-02T08:38:45Z</time>
      </trkpt>
      <trkpt lat="48.18961" lon="6.61402">
        <ele>514.44</ele>
        <time>2017-04-02T08:38:54Z</time>
      </trkpt>
      <trkpt lat="48.18944" lon="6.61381">
        <ele>516.85</ele>
        <time>2017-04-02T08:39:04Z</time>
      </trkpt>
      <trkpt lat="48.18937" lon="6.61371">
        <ele>517.33</ele>
        <time>2017-04-02T08:39:08Z</time>
      </trkpt>
      <trkpt lat="48.18935" lon="6.61368">
        <ele>517.33</ele>
        <time>2017-04-02T08:39:09Z</time>
      </trkpt>
      <trkpt lat="48.18933" lon="6.61366">
        <ele>517.33</ele>
        <time>2017-04-02T08:39:10Z</time>
      </trkpt>
      <trkpt lat="48.1892" lon="6.61348">
        <ele>517.33</ele>
        <time>2017-04-02T08:39:16Z</time>
      </trkpt>
      <trkpt lat="48.1892" lon="6.61346">
        <ele>517.33</ele>
        <time>2017-04-02T08:39:17Z</time>
      </trkpt>
      <trkpt lat="48.1892" lon="6.61344">
        <ele>516.85</ele>
        <time>2017-04-02T08:39:18Z</time>
      </trkpt>
      <trkpt lat="48.18921" lon="6.61341">
        <ele>516.85</ele>
        <time>2017-04-02T08:39:20Z</time>
      </trkpt>
      <trkpt lat="48.18924" lon="6.61337">
        <ele>516.37</ele>
        <time>2017-04-02T08:39:25Z</time>
      </trkpt>
      <trkpt lat="48.18925" lon="6.61337">
        <ele>516.37</ele>
        <time>2017-04-02T08:39:26Z</time>
      </trkpt>
      <trkpt lat="48.18927" lon="6.61335">
        <ele>516.37</ele>
        <time>2017-04-02T08:39:27Z</time>
      </trkpt>
      <trkpt lat="48.18929" lon="6.61333">
        <ele>516.85</ele>
        <time>2017-04-02T08:39:28Z</time>
      </trkpt>
      <trkpt lat="48.1893" lon="6.61331">
        <ele>516.85</ele>
        <time>2017-04-02T08:39:29Z</time>
      </trkpt>
      <trkpt lat="48.18932" lon="6.61329">
        <ele>516.85</ele>
        <time>2017-04-02T08:39:30Z</time>
      </trkpt>
      <trkpt lat="48.18933" lon="6.61328">
        <ele>516.37</ele>
        <time>2017-04-02T08:39:31Z</time>
      </trkpt>
      <trkpt lat="48.18935" lon="6.61327">
        <ele>516.37</ele>
        <time>2017-04-02T08:39:32Z</time>
      </trkpt>
      <trkpt lat="48.18937" lon="6.61326">
        <ele>515.88</ele>
        <time>2017-04-02T08:39:33Z</time>
      </trkpt>
      <trkpt lat="48.18938" lon="6.61324">
        <ele>516.37</ele>
        <time>2017-04-02T08:39:34Z</time>
      </trkpt>
      <trkpt lat="48.18939" lon="6.61323">
        <ele>516.37</ele>
        <time>2017-04-02T08:39:35Z</time>
      </trkpt>
      <trkpt lat="48.1894" lon="6.61321">
        <ele>515.88</ele>
        <time>2017-04-02T08:39:36Z</time>
      </trkpt>
      <trkpt lat="48.18941" lon="6.61321">
        <ele>515.88</ele>
        <time>2017-04-02T08:39:37Z</time>
      </trkpt>
      <trkpt lat="48.18942" lon="6.61321">
        <ele>515.88</ele>
        <time>2017-04-02T08:39:40Z</time>
      </trkpt>
      <trkpt lat="48.18962" lon="6.61304">
        <ele>513.96</ele>
        <time>2017-04-02T08:39:49Z</time>
      </trkpt>
      <trkpt lat="48.18982" lon="6.61283">
        <ele>513</ele>
        <time>2017-04-02T08:39:54Z</time>
      </trkpt>
      <trkpt lat="48.19012" lon="6.61257">
        <ele>511.56</ele>
        <time>2017-04-02T08:40:01Z</time>
      </trkpt>
      <trkpt lat="48.19017" lon="6.61254">
        <ele>511.08</ele>
        <time>2017-04-02T08:40:02Z</time>
      </trkpt>
      <trkpt lat="48.19022" lon="6.6125">
        <ele>510.6</ele>
        <time>2017-04-02T08:40:03Z</time>
      </trkpt>
      <trkpt lat="48.19028" lon="6.61246">
        <ele>510.6</ele>
        <time>2017-04-02T08:40:04Z</time>
      </trkpt>
      <trkpt lat="48.19034" lon="6.61242">
        <ele>510.12</ele>
        <time>2017-04-02T08:40:05Z</time>
      </trkpt>
      <trkpt lat="48.1904" lon="6.61239">
        <ele>510.12</ele>
        <time>2017-04-02T08:40:06Z</time>
      </trkpt>
      <trkpt lat="48.19045" lon="6.61235">
        <ele>509.64</ele>
        <time>2017-04-02T08:40:07Z</time>
      </trkpt>
      <trkpt lat="48.1905" lon="6.61232">
        <ele>509.16</ele>
        <time>2017-04-02T08:40:08Z</time>
      </trkpt>
      <trkpt lat="48.19056" lon="6.61229">
        <ele>508.67</ele>
        <time>2017-04-02T08:40:09Z</time>
      </trkpt>
      <trkpt lat="48.19061" lon="6.61227">
        <ele>508.19</ele>
        <time>2017-04-02T08:40:10Z</time>
      </trkpt>
      <trkpt lat="48.19067" lon="6.61226">
        <ele>507.71</ele>
        <time>2017-04-02T08:40:11Z</time>
      </trkpt>
      <trkpt lat="48.19073" lon="6.61224">
        <ele>507.71</ele>
        <time>2017-04-02T08:40:12Z</time>
      </trkpt>
      <trkpt lat="48.19079" lon="6.61223">
        <ele>507.23</ele>
        <time>2017-04-02T08:40:13Z</time>
      </trkpt>
      <trkpt lat="48.19093" lon="6.61219">
        <ele>506.27</ele>
        <time>2017-04-02T08:40:15Z</time>
      </trkpt>
      <trkpt lat="48.19111" lon="6.61213">
        <ele>505.31</ele>
        <time>2017-04-02T08:40:18Z</time>
      </trkpt>
      <trkpt lat="48.19117" lon="6.61212">
        <ele>504.83</ele>
        <time>2017-04-02T08:40:19Z</time>
      </trkpt>
      <trkpt lat="48.19128" lon="6.61209">
        <ele>504.35</ele>
        <time>2017-04-02T08:40:21Z</time>
      </trkpt>
      <trkpt lat="48.19139" lon="6.61205">
        <ele>503.87</ele>
        <time>2017-04-02T08:40:23Z</time>
      </trkpt>
      <trkpt lat="48.19144" lon="6.61203">
        <ele>503.87</ele>
        <time>2017-04-02T08:40:24Z</time>
      </trkpt>
      <trkpt lat="48.19169" lon="6.61195">
        <ele>502.43</ele>
        <time>2017-04-02T08:40:28Z</time>
      </trkpt>
      <trkpt lat="48.19176" lon="6.61192">
        <ele>501.46</ele>
        <time>2017-04-02T08:40:29Z</time>
      </trkpt>
      <trkpt lat="48.19181" lon="6.61188">
        <ele>501.46</ele>
        <time>2017-04-02T08:40:30Z</time>
      </trkpt>
      <trkpt lat="48.19193" lon="6.61179">
        <ele>500.02</ele>
        <time>2017-04-02T08:40:32Z</time>
      </trkpt>
      <trkpt lat="48.19217" lon="6.61167">
        <ele>496.66</ele>
        <time>2017-04-02T08:40:36Z</time>
      </trkpt>
      <trkpt lat="48.19223" lon="6.61165">
        <ele>496.66</ele>
        <time>2017-04-02T08:40:37Z</time>
      </trkpt>
      <trkpt lat="48.19241" lon="6.61158">
        <ele>495.22</ele>
        <time>2017-04-02T08:40:41Z</time>
      </trkpt>
      <trkpt lat="48.19245" lon="6.61154">
        <ele>494.74</ele>
        <time>2017-04-02T08:40:42Z</time>
      </trkpt>
      <trkpt lat="48.1925" lon="6.61149">
        <ele>494.26</ele>
        <time>2017-04-02T08:40:43Z</time>
      </trkpt>
      <trkpt lat="48.19255" lon="6.61145">
        <ele>493.77</ele>
        <time>2017-04-02T08:40:44Z</time>
      </trkpt>
      <trkpt lat="48.1926" lon="6.6114">
        <ele>493.29</ele>
        <time>2017-04-02T08:40:45Z</time>
      </trkpt>
      <trkpt lat="48.19278" lon="6.61122">
        <ele>491.85</ele>
        <time>2017-04-02T08:40:48Z</time>
      </trkpt>
      <trkpt lat="48.19284" lon="6.61114">
        <ele>491.37</ele>
        <time>2017-04-02T08:40:49Z</time>
      </trkpt>
      <trkpt lat="48.19288" lon="6.61106">
        <ele>490.41</ele>
        <time>2017-04-02T08:40:50Z</time>
      </trkpt>
      <trkpt lat="48.1929" lon="6.61096">
        <ele>489.93</ele>
        <time>2017-04-02T08:40:51Z</time>
      </trkpt>
      <trkpt lat="48.19293" lon="6.61078">
        <ele>488.97</ele>
        <time>2017-04-02T08:40:53Z</time>
      </trkpt>
      <trkpt lat="48.19294" lon="6.61069">
        <ele>488.97</ele>
        <time>2017-04-02T08:40:54Z</time>
      </trkpt>
      <trkpt lat="48.19302" lon="6.61034">
        <ele>485.12</ele>
        <time>2017-04-02T08:40:58Z</time>
      </trkpt>
      <trkpt lat="48.19306" lon="6.61017">
        <ele>483.2</ele>
        <time>2017-04-02T08:41:00Z</time>
      </trkpt>
      <trkpt lat="48.19311" lon="6.61003">
        <ele>482.72</ele>
        <time>2017-04-02T08:41:02Z</time>
      </trkpt>
      <trkpt lat="48.19315" lon="6.60998">
        <ele>481.76</ele>
        <time>2017-04-02T08:41:03Z</time>
      </trkpt>
      <trkpt lat="48.19317" lon="6.60994">
        <ele>481.76</ele>
        <time>2017-04-02T08:41:04Z</time>
      </trkpt>
      <trkpt lat="48.1932" lon="6.60991">
        <ele>481.28</ele>
        <time>2017-04-02T08:41:05Z</time>
      </trkpt>
      <trkpt lat="48.19323" lon="6.60989">
        <ele>481.28</ele>
        <time>2017-04-02T08:41:06Z</time>
      </trkpt>
      <trkpt lat="48.19326" lon="6.60986">
        <ele>480.8</ele>
        <time>2017-04-02T08:41:07Z</time>
      </trkpt>
      <trkpt lat="48.19339" lon="6.60972">
        <ele>478.87</ele>
        <time>2017-04-02T08:41:11Z</time>
      </trkpt>
      <trkpt lat="48.19343" lon="6.60967">
        <ele>478.87</ele>
        <time>2017-04-02T08:41:12Z</time>
      </trkpt>
      <trkpt lat="48.19353" lon="6.60956">
        <ele>477.91</ele>
        <time>2017-04-02T08:41:14Z</time>
      </trkpt>
      <trkpt lat="48.19359" lon="6.6095">
        <ele>476.95</ele>
        <time>2017-04-02T08:41:15Z</time>
      </trkpt>
      <trkpt lat="48.19363" lon="6.60945">
        <ele>476.95</ele>
        <time>2017-04-02T08:41:16Z</time>
      </trkpt>
      <trkpt lat="48.19367" lon="6.60939">
        <ele>476.47</ele>
        <time>2017-04-02T08:41:17Z</time>
      </trkpt>
      <trkpt lat="48.19372" lon="6.60932">
        <ele>475.99</ele>
        <time>2017-04-02T08:41:18Z</time>
      </trkpt>
      <trkpt lat="48.19377" lon="6.60927">
        <ele>475.51</ele>
        <time>2017-04-02T08:41:19Z</time>
      </trkpt>
      <trkpt lat="48.19381" lon="6.60921">
        <ele>474.55</ele>
        <time>2017-04-02T08:41:20Z</time>
      </trkpt>
      <trkpt lat="48.19389" lon="6.6091">
        <ele>474.07</ele>
        <time>2017-04-02T08:41:22Z</time>
      </trkpt>
      <trkpt lat="48.19398" lon="6.60902">
        <ele>473.11</ele>
        <time>2017-04-02T08:41:24Z</time>
      </trkpt>
      <trkpt lat="48.19403" lon="6.60899">
        <ele>473.11</ele>
        <time>2017-04-02T08:41:25Z</time>
      </trkpt>
      <trkpt lat="48.19409" lon="6.60897">
        <ele>473.11</ele>
        <time>2017-04-02T08:41:26Z</time>
      </trkpt>
      <trkpt lat="48.19414" lon="6.60895">
        <ele>472.14</ele>
        <time>2017-04-02T08:41:27Z</time>
      </trkpt>
      <trkpt lat="48.1942" lon="6.60893">
        <ele>471.66</ele>
        <time>2017-04-02T08:41:28Z</time>
      </trkpt>
      <trkpt lat="48.19425" lon="6.60891">
        <ele>470.22</ele>
        <time>2017-04-02T08:41:29Z</time>
      </trkpt>
      <trkpt lat="48.1943" lon="6.60886">
        <ele>470.22</ele>
        <time>2017-04-02T08:41:30Z</time>
      </trkpt>
      <trkpt lat="48.19434" lon="6.60882">
        <ele>469.74</ele>
        <time>2017-04-02T08:41:31Z</time>
      </trkpt>
      <trkpt lat="48.19439" lon="6.60878">
        <ele>468.78</ele>
        <time>2017-04-02T08:41:32Z</time>
      </trkpt>
      <trkpt lat="48.19445" lon="6.60877">
        <ele>467.82</ele>
        <time>2017-04-02T08:41:33Z</time>
      </trkpt>
      <trkpt lat="48.1945" lon="6.60876">
        <ele>467.82</ele>
        <time>2017-04-02T08:41:34Z</time>
      </trkpt>
      <trkpt lat="48.1947" lon="6.60873">
        <ele>465.42</ele>
        <time>2017-04-02T08:41:37Z</time>
      </trkpt>
      <trkpt lat="48.19477" lon="6.60872">
        <ele>464.93</ele>
        <time>2017-04-02T08:41:38Z</time>
      </trkpt>
      <trkpt lat="48.19488" lon="6.6087">
        <ele>463.01</ele>
        <time>2017-04-02T08:41:40Z</time>
      </trkpt>
      <trkpt lat="48.19517" lon="6.60862">
        <ele>459.65</ele>
        <time>2017-04-02T08:41:44Z</time>
      </trkpt>
      <trkpt lat="48.19524" lon="6.60859">
        <ele>459.65</ele>
        <time>2017-04-02T08:41:45Z</time>
      </trkpt>
      <trkpt lat="48.19544" lon="6.60845">
        <ele>458.21</ele>
        <time>2017-04-02T08:41:48Z</time>
      </trkpt>
      <trkpt lat="48.1956" lon="6.60829">
        <ele>456.76</ele>
        <time>2017-04-02T08:41:52Z</time>
      </trkpt>
      <trkpt lat="48.19564" lon="6.60823">
        <ele>456.28</ele>
        <time>2017-04-02T08:41:53Z</time>
      </trkpt>
      <trkpt lat="48.19569" lon="6.60816">
        <ele>456.28</ele>
        <time>2017-04-02T08:41:54Z</time>
      </trkpt>
      <trkpt lat="48.19583" lon="6.60798">
        <ele>454.84</ele>
        <time>2017-04-02T08:41:57Z</time>
      </trkpt>
      <trkpt lat="48.19588" lon="6.60794">
        <ele>454.36</ele>
        <time>2017-04-02T08:41:58Z</time>
      </trkpt>
      <trkpt lat="48.19593" lon="6.60791">
        <ele>453.4</ele>
        <time>2017-04-02T08:41:59Z</time>
      </trkpt>
      <trkpt lat="48.19598" lon="6.6079">
        <ele>453.4</ele>
        <time>2017-04-02T08:42:00Z</time>
      </trkpt>
      <trkpt lat="48.19603" lon="6.6079">
        <ele>452.92</ele>
        <time>2017-04-02T08:42:01Z</time>
      </trkpt>
      <trkpt lat="48.19613" lon="6.60797">
        <ele>452.44</ele>
        <time>2017-04-02T08:42:03Z</time>
      </trkpt>
      <trkpt lat="48.1962" lon="6.60803">
        <ele>451</ele>
        <time>2017-04-02T08:42:05Z</time>
      </trkpt>
      <trkpt lat="48.19632" lon="6.60792">
        <ele>450.03</ele>
        <time>2017-04-02T08:42:09Z</time>
      </trkpt>
      <trkpt lat="48.19634" lon="6.60786">
        <ele>450.03</ele>
        <time>2017-04-02T08:42:10Z</time>
      </trkpt>
      <trkpt lat="48.19636" lon="6.6078">
        <ele>450.03</ele>
        <time>2017-04-02T08:42:11Z</time>
      </trkpt>
      <trkpt lat="48.19639" lon="6.60774">
        <ele>450.52</ele>
        <time>2017-04-02T08:42:12Z</time>
      </trkpt>
      <trkpt lat="48.1964" lon="6.60768">
        <ele>450.03</ele>
        <time>2017-04-02T08:42:13Z</time>
      </trkpt>
      <trkpt lat="48.19642" lon="6.60761">
        <ele>450.03</ele>
        <time>2017-04-02T08:42:14Z</time>
      </trkpt>
      <trkpt lat="48.19643" lon="6.60752">
        <ele>450.03</ele>
        <time>2017-04-02T08:42:15Z</time>
      </trkpt>
      <trkpt lat="48.19646" lon="6.60731">
        <ele>448.11</ele>
        <time>2017-04-02T08:42:17Z</time>
      </trkpt>
      <trkpt lat="48.19647" lon="6.60722">
        <ele>447.15</ele>
        <time>2017-04-02T08:42:18Z</time>
      </trkpt>
      <trkpt lat="48.19648" lon="6.60709">
        <ele>446.67</ele>
        <time>2017-04-02T08:42:19Z</time>
      </trkpt>
      <trkpt lat="48.19645" lon="6.60686">
        <ele>444.75</ele>
        <time>2017-04-02T08:42:21Z</time>
      </trkpt>
      <trkpt lat="48.19631" lon="6.60641">
        <ele>442.82</ele>
        <time>2017-04-02T08:42:25Z</time>
      </trkpt>
      <trkpt lat="48.19627" lon="6.60632">
        <ele>442.34</ele>
        <time>2017-04-02T08:42:26Z</time>
      </trkpt>
      <trkpt lat="48.19589" lon="6.60581">
        <ele>444.27</ele>
        <time>2017-04-02T08:42:32Z</time>
      </trkpt>
      <trkpt lat="48.19584" lon="6.60576">
        <ele>444.27</ele>
        <time>2017-04-02T08:42:33Z</time>
      </trkpt>
      <trkpt lat="48.19578" lon="6.60572">
        <ele>444.75</ele>
        <time>2017-04-02T08:42:34Z</time>
      </trkpt>
      <trkpt lat="48.19563" lon="6.60564">
        <ele>447.15</ele>
        <time>2017-04-02T08:42:37Z</time>
      </trkpt>
      <trkpt lat="48.19559" lon="6.60563">
        <ele>447.15</ele>
        <time>2017-04-02T08:42:38Z</time>
      </trkpt>
      <trkpt lat="48.19539" lon="6.60554">
        <ele>448.11</ele>
        <time>2017-04-02T08:42:43Z</time>
      </trkpt>
      <trkpt lat="48.19537" lon="6.6055">
        <ele>448.11</ele>
        <time>2017-04-02T08:42:44Z</time>
      </trkpt>
      <trkpt lat="48.19534" lon="6.60546">
        <ele>448.11</ele>
        <time>2017-04-02T08:42:45Z</time>
      </trkpt>
      <trkpt lat="48.19532" lon="6.60541">
        <ele>448.11</ele>
        <time>2017-04-02T08:42:46Z</time>
      </trkpt>
      <trkpt lat="48.1953" lon="6.60536">
        <ele>447.63</ele>
        <time>2017-04-02T08:42:47Z</time>
      </trkpt>
      <trkpt lat="48.19527" lon="6.60531">
        <ele>447.63</ele>
        <time>2017-04-02T08:42:48Z</time>
      </trkpt>
      <trkpt lat="48.19524" lon="6.60524">
        <ele>447.15</ele>
        <time>2017-04-02T08:42:49Z</time>
      </trkpt>
      <trkpt lat="48.19519" lon="6.60518">
        <ele>446.67</ele>
        <time>2017-04-02T08:42:50Z</time>
      </trkpt>
      <trkpt lat="48.19515" lon="6.60512">
        <ele>446.67</ele>
        <time>2017-04-02T08:42:51Z</time>
      </trkpt>
      <trkpt lat="48.1951" lon="6.60507">
        <ele>446.19</ele>
        <time>2017-04-02T08:42:52Z</time>
      </trkpt>
      <trkpt lat="48.19506" lon="6.60504">
        <ele>446.19</ele>
        <time>2017-04-02T08:42:53Z</time>
      </trkpt>
      <trkpt lat="48.19501" lon="6.60501">
        <ele>446.19</ele>
        <time>2017-04-02T08:42:54Z</time>
      </trkpt>
      <trkpt lat="48.19498" lon="6.60499">
        <ele>446.67</ele>
        <time>2017-04-02T08:42:55Z</time>
      </trkpt>
      <trkpt lat="48.19494" lon="6.60499">
        <ele>447.15</ele>
        <time>2017-04-02T08:42:56Z</time>
      </trkpt>
      <trkpt lat="48.1949" lon="6.60498">
        <ele>447.63</ele>
        <time>2017-04-02T08:42:57Z</time>
      </trkpt>
      <trkpt lat="48.19486" lon="6.60497">
        <ele>447.63</ele>
        <time>2017-04-02T08:42:58Z</time>
      </trkpt>
      <trkpt lat="48.19483" lon="6.60495">
        <ele>447.63</ele>
        <time>2017-04-02T08:42:59Z</time>
      </trkpt>
      <trkpt lat="48.19464" lon="6.6049">
        <ele>448.11</ele>
        <time>2017-04-02T08:43:04Z</time>
      </trkpt>
      <trkpt lat="48.19461" lon="6.60492">
        <ele>448.11</ele>
        <time>2017-04-02T08:43:05Z</time>
      </trkpt>
      <trkpt lat="48.19458" lon="6.60494">
        <ele>448.11</ele>
        <time>2017-04-02T08:43:07Z</time>
      </trkpt>
      <trkpt lat="48.19443" lon="6.60494">
        <ele>449.55</ele>
        <time>2017-04-02T08:43:13Z</time>
      </trkpt>
      <trkpt lat="48.19441" lon="6.60495">
        <ele>449.07</ele>
        <time>2017-04-02T08:43:14Z</time>
      </trkpt>
      <trkpt lat="48.19437" lon="6.60496">
        <ele>449.07</ele>
        <time>2017-04-02T08:43:15Z</time>
      </trkpt>
      <trkpt lat="48.19434" lon="6.60497">
        <ele>449.55</ele>
        <time>2017-04-02T08:43:16Z</time>
      </trkpt>
      <trkpt lat="48.19431" lon="6.60497">
        <ele>449.55</ele>
        <time>2017-04-02T08:43:17Z</time>
      </trkpt>
      <trkpt lat="48.19413" lon="6.60504">
        <ele>450.52</ele>
        <time>2017-04-02T08:43:23Z</time>
      </trkpt>
      <trkpt lat="48.1941" lon="6.60506">
        <ele>450.52</ele>
        <time>2017-04-02T08:43:24Z</time>
      </trkpt>
      <trkpt lat="48.19408" lon="6.60507">
        <ele>451</ele>
        <time>2017-04-02T08:43:25Z</time>
      </trkpt>
      <trkpt lat="48.19405" lon="6.60507">
        <ele>450.52</ele>
        <time>2017-04-02T08:43:26Z</time>
      </trkpt>
      <trkpt lat="48.19403" lon="6.60508">
        <ele>451</ele>
        <time>2017-04-02T08:43:27Z</time>
      </trkpt>
      <trkpt lat="48.19401" lon="6.60508">
        <ele>451.48</ele>
        <time>2017-04-02T08:43:28Z</time>
      </trkpt>
      <trkpt lat="48.19373" lon="6.60529">
        <ele>452.92</ele>
        <time>2017-04-02T08:43:38Z</time>
      </trkpt>
      <trkpt lat="48.19352" lon="6.60556">
        <ele>454.36</ele>
        <time>2017-04-02T08:43:48Z</time>
      </trkpt>
      <trkpt lat="48.19344" lon="6.60571">
        <ele>454.84</ele>
        <time>2017-04-02T08:43:53Z</time>
      </trkpt>
      <trkpt lat="48.19342" lon="6.60574">
        <ele>455.32</ele>
        <time>2017-04-02T08:43:54Z</time>
      </trkpt>
      <trkpt lat="48.1934" lon="6.60577">
        <ele>455.32</ele>
        <time>2017-04-02T08:43:55Z</time>
      </trkpt>
      <trkpt lat="48.19339" lon="6.6058">
        <ele>455.8</ele>
        <time>2017-04-02T08:43:56Z</time>
      </trkpt>
      <trkpt lat="48.19337" lon="6.60583">
        <ele>455.8</ele>
        <time>2017-04-02T08:43:57Z</time>
      </trkpt>
      <trkpt lat="48.19336" lon="6.60587">
        <ele>455.32</ele>
        <time>2017-04-02T08:43:58Z</time>
      </trkpt>
      <trkpt lat="48.19335" lon="6.60589">
        <ele>455.8</ele>
        <time>2017-04-02T08:43:59Z</time>
      </trkpt>
      <trkpt lat="48.19333" lon="6.60592">
        <ele>456.28</ele>
        <time>2017-04-02T08:44:00Z</time>
      </trkpt>
      <trkpt lat="48.19317" lon="6.60618">
        <ele>457.72</ele>
        <time>2017-04-02T08:44:09Z</time>
      </trkpt>
      <trkpt lat="48.19316" lon="6.60621">
        <ele>457.72</ele>
        <time>2017-04-02T08:44:10Z</time>
      </trkpt>
      <trkpt lat="48.19307" lon="6.60638">
        <ele>458.21</ele>
        <time>2017-04-02T08:44:16Z</time>
      </trkpt>
      <trkpt lat="48.19306" lon="6.60641">
        <ele>458.69</ele>
        <time>2017-04-02T08:44:17Z</time>
      </trkpt>
      <trkpt lat="48.19305" lon="6.60644">
        <ele>458.69</ele>
        <time>2017-04-02T08:44:18Z</time>
      </trkpt>
      <trkpt lat="48.19303" lon="6.60647">
        <ele>458.69</ele>
        <time>2017-04-02T08:44:19Z</time>
      </trkpt>
      <trkpt lat="48.19302" lon="6.6065">
        <ele>458.69</ele>
        <time>2017-04-02T08:44:20Z</time>
      </trkpt>
      <trkpt lat="48.19301" lon="6.60653">
        <ele>459.65</ele>
        <time>2017-04-02T08:44:21Z</time>
      </trkpt>
      <trkpt lat="48.193" lon="6.60656">
        <ele>459.17</ele>
        <time>2017-04-02T08:44:22Z</time>
      </trkpt>
      <trkpt lat="48.19298" lon="6.60659">
        <ele>459.17</ele>
        <time>2017-04-02T08:44:23Z</time>
      </trkpt>
      <trkpt lat="48.19297" lon="6.60662">
        <ele>459.17</ele>
        <time>2017-04-02T08:44:24Z</time>
      </trkpt>
      <trkpt lat="48.19295" lon="6.60665">
        <ele>459.65</ele>
        <time>2017-04-02T08:44:25Z</time>
      </trkpt>
      <trkpt lat="48.19294" lon="6.60668">
        <ele>460.13</ele>
        <time>2017-04-02T08:44:26Z</time>
      </trkpt>
      <trkpt lat="48.19292" lon="6.60671">
        <ele>460.13</ele>
        <time>2017-04-02T08:44:27Z</time>
      </trkpt>
      <trkpt lat="48.1929" lon="6.60673">
        <ele>460.13</ele>
        <time>2017-04-02T08:44:28Z</time>
      </trkpt>
      <trkpt lat="48.19289" lon="6.60676">
        <ele>460.13</ele>
        <time>2017-04-02T08:44:29Z</time>
      </trkpt>
      <trkpt lat="48.19288" lon="6.60679">
        <ele>460.13</ele>
        <time>2017-04-02T08:44:30Z</time>
      </trkpt>
      <trkpt lat="48.19287" lon="6.60682">
        <ele>461.09</ele>
        <time>2017-04-02T08:44:31Z</time>
      </trkpt>
      <trkpt lat="48.19286" lon="6.60684">
        <ele>460.61</ele>
        <time>2017-04-02T08:44:32Z</time>
      </trkpt>
      <trkpt lat="48.19284" lon="6.60686">
        <ele>460.61</ele>
        <time>2017-04-02T08:44:33Z</time>
      </trkpt>
      <trkpt lat="48.19282" lon="6.60689">
        <ele>461.09</ele>
        <time>2017-04-02T08:44:34Z</time>
      </trkpt>
      <trkpt lat="48.19269" lon="6.60716">
        <ele>462.05</ele>
        <time>2017-04-02T08:44:44Z</time>
      </trkpt>
      <trkpt lat="48.19269" lon="6.60718">
        <ele>462.53</ele>
        <time>2017-04-02T08:44:45Z</time>
      </trkpt>
      <trkpt lat="48.19267" lon="6.60729">
        <ele>463.49</ele>
        <time>2017-04-02T08:44:48Z</time>
      </trkpt>
      <trkpt lat="48.19266" lon="6.60732">
        <ele>463.49</ele>
        <time>2017-04-02T08:44:49Z</time>
      </trkpt>
      <trkpt lat="48.19265" lon="6.60736">
        <ele>463.49</ele>
        <time>2017-04-02T08:44:50Z</time>
      </trkpt>
      <trkpt lat="48.19263" lon="6.60739">
        <ele>463.97</ele>
        <time>2017-04-02T08:44:51Z</time>
      </trkpt>
      <trkpt lat="48.1926" lon="6.60744">
        <ele>464.93</ele>
        <time>2017-04-02T08:44:53Z</time>
      </trkpt>
      <trkpt lat="48.19259" lon="6.60747">
        <ele>464.93</ele>
        <time>2017-04-02T08:44:54Z</time>
      </trkpt>
      <trkpt lat="48.19258" lon="6.60751">
        <ele>464.93</ele>
        <time>2017-04-02T08:44:55Z</time>
      </trkpt>
      <trkpt lat="48.19257" lon="6.60754">
        <ele>464.93</ele>
        <time>2017-04-02T08:44:56Z</time>
      </trkpt>
      <trkpt lat="48.19257" lon="6.60758">
        <ele>465.42</ele>
        <time>2017-04-02T08:44:57Z</time>
      </trkpt>
      <trkpt lat="48.19256" lon="6.60761">
        <ele>465.42</ele>
        <time>2017-04-02T08:44:58Z</time>
      </trkpt>
      <trkpt lat="48.19255" lon="6.60764">
        <ele>465.9</ele>
        <time>2017-04-02T08:44:59Z</time>
      </trkpt>
      <trkpt lat="48.19253" lon="6.6077">
        <ele>466.38</ele>
        <time>2017-04-02T08:45:01Z</time>
      </trkpt>
      <trkpt lat="48.19251" lon="6.60772">
        <ele>466.38</ele>
        <time>2017-04-02T08:45:02Z</time>
      </trkpt>
      <trkpt lat="48.19248" lon="6.60776">
        <ele>466.38</ele>
        <time>2017-04-02T08:45:04Z</time>
      </trkpt>
      <trkpt lat="48.19246" lon="6.60781">
        <ele>467.34</ele>
        <time>2017-04-02T08:45:07Z</time>
      </trkpt>
      <trkpt lat="48.19243" lon="6.60781">
        <ele>466.86</ele>
        <time>2017-04-02T08:45:10Z</time>
      </trkpt>
      <trkpt lat="48.19241" lon="6.60778">
        <ele>466.38</ele>
        <time>2017-04-02T08:45:11Z</time>
      </trkpt>
      <trkpt lat="48.19233" lon="6.60763">
        <ele>464.45</ele>
        <time>2017-04-02T08:45:15Z</time>
      </trkpt>
      <trkpt lat="48.19229" lon="6.60755">
        <ele>464.45</ele>
        <time>2017-04-02T08:45:17Z</time>
      </trkpt>
      <trkpt lat="48.19229" lon="6.60753">
        <ele>464.45</ele>
        <time>2017-04-02T08:45:18Z</time>
      </trkpt>
      <trkpt lat="48.19229" lon="6.60751">
        <ele>464.45</ele>
        <time>2017-04-02T08:45:19Z</time>
      </trkpt>
      <trkpt lat="48.19229" lon="6.6075">
        <ele>463.97</ele>
        <time>2017-04-02T08:45:20Z</time>
      </trkpt>
      <trkpt lat="48.19228" lon="6.60749">
        <ele>464.45</ele>
        <time>2017-04-02T08:45:21Z</time>
      </trkpt>
      <trkpt lat="48.19227" lon="6.60748">
        <ele>464.93</ele>
        <time>2017-04-02T08:45:22Z</time>
      </trkpt>
      <trkpt lat="48.19219" lon="6.60743">
        <ele>466.38</ele>
        <time>2017-04-02T08:45:29Z</time>
      </trkpt>
      <trkpt lat="48.19219" lon="6.60738">
        <ele>467.34</ele>
        <time>2017-04-02T08:45:33Z</time>
      </trkpt>
      <trkpt lat="48.19218" lon="6.60736">
        <ele>467.34</ele>
        <time>2017-04-02T08:45:34Z</time>
      </trkpt>
      <trkpt lat="48.19218" lon="6.60734">
        <ele>467.34</ele>
        <time>2017-04-02T08:45:35Z</time>
      </trkpt>
      <trkpt lat="48.19217" lon="6.60732">
        <ele>467.34</ele>
        <time>2017-04-02T08:45:36Z</time>
      </trkpt>
      <trkpt lat="48.19216" lon="6.6073">
        <ele>467.34</ele>
        <time>2017-04-02T08:45:37Z</time>
      </trkpt>
      <trkpt lat="48.19212" lon="6.60712">
        <ele>467.82</ele>
        <time>2017-04-02T08:45:43Z</time>
      </trkpt>
      <trkpt lat="48.19209" lon="6.60707">
        <ele>467.82</ele>
        <time>2017-04-02T08:45:54Z</time>
      </trkpt>
      <trkpt lat="48.19207" lon="6.60702">
        <ele>468.3</ele>
        <time>2017-04-02T08:46:14Z</time>
      </trkpt>
      <trkpt lat="48.19206" lon="6.607">
        <ele>467.82</ele>
        <time>2017-04-02T08:46:34Z</time>
      </trkpt>
      <trkpt lat="48.19206" lon="6.607">
        <ele>467.82</ele>
        <time>2017-04-02T08:46:52Z</time>
      </trkpt>
      <trkpt lat="48.19206" lon="6.60698">
        <ele>467.82</ele>
        <time>2017-04-02T08:47:08Z</time>
      </trkpt>
      <trkpt lat="48.19206" lon="6.607">
        <ele>467.82</ele>
        <time>2017-04-02T08:47:33Z</time>
      </trkpt>
      <trkpt lat="48.19206" lon="6.60701">
        <ele>467.82</ele>
        <time>2017-04-02T08:47:53Z</time>
      </trkpt>
      <trkpt lat="48.19206" lon="6.60701">
        <ele>467.82</ele>
        <time>2017-04-02T08:48:18Z</time>
      </trkpt>
      <trkpt lat="48.19208" lon="6.60701">
        <ele>468.3</ele>
        <time>2017-04-02T08:48:39Z</time>
      </trkpt>
      <trkpt lat="48.19208" lon="6.60701">
        <ele>467.82</ele>
        <time>2017-04-02T08:48:57Z</time>
      </trkpt>
      <trkpt lat="48.19206" lon="6.60699">
        <ele>468.3</ele>
        <time>2017-04-02T08:49:20Z</time>
      </trkpt>
      <trkpt lat="48.19206" lon="6.60701">
        <ele>468.3</ele>
        <time>2017-04-02T08:49:42Z</time>
      </trkpt>
      <trkpt lat="48.19207" lon="6.607">
        <ele>468.3</ele>
        <time>2017-04-02T08:50:04Z</time>
      </trkpt>
      <trkpt lat="48.19205" lon="6.607">
        <ele>468.3</ele>
        <time>2017-04-02T08:50:27Z</time>
      </trkpt>
      <trkpt lat="48.19205" lon="6.607">
        <ele>468.3</ele>
        <time>2017-04-02T08:50:52Z</time>
      </trkpt>
      <trkpt lat="48.192" lon="6.60689">
        <ele>468.3</ele>
        <time>2017-04-02T08:51:00Z</time>
      </trkpt>
      <trkpt lat="48.192" lon="6.60686">
        <ele>468.78</ele>
        <time>2017-04-02T08:51:01Z</time>
      </trkpt>
      <trkpt lat="48.19199" lon="6.60684">
        <ele>468.78</ele>
        <time>2017-04-02T08:51:02Z</time>
      </trkpt>
      <trkpt lat="48.19199" lon="6.60681">
        <ele>468.78</ele>
        <time>2017-04-02T08:51:03Z</time>
      </trkpt>
      <trkpt lat="48.19198" lon="6.60677">
        <ele>469.26</ele>
        <time>2017-04-02T08:51:04Z</time>
      </trkpt>
      <trkpt lat="48.19198" lon="6.60673">
        <ele>468.78</ele>
        <time>2017-04-02T08:51:05Z</time>
      </trkpt>
      <trkpt lat="48.19198" lon="6.6067">
        <ele>469.26</ele>
        <time>2017-04-02T08:51:06Z</time>
      </trkpt>
      <trkpt lat="48.19198" lon="6.60667">
        <ele>470.22</ele>
        <time>2017-04-02T08:51:07Z</time>
      </trkpt>
      <trkpt lat="48.19194" lon="6.60645">
        <ele>472.14</ele>
        <time>2017-04-02T08:51:14Z</time>
      </trkpt>
      <trkpt lat="48.19194" lon="6.60643">
        <ele>472.63</ele>
        <time>2017-04-02T08:51:15Z</time>
      </trkpt>
      <trkpt lat="48.1919" lon="6.6062">
        <ele>474.55</ele>
        <time>2017-04-02T08:51:24Z</time>
      </trkpt>
      <trkpt lat="48.19178" lon="6.60585">
        <ele>475.51</ele>
        <time>2017-04-02T08:51:36Z</time>
      </trkpt>
      <trkpt lat="48.1917" lon="6.60552">
        <ele>476.95</ele>
        <time>2017-04-02T08:51:48Z</time>
      </trkpt>
      <trkpt lat="48.19163" lon="6.60521">
        <ele>475.51</ele>
        <time>2017-04-02T08:51:55Z</time>
      </trkpt>
      <trkpt lat="48.1916" lon="6.60516">
        <ele>475.51</ele>
        <time>2017-04-02T08:51:56Z</time>
      </trkpt>
      <trkpt lat="48.19158" lon="6.6051">
        <ele>475.51</ele>
        <time>2017-04-02T08:51:57Z</time>
      </trkpt>
      <trkpt lat="48.19156" lon="6.60505">
        <ele>476.47</ele>
        <time>2017-04-02T08:51:58Z</time>
      </trkpt>
      <trkpt lat="48.19155" lon="6.605">
        <ele>476.95</ele>
        <time>2017-04-02T08:51:59Z</time>
      </trkpt>
      <trkpt lat="48.19154" lon="6.60496">
        <ele>477.43</ele>
        <time>2017-04-02T08:52:00Z</time>
      </trkpt>
      <trkpt lat="48.19152" lon="6.60493">
        <ele>477.43</ele>
        <time>2017-04-02T08:52:01Z</time>
      </trkpt>
      <trkpt lat="48.19152" lon="6.6049">
        <ele>478.39</ele>
        <time>2017-04-02T08:52:02Z</time>
      </trkpt>
      <trkpt lat="48.19151" lon="6.60487">
        <ele>479.35</ele>
        <time>2017-04-02T08:52:03Z</time>
      </trkpt>
      <trkpt lat="48.1915" lon="6.60485">
        <ele>479.35</ele>
        <time>2017-04-02T08:52:04Z</time>
      </trkpt>
      <trkpt lat="48.19149" lon="6.60482">
        <ele>479.84</ele>
        <time>2017-04-02T08:52:05Z</time>
      </trkpt>
      <trkpt lat="48.19149" lon="6.60479">
        <ele>480.32</ele>
        <time>2017-04-02T08:52:06Z</time>
      </trkpt>
      <trkpt lat="48.19148" lon="6.60475">
        <ele>480.8</ele>
        <time>2017-04-02T08:52:07Z</time>
      </trkpt>
      <trkpt lat="48.19148" lon="6.60472">
        <ele>480.8</ele>
        <time>2017-04-02T08:52:08Z</time>
      </trkpt>
      <trkpt lat="48.19145" lon="6.60464">
        <ele>482.24</ele>
        <time>2017-04-02T08:52:13Z</time>
      </trkpt>
      <trkpt lat="48.19136" lon="6.60434">
        <ele>485.6</ele>
        <time>2017-04-02T08:52:21Z</time>
      </trkpt>
      <trkpt lat="48.19132" lon="6.60425">
        <ele>486.08</ele>
        <time>2017-04-02T08:52:24Z</time>
      </trkpt>
      <trkpt lat="48.19131" lon="6.60422">
        <ele>486.08</ele>
        <time>2017-04-02T08:52:25Z</time>
      </trkpt>
      <trkpt lat="48.19131" lon="6.60419">
        <ele>486.08</ele>
        <time>2017-04-02T08:52:26Z</time>
      </trkpt>
      <trkpt lat="48.19131" lon="6.60415">
        <ele>486.56</ele>
        <time>2017-04-02T08:52:27Z</time>
      </trkpt>
      <trkpt lat="48.19131" lon="6.60413">
        <ele>486.56</ele>
        <time>2017-04-02T08:52:28Z</time>
      </trkpt>
      <trkpt lat="48.1913" lon="6.6041">
        <ele>486.56</ele>
        <time>2017-04-02T08:52:29Z</time>
      </trkpt>
      <trkpt lat="48.19129" lon="6.60407">
        <ele>486.56</ele>
        <time>2017-04-02T08:52:30Z</time>
      </trkpt>
      <trkpt lat="48.19128" lon="6.60403">
        <ele>486.56</ele>
        <time>2017-04-02T08:52:31Z</time>
      </trkpt>
      <trkpt lat="48.19127" lon="6.604">
        <ele>487.05</ele>
        <time>2017-04-02T08:52:32Z</time>
      </trkpt>
      <trkpt lat="48.19127" lon="6.60397">
        <ele>487.05</ele>
        <time>2017-04-02T08:52:33Z</time>
      </trkpt>
      <trkpt lat="48.19119" lon="6.6036">
        <ele>487.05</ele>
        <time>2017-04-02T08:52:44Z</time>
      </trkpt>
      <trkpt lat="48.19109" lon="6.60325">
        <ele>488.97</ele>
        <time>2017-04-02T08:52:52Z</time>
      </trkpt>
      <trkpt lat="48.19106" lon="6.60308">
        <ele>489.45</ele>
        <time>2017-04-02T08:52:58Z</time>
      </trkpt>
      <trkpt lat="48.19105" lon="6.60305">
        <ele>489.45</ele>
        <time>2017-04-02T08:52:59Z</time>
      </trkpt>
      <trkpt lat="48.19093" lon="6.60271">
        <ele>490.41</ele>
        <time>2017-04-02T08:53:09Z</time>
      </trkpt>
      <trkpt lat="48.19093" lon="6.60268">
        <ele>490.41</ele>
        <time>2017-04-02T08:53:10Z</time>
      </trkpt>
      <trkpt lat="48.19092" lon="6.60265">
        <ele>490.89</ele>
        <time>2017-04-02T08:53:11Z</time>
      </trkpt>
      <trkpt lat="48.19088" lon="6.60256">
        <ele>490.89</ele>
        <time>2017-04-02T08:53:14Z</time>
      </trkpt>
      <trkpt lat="48.19088" lon="6.60253">
        <ele>490.41</ele>
        <time>2017-04-02T08:53:15Z</time>
      </trkpt>
      <trkpt lat="48.19088" lon="6.60246">
        <ele>491.37</ele>
        <time>2017-04-02T08:53:17Z</time>
      </trkpt>
      <trkpt lat="48.19088" lon="6.60244">
        <ele>490.89</ele>
        <time>2017-04-02T08:53:18Z</time>
      </trkpt>
      <trkpt lat="48.19088" lon="6.60236">
        <ele>491.37</ele>
        <time>2017-04-02T08:53:21Z</time>
      </trkpt>
      <trkpt lat="48.19086" lon="6.60231">
        <ele>491.37</ele>
        <time>2017-04-02T08:53:24Z</time>
      </trkpt>
      <trkpt lat="48.19082" lon="6.60229">
        <ele>491.85</ele>
        <time>2017-04-02T08:53:28Z</time>
      </trkpt>
      <trkpt lat="48.19082" lon="6.60227">
        <ele>491.37</ele>
        <time>2017-04-02T08:53:29Z</time>
      </trkpt>
      <trkpt lat="48.19082" lon="6.60225">
        <ele>491.37</ele>
        <time>2017-04-02T08:53:30Z</time>
      </trkpt>
      <trkpt lat="48.19082" lon="6.60223">
        <ele>491.37</ele>
        <time>2017-04-02T08:53:31Z</time>
      </trkpt>
      <trkpt lat="48.19082" lon="6.60221">
        <ele>491.37</ele>
        <time>2017-04-02T08:53:32Z</time>
      </trkpt>
      <trkpt lat="48.19081" lon="6.6022">
        <ele>491.37</ele>
        <time>2017-04-02T08:53:33Z</time>
      </trkpt>
      <trkpt lat="48.19074" lon="6.60203">
        <ele>491.85</ele>
        <time>2017-04-02T08:53:42Z</time>
      </trkpt>
      <trkpt lat="48.19072" lon="6.602">
        <ele>492.33</ele>
        <time>2017-04-02T08:53:44Z</time>
      </trkpt>
      <trkpt lat="48.19071" lon="6.60197">
        <ele>491.85</ele>
        <time>2017-04-02T08:53:45Z</time>
      </trkpt>
      <trkpt lat="48.19071" lon="6.60195">
        <ele>491.37</ele>
        <time>2017-04-02T08:53:46Z</time>
      </trkpt>
      <trkpt lat="48.1907" lon="6.60192">
        <ele>491.85</ele>
        <time>2017-04-02T08:53:47Z</time>
      </trkpt>
      <trkpt lat="48.1907" lon="6.6019">
        <ele>491.85</ele>
        <time>2017-04-02T08:53:48Z</time>
      </trkpt>
      <trkpt lat="48.19069" lon="6.60188">
        <ele>491.85</ele>
        <time>2017-04-02T08:53:49Z</time>
      </trkpt>
      <trkpt lat="48.19068" lon="6.60186">
        <ele>491.85</ele>
        <time>2017-04-02T08:53:50Z</time>
      </trkpt>
      <trkpt lat="48.19068" lon="6.60184">
        <ele>492.33</ele>
        <time>2017-04-02T08:53:51Z</time>
      </trkpt>
      <trkpt lat="48.19068" lon="6.60182">
        <ele>491.37</ele>
        <time>2017-04-02T08:53:52Z</time>
      </trkpt>
      <trkpt lat="48.19067" lon="6.60175">
        <ele>491.85</ele>
        <time>2017-04-02T08:53:58Z</time>
      </trkpt>
      <trkpt lat="48.19068" lon="6.60174">
        <ele>491.85</ele>
        <time>2017-04-02T08:54:10Z</time>
      </trkpt>
      <trkpt lat="48.19064" lon="6.60168">
        <ele>491.85</ele>
        <time>2017-04-02T08:54:24Z</time>
      </trkpt>
      <trkpt lat="48.19062" lon="6.60165">
        <ele>492.33</ele>
        <time>2017-04-02T08:54:42Z</time>
      </trkpt>
      <trkpt lat="48.19062" lon="6.60164">
        <ele>491.85</ele>
        <time>2017-04-02T08:55:00Z</time>
      </trkpt>
      <trkpt lat="48.19063" lon="6.60164">
        <ele>491.85</ele>
        <time>2017-04-02T08:55:19Z</time>
      </trkpt>
      <trkpt lat="48.19063" lon="6.60161">
        <ele>492.33</ele>
        <time>2017-04-02T08:55:35Z</time>
      </trkpt>
      <trkpt lat="48.19062" lon="6.60159">
        <ele>491.85</ele>
        <time>2017-04-02T08:55:36Z</time>
      </trkpt>
      <trkpt lat="48.19062" lon="6.60156">
        <ele>492.33</ele>
        <time>2017-04-02T08:55:37Z</time>
      </trkpt>
      <trkpt lat="48.19062" lon="6.60153">
        <ele>491.85</ele>
        <time>2017-04-02T08:55:38Z</time>
      </trkpt>
      <trkpt lat="48.19062" lon="6.6015">
        <ele>491.37</ele>
        <time>2017-04-02T08:55:39Z</time>
      </trkpt>
      <trkpt lat="48.19062" lon="6.60146">
        <ele>491.37</ele>
        <time>2017-04-02T08:55:40Z</time>
      </trkpt>
      <trkpt lat="48.19061" lon="6.60141">
        <ele>491.37</ele>
        <time>2017-04-02T08:55:41Z</time>
      </trkpt>
      <trkpt lat="48.19061" lon="6.60136">
        <ele>490.89</ele>
        <time>2017-04-02T08:55:42Z</time>
      </trkpt>
      <trkpt lat="48.19061" lon="6.60131">
        <ele>490.89</ele>
        <time>2017-04-02T08:55:43Z</time>
      </trkpt>
      <trkpt lat="48.19061" lon="6.60105">
        <ele>489.93</ele>
        <time>2017-04-02T08:55:47Z</time>
      </trkpt>
      <trkpt lat="48.19061" lon="6.60098">
        <ele>489.45</ele>
        <time>2017-04-02T08:55:48Z</time>
      </trkpt>
      <trkpt lat="48.19067" lon="6.60051">
        <ele>487.05</ele>
        <time>2017-04-02T08:55:53Z</time>
      </trkpt>
      <trkpt lat="48.19068" lon="6.60041">
        <ele>487.05</ele>
        <time>2017-04-02T08:55:54Z</time>
      </trkpt>
      <trkpt lat="48.19072" lon="6.59991">
        <ele>486.08</ele>
        <time>2017-04-02T08:55:59Z</time>
      </trkpt>
      <trkpt lat="48.19073" lon="6.59981">
        <ele>485.6</ele>
        <time>2017-04-02T08:56:00Z</time>
      </trkpt>
      <trkpt lat="48.19074" lon="6.59971">
        <ele>485.6</ele>
        <time>2017-04-02T08:56:01Z</time>
      </trkpt>
      <trkpt lat="48.19074" lon="6.59961">
        <ele>485.12</ele>
        <time>2017-04-02T08:56:02Z</time>
      </trkpt>
      <trkpt lat="48.19076" lon="6.59951">
        <ele>485.6</ele>
        <time>2017-04-02T08:56:03Z</time>
      </trkpt>
      <trkpt lat="48.19091" lon="6.59886">
        <ele>485.6</ele>
        <time>2017-04-02T08:56:10Z</time>
      </trkpt>
      <trkpt lat="48.19096" lon="6.59869">
        <ele>485.6</ele>
        <time>2017-04-02T08:56:12Z</time>
      </trkpt>
      <trkpt lat="48.19102" lon="6.59852">
        <ele>486.08</ele>
        <time>2017-04-02T08:56:14Z</time>
      </trkpt>
      <trkpt lat="48.19104" lon="6.59844">
        <ele>486.56</ele>
        <time>2017-04-02T08:56:15Z</time>
      </trkpt>
      <trkpt lat="48.19105" lon="6.59836">
        <ele>486.56</ele>
        <time>2017-04-02T08:56:16Z</time>
      </trkpt>
      <trkpt lat="48.19107" lon="6.59828">
        <ele>487.05</ele>
        <time>2017-04-02T08:56:17Z</time>
      </trkpt>
      <trkpt lat="48.1911" lon="6.59821">
        <ele>488.01</ele>
        <time>2017-04-02T08:56:18Z</time>
      </trkpt>
      <trkpt lat="48.19112" lon="6.59814">
        <ele>488.01</ele>
        <time>2017-04-02T08:56:19Z</time>
      </trkpt>
      <trkpt lat="48.19114" lon="6.59806">
        <ele>488.01</ele>
        <time>2017-04-02T08:56:20Z</time>
      </trkpt>
      <trkpt lat="48.19115" lon="6.598">
        <ele>488.49</ele>
        <time>2017-04-02T08:56:21Z</time>
      </trkpt>
      <trkpt lat="48.19117" lon="6.59793">
        <ele>488.49</ele>
        <time>2017-04-02T08:56:22Z</time>
      </trkpt>
      <trkpt lat="48.19119" lon="6.59785">
        <ele>488.49</ele>
        <time>2017-04-02T08:56:23Z</time>
      </trkpt>
      <trkpt lat="48.19121" lon="6.59777">
        <ele>488.49</ele>
        <time>2017-04-02T08:56:24Z</time>
      </trkpt>
      <trkpt lat="48.19136" lon="6.59735">
        <ele>489.93</ele>
        <time>2017-04-02T08:56:30Z</time>
      </trkpt>
      <trkpt lat="48.19139" lon="6.5973">
        <ele>489.45</ele>
        <time>2017-04-02T08:56:31Z</time>
      </trkpt>
      <trkpt lat="48.19141" lon="6.59724">
        <ele>489.93</ele>
        <time>2017-04-02T08:56:32Z</time>
      </trkpt>
      <trkpt lat="48.19144" lon="6.59718">
        <ele>489.93</ele>
        <time>2017-04-02T08:56:33Z</time>
      </trkpt>
      <trkpt lat="48.19146" lon="6.59712">
        <ele>489.93</ele>
        <time>2017-04-02T08:56:34Z</time>
      </trkpt>
      <trkpt lat="48.19148" lon="6.59706">
        <ele>489.93</ele>
        <time>2017-04-02T08:56:35Z</time>
      </trkpt>
      <trkpt lat="48.19152" lon="6.59696">
        <ele>489.93</ele>
        <time>2017-04-02T08:56:37Z</time>
      </trkpt>
      <trkpt lat="48.19155" lon="6.59691">
        <ele>489.45</ele>
        <time>2017-04-02T08:56:38Z</time>
      </trkpt>
      <trkpt lat="48.19158" lon="6.59687">
        <ele>489.45</ele>
        <time>2017-04-02T08:56:39Z</time>
      </trkpt>
      <trkpt lat="48.1916" lon="6.59682">
        <ele>489.45</ele>
        <time>2017-04-02T08:56:40Z</time>
      </trkpt>
      <trkpt lat="48.19163" lon="6.59676">
        <ele>489.93</ele>
        <time>2017-04-02T08:56:41Z</time>
      </trkpt>
      <trkpt lat="48.19166" lon="6.59672">
        <ele>489.45</ele>
        <time>2017-04-02T08:56:42Z</time>
      </trkpt>
      <trkpt lat="48.19178" lon="6.59644">
        <ele>489.45</ele>
        <time>2017-04-02T08:56:47Z</time>
      </trkpt>
      <trkpt lat="48.19181" lon="6.59638">
        <ele>488.97</ele>
        <time>2017-04-02T08:56:48Z</time>
      </trkpt>
      <trkpt lat="48.19192" lon="6.59617">
        <ele>488.49</ele>
        <time>2017-04-02T08:56:51Z</time>
      </trkpt>
      <trkpt lat="48.19195" lon="6.59608">
        <ele>487.53</ele>
        <time>2017-04-02T08:56:52Z</time>
      </trkpt>
      <trkpt lat="48.19225" lon="6.59532">
        <ele>484.16</ele>
        <time>2017-04-02T08:57:00Z</time>
      </trkpt>
      <trkpt lat="48.1923" lon="6.5952">
        <ele>483.68</ele>
        <time>2017-04-02T08:57:01Z</time>
      </trkpt>
      <trkpt lat="48.19255" lon="6.59453">
        <ele>482.24</ele>
        <time>2017-04-02T08:57:07Z</time>
      </trkpt>
      <trkpt lat="48.19261" lon="6.59442">
        <ele>481.76</ele>
        <time>2017-04-02T08:57:08Z</time>
      </trkpt>
      <trkpt lat="48.19271" lon="6.59421">
        <ele>481.76</ele>
        <time>2017-04-02T08:57:10Z</time>
      </trkpt>
      <trkpt lat="48.19312" lon="6.59353">
        <ele>481.76</ele>
        <time>2017-04-02T08:57:18Z</time>
      </trkpt>
      <trkpt lat="48.19315" lon="6.59349">
        <ele>481.76</ele>
        <time>2017-04-02T08:57:19Z</time>
      </trkpt>
      <trkpt lat="48.19316" lon="6.59345">
        <ele>481.76</ele>
        <time>2017-04-02T08:57:20Z</time>
      </trkpt>
      <trkpt lat="48.19311" lon="6.59342">
        <ele>481.28</ele>
        <time>2017-04-02T08:57:25Z</time>
      </trkpt>
      <trkpt lat="48.19293" lon="6.59343">
        <ele>480.8</ele>
        <time>2017-04-02T08:57:35Z</time>
      </trkpt>
      <trkpt lat="48.19283" lon="6.59357">
        <ele>480.8</ele>
        <time>2017-04-02T08:57:42Z</time>
      </trkpt>
      <trkpt lat="48.1928" lon="6.5936">
        <ele>480.32</ele>
        <time>2017-04-02T08:57:43Z</time>
      </trkpt>
      <trkpt lat="48.19276" lon="6.59363">
        <ele>480.8</ele>
        <time>2017-04-02T08:57:44Z</time>
      </trkpt>
      <trkpt lat="48.1926" lon="6.59373">
        <ele>480.8</ele>
        <time>2017-04-02T08:57:48Z</time>
      </trkpt>
      <trkpt lat="48.19255" lon="6.59376">
        <ele>480.32</ele>
        <time>2017-04-02T08:57:49Z</time>
      </trkpt>
      <trkpt lat="48.1925" lon="6.59379">
        <ele>479.84</ele>
        <time>2017-04-02T08:57:50Z</time>
      </trkpt>
      <trkpt lat="48.19245" lon="6.59382">
        <ele>479.84</ele>
        <time>2017-04-02T08:57:51Z</time>
      </trkpt>
      <trkpt lat="48.19239" lon="6.59385">
        <ele>479.35</ele>
        <time>2017-04-02T08:57:52Z</time>
      </trkpt>
      <trkpt lat="48.19232" lon="6.59386">
        <ele>479.35</ele>
        <time>2017-04-02T08:57:53Z</time>
      </trkpt>
      <trkpt lat="48.19225" lon="6.59386">
        <ele>479.35</ele>
        <time>2017-04-02T08:57:54Z</time>
      </trkpt>
      <trkpt lat="48.19205" lon="6.59388">
        <ele>479.35</ele>
        <time>2017-04-02T08:57:57Z</time>
      </trkpt>
      <trkpt lat="48.19169" lon="6.59396">
        <ele>479.35</ele>
        <time>2017-04-02T08:58:03Z</time>
      </trkpt>
      <trkpt lat="48.1914" lon="6.59408">
        <ele>478.39</ele>
        <time>2017-04-02T08:58:08Z</time>
      </trkpt>
      <trkpt lat="48.19124" lon="6.59412">
        <ele>478.87</ele>
        <time>2017-04-02T08:58:11Z</time>
      </trkpt>
      <trkpt lat="48.19098" lon="6.59422">
        <ele>481.28</ele>
        <time>2017-04-02T08:58:17Z</time>
      </trkpt>
      <trkpt lat="48.19077" lon="6.59415">
        <ele>481.76</ele>
        <time>2017-04-02T08:58:24Z</time>
      </trkpt>
      <trkpt lat="48.19069" lon="6.59392">
        <ele>481.76</ele>
        <time>2017-04-02T08:58:33Z</time>
      </trkpt>
      <trkpt lat="48.19067" lon="6.59388">
        <ele>481.76</ele>
        <time>2017-04-02T08:58:34Z</time>
      </trkpt>
      <trkpt lat="48.19055" lon="6.5935">
        <ele>480.8</ele>
        <time>2017-04-02T08:58:41Z</time>
      </trkpt>
      <trkpt lat="48.19047" lon="6.59327">
        <ele>479.35</ele>
        <time>2017-04-02T08:58:44Z</time>
      </trkpt>
      <trkpt lat="48.19042" lon="6.59308">
        <ele>477.91</ele>
        <time>2017-04-02T08:58:46Z</time>
      </trkpt>
      <trkpt lat="48.19032" lon="6.59263">
        <ele>475.51</ele>
        <time>2017-04-02T08:58:50Z</time>
      </trkpt>
      <trkpt lat="48.19028" lon="6.59251">
        <ele>474.55</ele>
        <time>2017-04-02T08:58:51Z</time>
      </trkpt>
      <trkpt lat="48.19016" lon="6.59205">
        <ele>470.7</ele>
        <time>2017-04-02T08:58:55Z</time>
      </trkpt>
      <trkpt lat="48.19007" lon="6.59177">
        <ele>468.78</ele>
        <time>2017-04-02T08:58:58Z</time>
      </trkpt>
      <trkpt lat="48.19" lon="6.59145">
        <ele>463.97</ele>
        <time>2017-04-02T08:59:02Z</time>
      </trkpt>
      <trkpt lat="48.18996" lon="6.59126">
        <ele>460.61</ele>
        <time>2017-04-02T08:59:04Z</time>
      </trkpt>
      <trkpt lat="48.18991" lon="6.59106">
        <ele>457.24</ele>
        <time>2017-04-02T08:59:06Z</time>
      </trkpt>
      <trkpt lat="48.1898" lon="6.59068">
        <ele>452.92</ele>
        <time>2017-04-02T08:59:10Z</time>
      </trkpt>
      <trkpt lat="48.18977" lon="6.59058">
        <ele>451.48</ele>
        <time>2017-04-02T08:59:11Z</time>
      </trkpt>
      <trkpt lat="48.18972" lon="6.59041">
        <ele>449.55</ele>
        <time>2017-04-02T08:59:13Z</time>
      </trkpt>
      <trkpt lat="48.18968" lon="6.59035">
        <ele>449.07</ele>
        <time>2017-04-02T08:59:14Z</time>
      </trkpt>
      <trkpt lat="48.18964" lon="6.59032">
        <ele>449.07</ele>
        <time>2017-04-02T08:59:15Z</time>
      </trkpt>
      <trkpt lat="48.1896" lon="6.59031">
        <ele>448.11</ele>
        <time>2017-04-02T08:59:16Z</time>
      </trkpt>
      <trkpt lat="48.18955" lon="6.5903">
        <ele>448.11</ele>
        <time>2017-04-02T08:59:17Z</time>
      </trkpt>
      <trkpt lat="48.18941" lon="6.59027">
        <ele>447.63</ele>
        <time>2017-04-02T08:59:20Z</time>
      </trkpt>
      <trkpt lat="48.18909" lon="6.59016">
        <ele>446.19</ele>
        <time>2017-04-02T08:59:28Z</time>
      </trkpt>
      <trkpt lat="48.18903" lon="6.59013">
        <ele>445.71</ele>
        <time>2017-04-02T08:59:29Z</time>
      </trkpt>
      <trkpt lat="48.18897" lon="6.5901">
        <ele>445.71</ele>
        <time>2017-04-02T08:59:30Z</time>
      </trkpt>
      <trkpt lat="48.18887" lon="6.59007">
        <ele>445.71</ele>
        <time>2017-04-02T08:59:32Z</time>
      </trkpt>
      <trkpt lat="48.18877" lon="6.59003">
        <ele>445.71</ele>
        <time>2017-04-02T08:59:34Z</time>
      </trkpt>
      <trkpt lat="48.18832" lon="6.58993">
        <ele>444.75</ele>
        <time>2017-04-02T08:59:42Z</time>
      </trkpt>
      <trkpt lat="48.18826" lon="6.58994">
        <ele>444.75</ele>
        <time>2017-04-02T08:59:43Z</time>
      </trkpt>
      <trkpt lat="48.18821" lon="6.58996">
        <ele>444.27</ele>
        <time>2017-04-02T08:59:44Z</time>
      </trkpt>
      <trkpt lat="48.1879" lon="6.59012">
        <ele>446.67</ele>
        <time>2017-04-02T08:59:52Z</time>
      </trkpt>
      <trkpt lat="48.18773" lon="6.59023">
        <ele>446.67</ele>
        <time>2017-04-02T08:59:56Z</time>
      </trkpt>
      <trkpt lat="48.18765" lon="6.59027">
        <ele>446.19</ele>
        <time>2017-04-02T08:59:58Z</time>
      </trkpt>
      <trkpt lat="48.18756" lon="6.59032">
        <ele>445.23</ele>
        <time>2017-04-02T09:00:00Z</time>
      </trkpt>
      <trkpt lat="48.18751" lon="6.59036">
        <ele>445.23</ele>
        <time>2017-04-02T09:00:01Z</time>
      </trkpt>
      <trkpt lat="48.18741" lon="6.59044">
        <ele>443.31</ele>
        <time>2017-04-02T09:00:03Z</time>
      </trkpt>
      <trkpt lat="48.18734" lon="6.59046">
        <ele>443.31</ele>
        <time>2017-04-02T09:00:04Z</time>
      </trkpt>
      <trkpt lat="48.18728" lon="6.59049">
        <ele>442.34</ele>
        <time>2017-04-02T09:00:05Z</time>
      </trkpt>
      <trkpt lat="48.18712" lon="6.59059">
        <ele>441.38</ele>
        <time>2017-04-02T09:00:08Z</time>
      </trkpt>
      <trkpt lat="48.18707" lon="6.59063">
        <ele>441.38</ele>
        <time>2017-04-02T09:00:09Z</time>
      </trkpt>
      <trkpt lat="48.18703" lon="6.59066">
        <ele>441.38</ele>
        <time>2017-04-02T09:00:10Z</time>
      </trkpt>
      <trkpt lat="48.187" lon="6.5907">
        <ele>441.86</ele>
        <time>2017-04-02T09:00:11Z</time>
      </trkpt>
      <trkpt lat="48.18698" lon="6.59075">
        <ele>441.38</ele>
        <time>2017-04-02T09:00:12Z</time>
      </trkpt>
      <trkpt lat="48.18695" lon="6.59078">
        <ele>441.38</ele>
        <time>2017-04-02T09:00:13Z</time>
      </trkpt>
      <trkpt lat="48.18692" lon="6.5908">
        <ele>441.38</ele>
        <time>2017-04-02T09:00:14Z</time>
      </trkpt>
      <trkpt lat="48.18689" lon="6.59082">
        <ele>441.38</ele>
        <time>2017-04-02T09:00:15Z</time>
      </trkpt>
      <trkpt lat="48.18684" lon="6.59084">
        <ele>441.38</ele>
        <time>2017-04-02T09:00:16Z</time>
      </trkpt>
      <trkpt lat="48.18681" lon="6.59088">
        <ele>441.38</ele>
        <time>2017-04-02T09:00:17Z</time>
      </trkpt>
      <trkpt lat="48.18671" lon="6.59097">
        <ele>440.9</ele>
        <time>2017-04-02T09:00:20Z</time>
      </trkpt>
      <trkpt lat="48.18667" lon="6.59098">
        <ele>441.38</ele>
        <time>2017-04-02T09:00:21Z</time>
      </trkpt>
      <trkpt lat="48.18652" lon="6.59101">
        <ele>440.42</ele>
        <time>2017-04-02T09:00:24Z</time>
      </trkpt>
      <trkpt lat="48.18647" lon="6.59102">
        <ele>440.42</ele>
        <time>2017-04-02T09:00:25Z</time>
      </trkpt>
      <trkpt lat="48.18641" lon="6.59104">
        <ele>440.42</ele>
        <time>2017-04-02T09:00:26Z</time>
      </trkpt>
      <trkpt lat="48.18636" lon="6.59109">
        <ele>439.94</ele>
        <time>2017-04-02T09:00:27Z</time>
      </trkpt>
      <trkpt lat="48.18633" lon="6.59115">
        <ele>439.46</ele>
        <time>2017-04-02T09:00:28Z</time>
      </trkpt>
      <trkpt lat="48.1863" lon="6.59121">
        <ele>438.98</ele>
        <time>2017-04-02T09:00:29Z</time>
      </trkpt>
      <trkpt lat="48.18627" lon="6.59127">
        <ele>438.5</ele>
        <time>2017-04-02T09:00:30Z</time>
      </trkpt>
      <trkpt lat="48.18623" lon="6.59135">
        <ele>438.02</ele>
        <time>2017-04-02T09:00:31Z</time>
      </trkpt>
      <trkpt lat="48.18618" lon="6.59143">
        <ele>438.02</ele>
        <time>2017-04-02T09:00:32Z</time>
      </trkpt>
      <trkpt lat="48.18611" lon="6.59163">
        <ele>437.54</ele>
        <time>2017-04-02T09:00:35Z</time>
      </trkpt>
      <trkpt lat="48.18609" lon="6.59168">
        <ele>437.06</ele>
        <time>2017-04-02T09:00:36Z</time>
      </trkpt>
      <trkpt lat="48.18607" lon="6.59172">
        <ele>437.54</ele>
        <time>2017-04-02T09:00:37Z</time>
      </trkpt>
      <trkpt lat="48.18603" lon="6.59184">
        <ele>437.06</ele>
        <time>2017-04-02T09:00:38Z</time>
      </trkpt>
      <trkpt lat="48.18602" lon="6.5919">
        <ele>437.06</ele>
        <time>2017-04-02T09:00:39Z</time>
      </trkpt>
      <trkpt lat="48.18597" lon="6.59191">
        <ele>437.06</ele>
        <time>2017-04-02T09:00:50Z</time>
      </trkpt>
      <trkpt lat="48.1859" lon="6.59194">
        <ele>437.54</ele>
        <time>2017-04-02T09:01:09Z</time>
      </trkpt>
      <trkpt lat="48.18591" lon="6.59191">
        <ele>437.54</ele>
        <time>2017-04-02T09:01:28Z</time>
      </trkpt>
      <trkpt lat="48.18589" lon="6.59192">
        <ele>437.06</ele>
        <time>2017-04-02T09:01:54Z</time>
      </trkpt>
      <trkpt lat="48.18587" lon="6.59191">
        <ele>437.06</ele>
        <time>2017-04-02T09:02:03Z</time>
      </trkpt>
      <trkpt lat="48.18587" lon="6.59189">
        <ele>437.54</ele>
        <time>2017-04-02T09:02:04Z</time>
      </trkpt>
      <trkpt lat="48.18589" lon="6.59187">
        <ele>437.06</ele>
        <time>2017-04-02T09:02:15Z</time>
      </trkpt>
      <trkpt lat="48.18589" lon="6.59184">
        <ele>437.06</ele>
        <time>2017-04-02T09:02:39Z</time>
      </trkpt>
      <trkpt lat="48.1859" lon="6.59183">
        <ele>437.06</ele>
        <time>2017-04-02T09:02:40Z</time>
      </trkpt>
      <trkpt lat="48.1859" lon="6.5918">
        <ele>437.06</ele>
        <time>2017-04-02T09:02:41Z</time>
      </trkpt>
      <trkpt lat="48.1859" lon="6.59174">
        <ele>437.54</ele>
        <time>2017-04-02T09:02:44Z</time>
      </trkpt>
      <trkpt lat="48.1859" lon="6.59171">
        <ele>437.54</ele>
        <time>2017-04-02T09:02:45Z</time>
      </trkpt>
      <trkpt lat="48.18589" lon="6.59168">
        <ele>437.54</ele>
        <time>2017-04-02T09:02:46Z</time>
      </trkpt>
      <trkpt lat="48.18585" lon="6.59145">
        <ele>438.02</ele>
        <time>2017-04-02T09:02:56Z</time>
      </trkpt>
      <trkpt lat="48.18583" lon="6.59136">
        <ele>438.5</ele>
        <time>2017-04-02T09:03:00Z</time>
      </trkpt>
      <trkpt lat="48.18583" lon="6.59133">
        <ele>438.5</ele>
        <time>2017-04-02T09:03:01Z</time>
      </trkpt>
      <trkpt lat="48.18583" lon="6.59129">
        <ele>438.5</ele>
        <time>2017-04-02T09:03:02Z</time>
      </trkpt>
      <trkpt lat="48.18582" lon="6.59125">
        <ele>438.5</ele>
        <time>2017-04-02T09:03:03Z</time>
      </trkpt>
      <trkpt lat="48.1858" lon="6.5912">
        <ele>438.5</ele>
        <time>2017-04-02T09:03:04Z</time>
      </trkpt>
      <trkpt lat="48.18572" lon="6.59069">
        <ele>439.46</ele>
        <time>2017-04-02T09:03:13Z</time>
      </trkpt>
      <trkpt lat="48.18569" lon="6.59056">
        <ele>439.46</ele>
        <time>2017-04-02T09:03:15Z</time>
      </trkpt>
      <trkpt lat="48.18567" lon="6.59048">
        <ele>439.46</ele>
        <time>2017-04-02T09:03:16Z</time>
      </trkpt>
      <trkpt lat="48.18567" lon="6.59042">
        <ele>439.46</ele>
        <time>2017-04-02T09:03:17Z</time>
      </trkpt>
      <trkpt lat="48.18565" lon="6.59035">
        <ele>439.46</ele>
        <time>2017-04-02T09:03:18Z</time>
      </trkpt>
      <trkpt lat="48.18562" lon="6.5903">
        <ele>440.42</ele>
        <time>2017-04-02T09:03:19Z</time>
      </trkpt>
      <trkpt lat="48.18559" lon="6.59026">
        <ele>439.94</ele>
        <time>2017-04-02T09:03:20Z</time>
      </trkpt>
      <trkpt lat="48.18555" lon="6.59022">
        <ele>440.42</ele>
        <time>2017-04-02T09:03:21Z</time>
      </trkpt>
      <trkpt lat="48.18552" lon="6.59017">
        <ele>439.46</ele>
        <time>2017-04-02T09:03:22Z</time>
      </trkpt>
      <trkpt lat="48.18549" lon="6.59011">
        <ele>439.94</ele>
        <time>2017-04-02T09:03:23Z</time>
      </trkpt>
      <trkpt lat="48.18546" lon="6.59008">
        <ele>439.94</ele>
        <time>2017-04-02T09:03:24Z</time>
      </trkpt>
      <trkpt lat="48.18542" lon="6.59006">
        <ele>439.94</ele>
        <time>2017-04-02T09:03:25Z</time>
      </trkpt>
      <trkpt lat="48.18538" lon="6.59005">
        <ele>440.42</ele>
        <time>2017-04-02T09:03:26Z</time>
      </trkpt>
      <trkpt lat="48.18533" lon="6.59004">
        <ele>439.46</ele>
        <time>2017-04-02T09:03:27Z</time>
      </trkpt>
      <trkpt lat="48.18528" lon="6.59">
        <ele>438.98</ele>
        <time>2017-04-02T09:03:28Z</time>
      </trkpt>
      <trkpt lat="48.18524" lon="6.58996">
        <ele>438.98</ele>
        <time>2017-04-02T09:03:29Z</time>
      </trkpt>
      <trkpt lat="48.18471" lon="6.58941">
        <ele>436.1</ele>
        <time>2017-04-02T09:03:39Z</time>
      </trkpt>
      <trkpt lat="48.18461" lon="6.58927">
        <ele>434.65</ele>
        <time>2017-04-02T09:03:41Z</time>
      </trkpt>
      <trkpt lat="48.18452" lon="6.58912">
        <ele>433.21</ele>
        <time>2017-04-02T09:03:43Z</time>
      </trkpt>
      <trkpt lat="48.18437" lon="6.58893">
        <ele>432.25</ele>
        <time>2017-04-02T09:03:46Z</time>
      </trkpt>
      <trkpt lat="48.18427" lon="6.58883">
        <ele>431.77</ele>
        <time>2017-04-02T09:03:48Z</time>
      </trkpt>
      <trkpt lat="48.18422" lon="6.58878">
        <ele>431.29</ele>
        <time>2017-04-02T09:03:49Z</time>
      </trkpt>
      <trkpt lat="48.18409" lon="6.5887">
        <ele>429.85</ele>
        <time>2017-04-02T09:03:51Z</time>
      </trkpt>
      <trkpt lat="48.18404" lon="6.5887">
        <ele>429.85</ele>
        <time>2017-04-02T09:03:52Z</time>
      </trkpt>
      <trkpt lat="48.184" lon="6.5887">
        <ele>428.89</ele>
        <time>2017-04-02T09:03:53Z</time>
      </trkpt>
      <trkpt lat="48.18388" lon="6.5887">
        <ele>427.92</ele>
        <time>2017-04-02T09:03:55Z</time>
      </trkpt>
      <trkpt lat="48.18378" lon="6.58868">
        <ele>426.96</ele>
        <time>2017-04-02T09:03:57Z</time>
      </trkpt>
      <trkpt lat="48.18372" lon="6.58866">
        <ele>426.48</ele>
        <time>2017-04-02T09:03:58Z</time>
      </trkpt>
      <trkpt lat="48.18298" lon="6.58813">
        <ele>423.6</ele>
        <time>2017-04-02T09:04:09Z</time>
      </trkpt>
      <trkpt lat="48.18269" lon="6.58783">
        <ele>421.68</ele>
        <time>2017-04-02T09:04:13Z</time>
      </trkpt>
      <trkpt lat="48.18214" lon="6.5874">
        <ele>420.23</ele>
        <time>2017-04-02T09:04:22Z</time>
      </trkpt>
      <trkpt lat="48.18208" lon="6.58736">
        <ele>421.19</ele>
        <time>2017-04-02T09:04:31Z</time>
      </trkpt>
      <trkpt lat="48.18202" lon="6.58732">
        <ele>421.19</ele>
        <time>2017-04-02T09:04:36Z</time>
      </trkpt>
      <trkpt lat="48.18201" lon="6.58733">
        <ele>421.68</ele>
        <time>2017-04-02T09:04:37Z</time>
      </trkpt>
      <trkpt lat="48.1819" lon="6.58737">
        <ele>420.71</ele>
        <time>2017-04-02T09:04:42Z</time>
      </trkpt>
      <trkpt lat="48.18187" lon="6.58735">
        <ele>420.71</ele>
        <time>2017-04-02T09:04:43Z</time>
      </trkpt>
      <trkpt lat="48.18185" lon="6.58731">
        <ele>420.23</ele>
        <time>2017-04-02T09:04:44Z</time>
      </trkpt>
      <trkpt lat="48.18182" lon="6.58727">
        <ele>419.75</ele>
        <time>2017-04-02T09:04:45Z</time>
      </trkpt>
      <trkpt lat="48.1818" lon="6.58721">
        <ele>419.27</ele>
        <time>2017-04-02T09:04:46Z</time>
      </trkpt>
      <trkpt lat="48.18177" lon="6.58714">
        <ele>419.75</ele>
        <time>2017-04-02T09:04:47Z</time>
      </trkpt>
      <trkpt lat="48.18174" lon="6.58708">
        <ele>419.27</ele>
        <time>2017-04-02T09:04:48Z</time>
      </trkpt>
      <trkpt lat="48.1817" lon="6.58702">
        <ele>419.27</ele>
        <time>2017-04-02T09:04:49Z</time>
      </trkpt>
      <trkpt lat="48.18162" lon="6.5869">
        <ele>418.31</ele>
        <time>2017-04-02T09:04:51Z</time>
      </trkpt>
      <trkpt lat="48.1815" lon="6.5867">
        <ele>417.35</ele>
        <time>2017-04-02T09:04:54Z</time>
      </trkpt>
      <trkpt lat="48.18104" lon="6.58605">
        <ele>415.43</ele>
        <time>2017-04-02T09:05:03Z</time>
      </trkpt>
      <trkpt lat="48.18076" lon="6.58537">
        <ele>414.47</ele>
        <time>2017-04-02T09:05:10Z</time>
      </trkpt>
      <trkpt lat="48.18056" lon="6.58475">
        <ele>413.5</ele>
        <time>2017-04-02T09:05:16Z</time>
      </trkpt>
      <trkpt lat="48.18054" lon="6.58464">
        <ele>413.02</ele>
        <time>2017-04-02T09:05:17Z</time>
      </trkpt>
      <trkpt lat="48.18047" lon="6.58431">
        <ele>412.06</ele>
        <time>2017-04-02T09:05:20Z</time>
      </trkpt>
      <trkpt lat="48.18041" lon="6.58409">
        <ele>411.58</ele>
        <time>2017-04-02T09:05:22Z</time>
      </trkpt>
      <trkpt lat="48.18037" lon="6.584">
        <ele>412.06</ele>
        <time>2017-04-02T09:05:23Z</time>
      </trkpt>
      <trkpt lat="48.18025" lon="6.58373">
        <ele>411.58</ele>
        <time>2017-04-02T09:05:26Z</time>
      </trkpt>
      <trkpt lat="48.18019" lon="6.58366">
        <ele>412.06</ele>
        <time>2017-04-02T09:05:27Z</time>
      </trkpt>
      <trkpt lat="48.18014" lon="6.58361">
        <ele>412.06</ele>
        <time>2017-04-02T09:05:28Z</time>
      </trkpt>
      <trkpt lat="48.1801" lon="6.58355">
        <ele>411.58</ele>
        <time>2017-04-02T09:05:29Z</time>
      </trkpt>
      <trkpt lat="48.18008" lon="6.58347">
        <ele>411.58</ele>
        <time>2017-04-02T09:05:30Z</time>
      </trkpt>
      <trkpt lat="48.18008" lon="6.58339">
        <ele>411.58</ele>
        <time>2017-04-02T09:05:31Z</time>
      </trkpt>
      <trkpt lat="48.18008" lon="6.58332">
        <ele>412.54</ele>
        <time>2017-04-02T09:05:32Z</time>
      </trkpt>
      <trkpt lat="48.18007" lon="6.58326">
        <ele>412.06</ele>
        <time>2017-04-02T09:05:33Z</time>
      </trkpt>
      <trkpt lat="48.17996" lon="6.58292">
        <ele>413.02</ele>
        <time>2017-04-02T09:05:40Z</time>
      </trkpt>
      <trkpt lat="48.17992" lon="6.58287">
        <ele>412.54</ele>
        <time>2017-04-02T09:05:42Z</time>
      </trkpt>
      <trkpt lat="48.17991" lon="6.58283">
        <ele>413.02</ele>
        <time>2017-04-02T09:05:43Z</time>
      </trkpt>
      <trkpt lat="48.17978" lon="6.58259">
        <ele>413.02</ele>
        <time>2017-04-02T09:05:50Z</time>
      </trkpt>
      <trkpt lat="48.17978" lon="6.58256">
        <ele>413.02</ele>
        <time>2017-04-02T09:05:51Z</time>
      </trkpt>
      <trkpt lat="48.17978" lon="6.58253">
        <ele>412.54</ele>
        <time>2017-04-02T09:05:52Z</time>
      </trkpt>
      <trkpt lat="48.17979" lon="6.5825">
        <ele>413.5</ele>
        <time>2017-04-02T09:05:53Z</time>
      </trkpt>
      <trkpt lat="48.17978" lon="6.58246">
        <ele>413.5</ele>
        <time>2017-04-02T09:05:54Z</time>
      </trkpt>
      <trkpt lat="48.17978" lon="6.58241">
        <ele>413.98</ele>
        <time>2017-04-02T09:05:55Z</time>
      </trkpt>
      <trkpt lat="48.17977" lon="6.58235">
        <ele>413.98</ele>
        <time>2017-04-02T09:05:56Z</time>
      </trkpt>
      <trkpt lat="48.17976" lon="6.58231">
        <ele>413.98</ele>
        <time>2017-04-02T09:05:57Z</time>
      </trkpt>
      <trkpt lat="48.17976" lon="6.58227">
        <ele>413.98</ele>
        <time>2017-04-02T09:05:58Z</time>
      </trkpt>
      <trkpt lat="48.17975" lon="6.58224">
        <ele>414.47</ele>
        <time>2017-04-02T09:05:59Z</time>
      </trkpt>
      <trkpt lat="48.17974" lon="6.5822">
        <ele>414.47</ele>
        <time>2017-04-02T09:06:00Z</time>
      </trkpt>
      <trkpt lat="48.17973" lon="6.58217">
        <ele>413.98</ele>
        <time>2017-04-02T09:06:01Z</time>
      </trkpt>
      <trkpt lat="48.17971" lon="6.58214">
        <ele>414.47</ele>
        <time>2017-04-02T09:06:02Z</time>
      </trkpt>
      <trkpt lat="48.17959" lon="6.58187">
        <ele>414.95</ele>
        <time>2017-04-02T09:06:09Z</time>
      </trkpt>
      <trkpt lat="48.17953" lon="6.58164">
        <ele>414.95</ele>
        <time>2017-04-02T09:06:13Z</time>
      </trkpt>
      <trkpt lat="48.17951" lon="6.58159">
        <ele>414.95</ele>
        <time>2017-04-02T09:06:14Z</time>
      </trkpt>
      <trkpt lat="48.1795" lon="6.58154">
        <ele>414.95</ele>
        <time>2017-04-02T09:06:15Z</time>
      </trkpt>
      <trkpt lat="48.17948" lon="6.58148">
        <ele>414.95</ele>
        <time>2017-04-02T09:06:16Z</time>
      </trkpt>
      <trkpt lat="48.17947" lon="6.58143">
        <ele>414.95</ele>
        <time>2017-04-02T09:06:17Z</time>
      </trkpt>
      <trkpt lat="48.17945" lon="6.58138">
        <ele>414.95</ele>
        <time>2017-04-02T09:06:18Z</time>
      </trkpt>
      <trkpt lat="48.17943" lon="6.58132">
        <ele>414.95</ele>
        <time>2017-04-02T09:06:19Z</time>
      </trkpt>
      <trkpt lat="48.17938" lon="6.58121">
        <ele>414.95</ele>
        <time>2017-04-02T09:06:21Z</time>
      </trkpt>
      <trkpt lat="48.17936" lon="6.58115">
        <ele>414.95</ele>
        <time>2017-04-02T09:06:22Z</time>
      </trkpt>
      <trkpt lat="48.17933" lon="6.58111">
        <ele>414.95</ele>
        <time>2017-04-02T09:06:23Z</time>
      </trkpt>
      <trkpt lat="48.17931" lon="6.58106">
        <ele>414.47</ele>
        <time>2017-04-02T09:06:24Z</time>
      </trkpt>
      <trkpt lat="48.17929" lon="6.58101">
        <ele>415.43</ele>
        <time>2017-04-02T09:06:25Z</time>
      </trkpt>
      <trkpt lat="48.17927" lon="6.58097">
        <ele>415.43</ele>
        <time>2017-04-02T09:06:26Z</time>
      </trkpt>
      <trkpt lat="48.17925" lon="6.58093">
        <ele>415.43</ele>
        <time>2017-04-02T09:06:27Z</time>
      </trkpt>
      <trkpt lat="48.17923" lon="6.58089">
        <ele>414.95</ele>
        <time>2017-04-02T09:06:28Z</time>
      </trkpt>
      <trkpt lat="48.1792" lon="6.58086">
        <ele>414.95</ele>
        <time>2017-04-02T09:06:29Z</time>
      </trkpt>
      <trkpt lat="48.17913" lon="6.58077">
        <ele>414.95</ele>
        <time>2017-04-02T09:06:32Z</time>
      </trkpt>
      <trkpt lat="48.17914" lon="6.58074">
        <ele>414.95</ele>
        <time>2017-04-02T09:06:33Z</time>
      </trkpt>
      <trkpt lat="48.17917" lon="6.58063">
        <ele>414.95</ele>
        <time>2017-04-02T09:06:37Z</time>
      </trkpt>
      <trkpt lat="48.17919" lon="6.58062">
        <ele>414.95</ele>
        <time>2017-04-02T09:06:39Z</time>
      </trkpt>
      <trkpt lat="48.17906" lon="6.58018">
        <ele>415.43</ele>
        <time>2017-04-02T09:06:45Z</time>
      </trkpt>
      <trkpt lat="48.17903" lon="6.58007">
        <ele>415.91</ele>
        <time>2017-04-02T09:06:47Z</time>
      </trkpt>
      <trkpt lat="48.17886" lon="6.57962">
        <ele>415.91</ele>
        <time>2017-04-02T09:06:56Z</time>
      </trkpt>
      <trkpt lat="48.17853" lon="6.57958">
        <ele>415.91</ele>
        <time>2017-04-02T09:07:05Z</time>
      </trkpt>
      <trkpt lat="48.17819" lon="6.57944">
        <ele>414.95</ele>
        <time>2017-04-02T09:07:15Z</time>
      </trkpt>
      <trkpt lat="48.17772" lon="6.57941">
        <ele>413.02</ele>
        <time>2017-04-02T09:07:27Z</time>
      </trkpt>
      <trkpt lat="48.17768" lon="6.57941">
        <ele>413.02</ele>
        <time>2017-04-02T09:07:28Z</time>
      </trkpt>
      <trkpt lat="48.17763" lon="6.57941">
        <ele>412.54</ele>
        <time>2017-04-02T09:07:29Z</time>
      </trkpt>
      <trkpt lat="48.17758" lon="6.57942">
        <ele>412.54</ele>
        <time>2017-04-02T09:07:30Z</time>
      </trkpt>
      <trkpt lat="48.17753" lon="6.57942">
        <ele>412.06</ele>
        <time>2017-04-02T09:07:31Z</time>
      </trkpt>
      <trkpt lat="48.17748" lon="6.57942">
        <ele>412.06</ele>
        <time>2017-04-02T09:07:32Z</time>
      </trkpt>
      <trkpt lat="48.17724" lon="6.57941">
        <ele>411.58</ele>
        <time>2017-04-02T09:07:37Z</time>
      </trkpt>
      <trkpt lat="48.17719" lon="6.5794">
        <ele>411.58</ele>
        <time>2017-04-02T09:07:38Z</time>
      </trkpt>
      <trkpt lat="48.17715" lon="6.5794">
        <ele>411.58</ele>
        <time>2017-04-02T09:07:39Z</time>
      </trkpt>
      <trkpt lat="48.17683" lon="6.57937">
        <ele>410.62</ele>
        <time>2017-04-02T09:07:47Z</time>
      </trkpt>
      <trkpt lat="48.17678" lon="6.57936">
        <ele>409.66</ele>
        <time>2017-04-02T09:07:48Z</time>
      </trkpt>
      <trkpt lat="48.17657" lon="6.57944">
        <ele>410.14</ele>
        <time>2017-04-02T09:07:55Z</time>
      </trkpt>
      <trkpt lat="48.17655" lon="6.57945">
        <ele>410.14</ele>
        <time>2017-04-02T09:07:56Z</time>
      </trkpt>
      <trkpt lat="48.17653" lon="6.57947">
        <ele>410.14</ele>
        <time>2017-04-02T09:07:57Z</time>
      </trkpt>
      <trkpt lat="48.17651" lon="6.57949">
        <ele>410.14</ele>
        <time>2017-04-02T09:07:58Z</time>
      </trkpt>
      <trkpt lat="48.17647" lon="6.57951">
        <ele>410.14</ele>
        <time>2017-04-02T09:07:59Z</time>
      </trkpt>
      <trkpt lat="48.17644" lon="6.57953">
        <ele>410.62</ele>
        <time>2017-04-02T09:08:00Z</time>
      </trkpt>
      <trkpt lat="48.1764" lon="6.57956">
        <ele>410.14</ele>
        <time>2017-04-02T09:08:01Z</time>
      </trkpt>
      <trkpt lat="48.17606" lon="6.57955">
        <ele>409.66</ele>
        <time>2017-04-02T09:08:11Z</time>
      </trkpt>
      <trkpt lat="48.17602" lon="6.57955">
        <ele>409.66</ele>
        <time>2017-04-02T09:08:12Z</time>
      </trkpt>
      <trkpt lat="48.17597" lon="6.57955">
        <ele>409.66</ele>
        <time>2017-04-02T09:08:13Z</time>
      </trkpt>
      <trkpt lat="48.17592" lon="6.57955">
        <ele>409.66</ele>
        <time>2017-04-02T09:08:14Z</time>
      </trkpt>
      <trkpt lat="48.17589" lon="6.57955">
        <ele>409.66</ele>
        <time>2017-04-02T09:08:15Z</time>
      </trkpt>
      <trkpt lat="48.17573" lon="6.57955">
        <ele>409.18</ele>
        <time>2017-04-02T09:08:19Z</time>
      </trkpt>
      <trkpt lat="48.17534" lon="6.57942">
        <ele>408.22</ele>
        <time>2017-04-02T09:08:29Z</time>
      </trkpt>
      <trkpt lat="48.17532" lon="6.57941">
        <ele>408.22</ele>
        <time>2017-04-02T09:08:30Z</time>
      </trkpt>
      <trkpt lat="48.17532" lon="6.57939">
        <ele>408.22</ele>
        <time>2017-04-02T09:08:31Z</time>
      </trkpt>
      <trkpt lat="48.17532" lon="6.57933">
        <ele>407.74</ele>
        <time>2017-04-02T09:08:34Z</time>
      </trkpt>
      <trkpt lat="48.17551" lon="6.5792">
        <ele>407.26</ele>
        <time>2017-04-02T09:08:39Z</time>
      </trkpt>
      <trkpt lat="48.17554" lon="6.57918">
        <ele>407.26</ele>
        <time>2017-04-02T09:08:40Z</time>
      </trkpt>
      <trkpt lat="48.17556" lon="6.57917">
        <ele>407.26</ele>
        <time>2017-04-02T09:08:41Z</time>
      </trkpt>
      <trkpt lat="48.17559" lon="6.57914">
        <ele>407.26</ele>
        <time>2017-04-02T09:08:42Z</time>
      </trkpt>
      <trkpt lat="48.17562" lon="6.5791">
        <ele>407.26</ele>
        <time>2017-04-02T09:08:43Z</time>
      </trkpt>
      <trkpt lat="48.17566" lon="6.57906">
        <ele>406.29</ele>
        <time>2017-04-02T09:08:44Z</time>
      </trkpt>
      <trkpt lat="48.17586" lon="6.57884">
        <ele>405.81</ele>
        <time>2017-04-02T09:08:51Z</time>
      </trkpt>
      <trkpt lat="48.1759" lon="6.57878">
        <ele>404.85</ele>
        <time>2017-04-02T09:08:52Z</time>
      </trkpt>
      <trkpt lat="48.17593" lon="6.57873">
        <ele>404.85</ele>
        <time>2017-04-02T09:08:53Z</time>
      </trkpt>
      <trkpt lat="48.17602" lon="6.5786">
        <ele>403.89</ele>
        <time>2017-04-02T09:08:55Z</time>
      </trkpt>
      <trkpt lat="48.17622" lon="6.57831">
        <ele>400.53</ele>
        <time>2017-04-02T09:08:59Z</time>
      </trkpt>
      <trkpt lat="48.17634" lon="6.57813">
        <ele>399.57</ele>
        <time>2017-04-02T09:09:01Z</time>
      </trkpt>
      <trkpt lat="48.17646" lon="6.57797">
        <ele>398.12</ele>
        <time>2017-04-02T09:09:03Z</time>
      </trkpt>
      <trkpt lat="48.17656" lon="6.57784">
        <ele>397.16</ele>
        <time>2017-04-02T09:09:05Z</time>
      </trkpt>
      <trkpt lat="48.17671" lon="6.57761">
        <ele>394.28</ele>
        <time>2017-04-02T09:09:08Z</time>
      </trkpt>
      <trkpt lat="48.17676" lon="6.57753">
        <ele>393.32</ele>
        <time>2017-04-02T09:09:09Z</time>
      </trkpt>
      <trkpt lat="48.17681" lon="6.57747">
        <ele>392.36</ele>
        <time>2017-04-02T09:09:10Z</time>
      </trkpt>
      <trkpt lat="48.17694" lon="6.57735">
        <ele>390.43</ele>
        <time>2017-04-02T09:09:12Z</time>
      </trkpt>
      <trkpt lat="48.17711" lon="6.5772">
        <ele>387.55</ele>
        <time>2017-04-02T09:09:15Z</time>
      </trkpt>
      <trkpt lat="48.17717" lon="6.57715">
        <ele>387.55</ele>
        <time>2017-04-02T09:09:16Z</time>
      </trkpt>
      <trkpt lat="48.1774" lon="6.57694">
        <ele>384.18</ele>
        <time>2017-04-02T09:09:19Z</time>
      </trkpt>
      <trkpt lat="48.17804" lon="6.57659">
        <ele>381.78</ele>
        <time>2017-04-02T09:09:27Z</time>
      </trkpt>
      <trkpt lat="48.17812" lon="6.57658">
        <ele>381.3</ele>
        <time>2017-04-02T09:09:28Z</time>
      </trkpt>
      <trkpt lat="48.1782" lon="6.57657">
        <ele>381.3</ele>
        <time>2017-04-02T09:09:29Z</time>
      </trkpt>
      <trkpt lat="48.17829" lon="6.57658">
        <ele>380.82</ele>
        <time>2017-04-02T09:09:30Z</time>
      </trkpt>
      <trkpt lat="48.17837" lon="6.57659">
        <ele>380.82</ele>
        <time>2017-04-02T09:09:31Z</time>
      </trkpt>
      <trkpt lat="48.17846" lon="6.57661">
        <ele>380.82</ele>
        <time>2017-04-02T09:09:32Z</time>
      </trkpt>
      <trkpt lat="48.17877" lon="6.57666">
        <ele>379.38</ele>
        <time>2017-04-02T09:09:36Z</time>
      </trkpt>
      <trkpt lat="48.17884" lon="6.57663">
        <ele>379.86</ele>
        <time>2017-04-02T09:09:37Z</time>
      </trkpt>
      <trkpt lat="48.1789" lon="6.57659">
        <ele>379.38</ele>
        <time>2017-04-02T09:09:38Z</time>
      </trkpt>
      <trkpt lat="48.17893" lon="6.57652">
        <ele>379.38</ele>
        <time>2017-04-02T09:09:39Z</time>
      </trkpt>
      <trkpt lat="48.17896" lon="6.57644">
        <ele>379.38</ele>
        <time>2017-04-02T09:09:40Z</time>
      </trkpt>
      <trkpt lat="48.17899" lon="6.57636">
        <ele>379.38</ele>
        <time>2017-04-02T09:09:41Z</time>
      </trkpt>
      <trkpt lat="48.17901" lon="6.57627">
        <ele>378.9</ele>
        <time>2017-04-02T09:09:42Z</time>
      </trkpt>
      <trkpt lat="48.17902" lon="6.57618">
        <ele>378.9</ele>
        <time>2017-04-02T09:09:43Z</time>
      </trkpt>
      <trkpt lat="48.17901" lon="6.57608">
        <ele>378.9</ele>
        <time>2017-04-02T09:09:44Z</time>
      </trkpt>
      <trkpt lat="48.179" lon="6.57597">
        <ele>378.42</ele>
        <time>2017-04-02T09:09:45Z</time>
      </trkpt>
      <trkpt lat="48.17898" lon="6.57586">
        <ele>378.42</ele>
        <time>2017-04-02T09:09:46Z</time>
      </trkpt>
      <trkpt lat="48.17898" lon="6.57575">
        <ele>377.94</ele>
        <time>2017-04-02T09:09:47Z</time>
      </trkpt>
      <trkpt lat="48.17901" lon="6.57565">
        <ele>377.94</ele>
        <time>2017-04-02T09:09:48Z</time>
      </trkpt>
      <trkpt lat="48.17905" lon="6.57558">
        <ele>378.42</ele>
        <time>2017-04-02T09:09:49Z</time>
      </trkpt>
      <trkpt lat="48.1791" lon="6.57553">
        <ele>378.9</ele>
        <time>2017-04-02T09:09:50Z</time>
      </trkpt>
      <trkpt lat="48.17915" lon="6.5755">
        <ele>378.9</ele>
        <time>2017-04-02T09:09:51Z</time>
      </trkpt>
      <trkpt lat="48.1792" lon="6.57548">
        <ele>379.38</ele>
        <time>2017-04-02T09:09:52Z</time>
      </trkpt>
      <trkpt lat="48.17925" lon="6.57548">
        <ele>380.34</ele>
        <time>2017-04-02T09:09:53Z</time>
      </trkpt>
      <trkpt lat="48.1793" lon="6.57549">
        <ele>380.34</ele>
        <time>2017-04-02T09:09:54Z</time>
      </trkpt>
      <trkpt lat="48.17935" lon="6.57551">
        <ele>381.3</ele>
        <time>2017-04-02T09:09:55Z</time>
      </trkpt>
      <trkpt lat="48.17939" lon="6.57553">
        <ele>381.3</ele>
        <time>2017-04-02T09:09:56Z</time>
      </trkpt>
      <trkpt lat="48.17942" lon="6.57555">
        <ele>382.26</ele>
        <time>2017-04-02T09:09:57Z</time>
      </trkpt>
      <trkpt lat="48.17946" lon="6.57558">
        <ele>382.74</ele>
        <time>2017-04-02T09:09:58Z</time>
      </trkpt>
      <trkpt lat="48.1795" lon="6.5756">
        <ele>382.74</ele>
        <time>2017-04-02T09:09:59Z</time>
      </trkpt>
      <trkpt lat="48.17968" lon="6.57571">
        <ele>385.63</ele>
        <time>2017-04-02T09:10:06Z</time>
      </trkpt>
      <trkpt lat="48.1797" lon="6.57572">
        <ele>386.11</ele>
        <time>2017-04-02T09:10:08Z</time>
      </trkpt>
      <trkpt lat="48.17972" lon="6.57571">
        <ele>386.59</ele>
        <time>2017-04-02T09:10:09Z</time>
      </trkpt>
      <trkpt lat="48.17974" lon="6.57568">
        <ele>386.59</ele>
        <time>2017-04-02T09:10:10Z</time>
      </trkpt>
      <trkpt lat="48.17976" lon="6.57565">
        <ele>386.59</ele>
        <time>2017-04-02T09:10:11Z</time>
      </trkpt>
      <trkpt lat="48.17978" lon="6.57562">
        <ele>387.55</ele>
        <time>2017-04-02T09:10:12Z</time>
      </trkpt>
      <trkpt lat="48.17979" lon="6.5756">
        <ele>387.07</ele>
        <time>2017-04-02T09:10:13Z</time>
      </trkpt>
      <trkpt lat="48.1798" lon="6.57558">
        <ele>387.55</ele>
        <time>2017-04-02T09:10:14Z</time>
      </trkpt>
      <trkpt lat="48.17982" lon="6.57556">
        <ele>388.03</ele>
        <time>2017-04-02T09:10:15Z</time>
      </trkpt>
      <trkpt lat="48.17983" lon="6.57553">
        <ele>388.03</ele>
        <time>2017-04-02T09:10:16Z</time>
      </trkpt>
      <trkpt lat="48.17984" lon="6.57551">
        <ele>388.03</ele>
        <time>2017-04-02T09:10:17Z</time>
      </trkpt>
      <trkpt lat="48.17985" lon="6.57548">
        <ele>388.51</ele>
        <time>2017-04-02T09:10:18Z</time>
      </trkpt>
      <trkpt lat="48.17985" lon="6.57546">
        <ele>388.51</ele>
        <time>2017-04-02T09:10:19Z</time>
      </trkpt>
      <trkpt lat="48.17985" lon="6.57542">
        <ele>388.99</ele>
        <time>2017-04-02T09:10:20Z</time>
      </trkpt>
      <trkpt lat="48.17985" lon="6.57539">
        <ele>388.99</ele>
        <time>2017-04-02T09:10:21Z</time>
      </trkpt>
      <trkpt lat="48.17981" lon="6.57515">
        <ele>390.43</ele>
        <time>2017-04-02T09:10:31Z</time>
      </trkpt>
      <trkpt lat="48.17976" lon="6.57497">
        <ele>391.87</ele>
        <time>2017-04-02T09:10:39Z</time>
      </trkpt>
      <trkpt lat="48.17976" lon="6.57494">
        <ele>391.87</ele>
        <time>2017-04-02T09:10:40Z</time>
      </trkpt>
      <trkpt lat="48.17976" lon="6.57491">
        <ele>392.36</ele>
        <time>2017-04-02T09:10:41Z</time>
      </trkpt>
      <trkpt lat="48.17975" lon="6.57488">
        <ele>392.36</ele>
        <time>2017-04-02T09:10:42Z</time>
      </trkpt>
      <trkpt lat="48.17975" lon="6.57486">
        <ele>392.84</ele>
        <time>2017-04-02T09:10:43Z</time>
      </trkpt>
      <trkpt lat="48.17974" lon="6.57484">
        <ele>392.84</ele>
        <time>2017-04-02T09:10:44Z</time>
      </trkpt>
      <trkpt lat="48.17974" lon="6.57481">
        <ele>392.84</ele>
        <time>2017-04-02T09:10:45Z</time>
      </trkpt>
      <trkpt lat="48.1797" lon="6.57469">
        <ele>393.8</ele>
        <time>2017-04-02T09:10:50Z</time>
      </trkpt>
      <trkpt lat="48.17969" lon="6.57467">
        <ele>394.28</ele>
        <time>2017-04-02T09:10:51Z</time>
      </trkpt>
      <trkpt lat="48.17968" lon="6.57464">
        <ele>393.8</ele>
        <time>2017-04-02T09:10:52Z</time>
      </trkpt>
      <trkpt lat="48.17954" lon="6.5743">
        <ele>396.68</ele>
        <time>2017-04-02T09:11:07Z</time>
      </trkpt>
      <trkpt lat="48.17948" lon="6.57414">
        <ele>397.64</ele>
        <time>2017-04-02T09:11:16Z</time>
      </trkpt>
      <trkpt lat="48.17947" lon="6.57412">
        <ele>398.12</ele>
        <time>2017-04-02T09:11:17Z</time>
      </trkpt>
      <trkpt lat="48.17946" lon="6.57411">
        <ele>398.12</ele>
        <time>2017-04-02T09:11:18Z</time>
      </trkpt>
      <trkpt lat="48.17946" lon="6.57409">
        <ele>398.12</ele>
        <time>2017-04-02T09:11:19Z</time>
      </trkpt>
      <trkpt lat="48.17945" lon="6.57406">
        <ele>398.12</ele>
        <time>2017-04-02T09:11:20Z</time>
      </trkpt>
      <trkpt lat="48.17944" lon="6.57404">
        <ele>398.6</ele>
        <time>2017-04-02T09:11:21Z</time>
      </trkpt>
      <trkpt lat="48.17944" lon="6.57402">
        <ele>399.08</ele>
        <time>2017-04-02T09:11:22Z</time>
      </trkpt>
      <trkpt lat="48.17943" lon="6.57399">
        <ele>399.08</ele>
        <time>2017-04-02T09:11:23Z</time>
      </trkpt>
      <trkpt lat="48.17939" lon="6.57369">
        <ele>401.49</ele>
        <time>2017-04-02T09:11:35Z</time>
      </trkpt>
      <trkpt lat="48.1794" lon="6.57367">
        <ele>401.49</ele>
        <time>2017-04-02T09:11:36Z</time>
      </trkpt>
      <trkpt lat="48.1794" lon="6.57337">
        <ele>403.41</ele>
        <time>2017-04-02T09:11:46Z</time>
      </trkpt>
      <trkpt lat="48.1794" lon="6.57333">
        <ele>403.89</ele>
        <time>2017-04-02T09:11:47Z</time>
      </trkpt>
      <trkpt lat="48.1794" lon="6.57331">
        <ele>403.41</ele>
        <time>2017-04-02T09:11:48Z</time>
      </trkpt>
      <trkpt lat="48.1794" lon="6.57328">
        <ele>403.89</ele>
        <time>2017-04-02T09:11:49Z</time>
      </trkpt>
      <trkpt lat="48.1794" lon="6.57324">
        <ele>403.89</ele>
        <time>2017-04-02T09:11:50Z</time>
      </trkpt>
      <trkpt lat="48.1794" lon="6.57321">
        <ele>403.89</ele>
        <time>2017-04-02T09:11:51Z</time>
      </trkpt>
      <trkpt lat="48.1794" lon="6.57284">
        <ele>406.29</ele>
        <time>2017-04-02T09:12:04Z</time>
      </trkpt>
      <trkpt lat="48.1795" lon="6.57254">
        <ele>408.22</ele>
        <time>2017-04-02T09:12:16Z</time>
      </trkpt>
      <trkpt lat="48.1796" lon="6.57241">
        <ele>409.18</ele>
        <time>2017-04-02T09:12:23Z</time>
      </trkpt>
      <trkpt lat="48.17961" lon="6.57239">
        <ele>409.18</ele>
        <time>2017-04-02T09:12:24Z</time>
      </trkpt>
      <trkpt lat="48.17963" lon="6.57238">
        <ele>409.18</ele>
        <time>2017-04-02T09:12:25Z</time>
      </trkpt>
      <trkpt lat="48.17964" lon="6.57236">
        <ele>409.66</ele>
        <time>2017-04-02T09:12:26Z</time>
      </trkpt>
      <trkpt lat="48.17965" lon="6.57233">
        <ele>409.18</ele>
        <time>2017-04-02T09:12:27Z</time>
      </trkpt>
      <trkpt lat="48.17967" lon="6.57231">
        <ele>409.66</ele>
        <time>2017-04-02T09:12:28Z</time>
      </trkpt>
      <trkpt lat="48.17968" lon="6.5723">
        <ele>410.62</ele>
        <time>2017-04-02T09:12:29Z</time>
      </trkpt>
      <trkpt lat="48.1797" lon="6.57228">
        <ele>410.62</ele>
        <time>2017-04-02T09:12:30Z</time>
      </trkpt>
      <trkpt lat="48.17971" lon="6.57226">
        <ele>410.62</ele>
        <time>2017-04-02T09:12:31Z</time>
      </trkpt>
      <trkpt lat="48.17973" lon="6.57224">
        <ele>410.62</ele>
        <time>2017-04-02T09:12:32Z</time>
      </trkpt>
      <trkpt lat="48.17992" lon="6.57195">
        <ele>411.1</ele>
        <time>2017-04-02T09:12:43Z</time>
      </trkpt>
      <trkpt lat="48.17999" lon="6.57182">
        <ele>411.58</ele>
        <time>2017-04-02T09:12:47Z</time>
      </trkpt>
      <trkpt lat="48.18" lon="6.57178">
        <ele>411.58</ele>
        <time>2017-04-02T09:12:48Z</time>
      </trkpt>
      <trkpt lat="48.1801" lon="6.57126">
        <ele>411.58</ele>
        <time>2017-04-02T09:13:00Z</time>
      </trkpt>
      <trkpt lat="48.18011" lon="6.5712">
        <ele>411.58</ele>
        <time>2017-04-02T09:13:01Z</time>
      </trkpt>
      <trkpt lat="48.18012" lon="6.57115">
        <ele>411.58</ele>
        <time>2017-04-02T09:13:02Z</time>
      </trkpt>
      <trkpt lat="48.18015" lon="6.57091">
        <ele>411.1</ele>
        <time>2017-04-02T09:13:06Z</time>
      </trkpt>
      <trkpt lat="48.18016" lon="6.57084">
        <ele>410.62</ele>
        <time>2017-04-02T09:13:07Z</time>
      </trkpt>
      <trkpt lat="48.18017" lon="6.57077">
        <ele>410.62</ele>
        <time>2017-04-02T09:13:08Z</time>
      </trkpt>
      <trkpt lat="48.18021" lon="6.5705">
        <ele>410.14</ele>
        <time>2017-04-02T09:13:12Z</time>
      </trkpt>
      <trkpt lat="48.18021" lon="6.57043">
        <ele>409.66</ele>
        <time>2017-04-02T09:13:13Z</time>
      </trkpt>
      <trkpt lat="48.1802" lon="6.57037">
        <ele>409.66</ele>
        <time>2017-04-02T09:13:14Z</time>
      </trkpt>
      <trkpt lat="48.18017" lon="6.57031">
        <ele>410.14</ele>
        <time>2017-04-02T09:13:15Z</time>
      </trkpt>
      <trkpt lat="48.18014" lon="6.57025">
        <ele>409.66</ele>
        <time>2017-04-02T09:13:16Z</time>
      </trkpt>
      <trkpt lat="48.1801" lon="6.57019">
        <ele>409.66</ele>
        <time>2017-04-02T09:13:17Z</time>
      </trkpt>
      <trkpt lat="48.18006" lon="6.57015">
        <ele>409.66</ele>
        <time>2017-04-02T09:13:18Z</time>
      </trkpt>
      <trkpt lat="48.17998" lon="6.57007">
        <ele>410.14</ele>
        <time>2017-04-02T09:13:20Z</time>
      </trkpt>
      <trkpt lat="48.1799" lon="6.56997">
        <ele>410.62</ele>
        <time>2017-04-02T09:13:22Z</time>
      </trkpt>
      <trkpt lat="48.17978" lon="6.56975">
        <ele>411.1</ele>
        <time>2017-04-02T09:13:26Z</time>
      </trkpt>
      <trkpt lat="48.17975" lon="6.56968">
        <ele>411.58</ele>
        <time>2017-04-02T09:13:27Z</time>
      </trkpt>
      <trkpt lat="48.17971" lon="6.56955">
        <ele>411.58</ele>
        <time>2017-04-02T09:13:29Z</time>
      </trkpt>
      <trkpt lat="48.17959" lon="6.56924">
        <ele>413.02</ele>
        <time>2017-04-02T09:13:34Z</time>
      </trkpt>
      <trkpt lat="48.17957" lon="6.56919">
        <ele>412.54</ele>
        <time>2017-04-02T09:13:35Z</time>
      </trkpt>
      <trkpt lat="48.17955" lon="6.56913">
        <ele>412.54</ele>
        <time>2017-04-02T09:13:36Z</time>
      </trkpt>
      <trkpt lat="48.17952" lon="6.56907">
        <ele>413.02</ele>
        <time>2017-04-02T09:13:37Z</time>
      </trkpt>
      <trkpt lat="48.17949" lon="6.56903">
        <ele>413.5</ele>
        <time>2017-04-02T09:13:38Z</time>
      </trkpt>
      <trkpt lat="48.17946" lon="6.56898">
        <ele>413.5</ele>
        <time>2017-04-02T09:13:39Z</time>
      </trkpt>
      <trkpt lat="48.17944" lon="6.56893">
        <ele>413.5</ele>
        <time>2017-04-02T09:13:40Z</time>
      </trkpt>
      <trkpt lat="48.17941" lon="6.56888">
        <ele>413.02</ele>
        <time>2017-04-02T09:13:41Z</time>
      </trkpt>
      <trkpt lat="48.17936" lon="6.56877">
        <ele>413.5</ele>
        <time>2017-04-02T09:13:43Z</time>
      </trkpt>
      <trkpt lat="48.17917" lon="6.56822">
        <ele>412.54</ele>
        <time>2017-04-02T09:13:51Z</time>
      </trkpt>
      <trkpt lat="48.17904" lon="6.56793">
        <ele>411.58</ele>
        <time>2017-04-02T09:13:55Z</time>
      </trkpt>
      <trkpt lat="48.17901" lon="6.56785">
        <ele>411.1</ele>
        <time>2017-04-02T09:13:56Z</time>
      </trkpt>
      <trkpt lat="48.1786" lon="6.56685">
        <ele>408.7</ele>
        <time>2017-04-02T09:14:08Z</time>
      </trkpt>
      <trkpt lat="48.17855" lon="6.56677">
        <ele>407.74</ele>
        <time>2017-04-02T09:14:09Z</time>
      </trkpt>
      <trkpt lat="48.1785" lon="6.5667">
        <ele>407.74</ele>
        <time>2017-04-02T09:14:10Z</time>
      </trkpt>
      <trkpt lat="48.17838" lon="6.56657">
        <ele>407.26</ele>
        <time>2017-04-02T09:14:12Z</time>
      </trkpt>
      <trkpt lat="48.17832" lon="6.56653">
        <ele>407.26</ele>
        <time>2017-04-02T09:14:13Z</time>
      </trkpt>
      <trkpt lat="48.17826" lon="6.56653">
        <ele>407.26</ele>
        <time>2017-04-02T09:14:14Z</time>
      </trkpt>
      <trkpt lat="48.17819" lon="6.56656">
        <ele>407.74</ele>
        <time>2017-04-02T09:14:15Z</time>
      </trkpt>
      <trkpt lat="48.17813" lon="6.56662">
        <ele>407.74</ele>
        <time>2017-04-02T09:14:16Z</time>
      </trkpt>
      <trkpt lat="48.17807" lon="6.56667">
        <ele>408.22</ele>
        <time>2017-04-02T09:14:17Z</time>
      </trkpt>
      <trkpt lat="48.17801" lon="6.56673">
        <ele>408.7</ele>
        <time>2017-04-02T09:14:18Z</time>
      </trkpt>
      <trkpt lat="48.17796" lon="6.56679">
        <ele>409.18</ele>
        <time>2017-04-02T09:14:19Z</time>
      </trkpt>
      <trkpt lat="48.17785" lon="6.56694">
        <ele>411.1</ele>
        <time>2017-04-02T09:14:23Z</time>
      </trkpt>
      <trkpt lat="48.17781" lon="6.56699">
        <ele>412.54</ele>
        <time>2017-04-02T09:14:26Z</time>
      </trkpt>
      <trkpt lat="48.17771" lon="6.56712">
        <ele>413.98</ele>
        <time>2017-04-02T09:14:36Z</time>
      </trkpt>
      <trkpt lat="48.17758" lon="6.56724">
        <ele>414.95</ele>
        <time>2017-04-02T09:14:47Z</time>
      </trkpt>
      <trkpt lat="48.17753" lon="6.56725">
        <ele>414.95</ele>
        <time>2017-04-02T09:15:01Z</time>
      </trkpt>
      <trkpt lat="48.17737" lon="6.56727">
        <ele>414.95</ele>
        <time>2017-04-02T09:15:10Z</time>
      </trkpt>
      <trkpt lat="48.17706" lon="6.56709">
        <ele>414.47</ele>
        <time>2017-04-02T09:15:19Z</time>
      </trkpt>
      <trkpt lat="48.17702" lon="6.56706">
        <ele>413.98</ele>
        <time>2017-04-02T09:15:20Z</time>
      </trkpt>
      <trkpt lat="48.17698" lon="6.56703">
        <ele>413.98</ele>
        <time>2017-04-02T09:15:21Z</time>
      </trkpt>
      <trkpt lat="48.17673" lon="6.5668">
        <ele>413.02</ele>
        <time>2017-04-02T09:15:27Z</time>
      </trkpt>
      <trkpt lat="48.17667" lon="6.56669">
        <ele>412.54</ele>
        <time>2017-04-02T09:15:29Z</time>
      </trkpt>
      <trkpt lat="48.17639" lon="6.56621">
        <ele>413.5</ele>
        <time>2017-04-02T09:15:38Z</time>
      </trkpt>
      <trkpt lat="48.17616" lon="6.56597">
        <ele>414.47</ele>
        <time>2017-04-02T09:15:45Z</time>
      </trkpt>
      <trkpt lat="48.17586" lon="6.56574">
        <ele>413.98</ele>
        <time>2017-04-02T09:15:53Z</time>
      </trkpt>
      <trkpt lat="48.17578" lon="6.56568">
        <ele>414.47</ele>
        <time>2017-04-02T09:15:55Z</time>
      </trkpt>
      <trkpt lat="48.17567" lon="6.56555">
        <ele>414.47</ele>
        <time>2017-04-02T09:15:57Z</time>
      </trkpt>
      <trkpt lat="48.17562" lon="6.56551">
        <ele>414.95</ele>
        <time>2017-04-02T09:15:58Z</time>
      </trkpt>
      <trkpt lat="48.17558" lon="6.56546">
        <ele>414.47</ele>
        <time>2017-04-02T09:15:59Z</time>
      </trkpt>
      <trkpt lat="48.17554" lon="6.56541">
        <ele>415.43</ele>
        <time>2017-04-02T09:16:00Z</time>
      </trkpt>
      <trkpt lat="48.17549" lon="6.56536">
        <ele>415.43</ele>
        <time>2017-04-02T09:16:01Z</time>
      </trkpt>
      <trkpt lat="48.17545" lon="6.56532">
        <ele>415.91</ele>
        <time>2017-04-02T09:16:02Z</time>
      </trkpt>
      <trkpt lat="48.17537" lon="6.56523">
        <ele>415.91</ele>
        <time>2017-04-02T09:16:04Z</time>
      </trkpt>
      <trkpt lat="48.17529" lon="6.56515">
        <ele>415.91</ele>
        <time>2017-04-02T09:16:06Z</time>
      </trkpt>
      <trkpt lat="48.17525" lon="6.56511">
        <ele>415.91</ele>
        <time>2017-04-02T09:16:07Z</time>
      </trkpt>
      <trkpt lat="48.17518" lon="6.56502">
        <ele>416.39</ele>
        <time>2017-04-02T09:16:09Z</time>
      </trkpt>
      <trkpt lat="48.1751" lon="6.56494">
        <ele>415.91</ele>
        <time>2017-04-02T09:16:11Z</time>
      </trkpt>
      <trkpt lat="48.17492" lon="6.56476">
        <ele>416.39</ele>
        <time>2017-04-02T09:16:16Z</time>
      </trkpt>
      <trkpt lat="48.17488" lon="6.56473">
        <ele>416.87</ele>
        <time>2017-04-02T09:16:17Z</time>
      </trkpt>
      <trkpt lat="48.17475" lon="6.56461">
        <ele>416.39</ele>
        <time>2017-04-02T09:16:20Z</time>
      </trkpt>
      <trkpt lat="48.17471" lon="6.56456">
        <ele>416.87</ele>
        <time>2017-04-02T09:16:21Z</time>
      </trkpt>
      <trkpt lat="48.17468" lon="6.56452">
        <ele>417.35</ele>
        <time>2017-04-02T09:16:22Z</time>
      </trkpt>
      <trkpt lat="48.17465" lon="6.56449">
        <ele>417.35</ele>
        <time>2017-04-02T09:16:23Z</time>
      </trkpt>
      <trkpt lat="48.17461" lon="6.56445">
        <ele>417.83</ele>
        <time>2017-04-02T09:16:24Z</time>
      </trkpt>
      <trkpt lat="48.17458" lon="6.56443">
        <ele>417.83</ele>
        <time>2017-04-02T09:16:25Z</time>
      </trkpt>
      <trkpt lat="48.17455" lon="6.56441">
        <ele>418.31</ele>
        <time>2017-04-02T09:16:26Z</time>
      </trkpt>
      <trkpt lat="48.17452" lon="6.56438">
        <ele>418.31</ele>
        <time>2017-04-02T09:16:27Z</time>
      </trkpt>
      <trkpt lat="48.1745" lon="6.56436">
        <ele>418.31</ele>
        <time>2017-04-02T09:16:28Z</time>
      </trkpt>
      <trkpt lat="48.17447" lon="6.56433">
        <ele>418.79</ele>
        <time>2017-04-02T09:16:29Z</time>
      </trkpt>
      <trkpt lat="48.17445" lon="6.56431">
        <ele>418.79</ele>
        <time>2017-04-02T09:16:30Z</time>
      </trkpt>
      <trkpt lat="48.17443" lon="6.56428">
        <ele>418.79</ele>
        <time>2017-04-02T09:16:31Z</time>
      </trkpt>
      <trkpt lat="48.17426" lon="6.56409">
        <ele>420.23</ele>
        <time>2017-04-02T09:16:40Z</time>
      </trkpt>
      <trkpt lat="48.17404" lon="6.56391">
        <ele>420.71</ele>
        <time>2017-04-02T09:16:50Z</time>
      </trkpt>
      <trkpt lat="48.17404" lon="6.56389">
        <ele>420.23</ele>
        <time>2017-04-02T09:16:51Z</time>
      </trkpt>
      <trkpt lat="48.17403" lon="6.56387">
        <ele>420.71</ele>
        <time>2017-04-02T09:16:52Z</time>
      </trkpt>
      <trkpt lat="48.17402" lon="6.56385">
        <ele>420.71</ele>
        <time>2017-04-02T09:16:53Z</time>
      </trkpt>
      <trkpt lat="48.17401" lon="6.56383">
        <ele>420.71</ele>
        <time>2017-04-02T09:16:54Z</time>
      </trkpt>
      <trkpt lat="48.17398" lon="6.56381">
        <ele>420.71</ele>
        <time>2017-04-02T09:16:55Z</time>
      </trkpt>
      <trkpt lat="48.17396" lon="6.56379">
        <ele>421.19</ele>
        <time>2017-04-02T09:16:56Z</time>
      </trkpt>
      <trkpt lat="48.17391" lon="6.56375">
        <ele>420.71</ele>
        <time>2017-04-02T09:17:00Z</time>
      </trkpt>
      <trkpt lat="48.17387" lon="6.56377">
        <ele>421.19</ele>
        <time>2017-04-02T09:17:11Z</time>
      </trkpt>
      <trkpt lat="48.17386" lon="6.5638">
        <ele>420.71</ele>
        <time>2017-04-02T09:17:36Z</time>
      </trkpt>
      <trkpt lat="48.17386" lon="6.56378">
        <ele>421.19</ele>
        <time>2017-04-02T09:17:56Z</time>
      </trkpt>
      <trkpt lat="48.17387" lon="6.56377">
        <ele>421.19</ele>
        <time>2017-04-02T09:18:24Z</time>
      </trkpt>
      <trkpt lat="48.17384" lon="6.56376">
        <ele>421.19</ele>
        <time>2017-04-02T09:18:48Z</time>
      </trkpt>
      <trkpt lat="48.17382" lon="6.56375">
        <ele>421.68</ele>
        <time>2017-04-02T09:19:08Z</time>
      </trkpt>
      <trkpt lat="48.17379" lon="6.56373">
        <ele>421.19</ele>
        <time>2017-04-02T09:19:34Z</time>
      </trkpt>
      <trkpt lat="48.17378" lon="6.56368">
        <ele>421.68</ele>
        <time>2017-04-02T09:20:03Z</time>
      </trkpt>
      <trkpt lat="48.17378" lon="6.56368">
        <ele>421.68</ele>
        <time>2017-04-02T09:20:23Z</time>
      </trkpt>
      <trkpt lat="48.17377" lon="6.56368">
        <ele>421.68</ele>
        <time>2017-04-02T09:20:50Z</time>
      </trkpt>
      <trkpt lat="48.17378" lon="6.56368">
        <ele>421.68</ele>
        <time>2017-04-02T09:21:15Z</time>
      </trkpt>
      <trkpt lat="48.1738" lon="6.56368">
        <ele>422.16</ele>
        <time>2017-04-02T09:21:34Z</time>
      </trkpt>
      <trkpt lat="48.17382" lon="6.56369">
        <ele>422.16</ele>
        <time>2017-04-02T09:21:59Z</time>
      </trkpt>
      <trkpt lat="48.17382" lon="6.5637">
        <ele>422.16</ele>
        <time>2017-04-02T09:22:29Z</time>
      </trkpt>
      <trkpt lat="48.1738" lon="6.5637">
        <ele>422.64</ele>
        <time>2017-04-02T09:22:58Z</time>
      </trkpt>
      <trkpt lat="48.17381" lon="6.56371">
        <ele>423.12</ele>
        <time>2017-04-02T09:23:17Z</time>
      </trkpt>
      <trkpt lat="48.1738" lon="6.56372">
        <ele>422.64</ele>
        <time>2017-04-02T09:23:18Z</time>
      </trkpt>
      <trkpt lat="48.17379" lon="6.56373">
        <ele>422.64</ele>
        <time>2017-04-02T09:23:19Z</time>
      </trkpt>
      <trkpt lat="48.17378" lon="6.56375">
        <ele>423.12</ele>
        <time>2017-04-02T09:23:20Z</time>
      </trkpt>
      <trkpt lat="48.17377" lon="6.56377">
        <ele>422.64</ele>
        <time>2017-04-02T09:23:21Z</time>
      </trkpt>
      <trkpt lat="48.17377" lon="6.56379">
        <ele>422.64</ele>
        <time>2017-04-02T09:23:22Z</time>
      </trkpt>
      <trkpt lat="48.17376" lon="6.56381">
        <ele>422.64</ele>
        <time>2017-04-02T09:23:23Z</time>
      </trkpt>
      <trkpt lat="48.17375" lon="6.56384">
        <ele>422.64</ele>
        <time>2017-04-02T09:23:24Z</time>
      </trkpt>
      <trkpt lat="48.17375" lon="6.56388">
        <ele>422.64</ele>
        <time>2017-04-02T09:23:25Z</time>
      </trkpt>
      <trkpt lat="48.17375" lon="6.56391">
        <ele>422.64</ele>
        <time>2017-04-02T09:23:26Z</time>
      </trkpt>
      <trkpt lat="48.17374" lon="6.56394">
        <ele>422.64</ele>
        <time>2017-04-02T09:23:27Z</time>
      </trkpt>
      <trkpt lat="48.17374" lon="6.56397">
        <ele>422.64</ele>
        <time>2017-04-02T09:23:28Z</time>
      </trkpt>
      <trkpt lat="48.17373" lon="6.56401">
        <ele>422.64</ele>
        <time>2017-04-02T09:23:29Z</time>
      </trkpt>
      <trkpt lat="48.17366" lon="6.56434">
        <ele>422.16</ele>
        <time>2017-04-02T09:23:37Z</time>
      </trkpt>
      <trkpt lat="48.17364" lon="6.56441">
        <ele>422.16</ele>
        <time>2017-04-02T09:23:38Z</time>
      </trkpt>
      <trkpt lat="48.17362" lon="6.56447">
        <ele>422.16</ele>
        <time>2017-04-02T09:23:39Z</time>
      </trkpt>
      <trkpt lat="48.17358" lon="6.56458">
        <ele>421.68</ele>
        <time>2017-04-02T09:23:41Z</time>
      </trkpt>
      <trkpt lat="48.17343" lon="6.56487">
        <ele>420.71</ele>
        <time>2017-04-02T09:23:46Z</time>
      </trkpt>
      <trkpt lat="48.17335" lon="6.565">
        <ele>419.75</ele>
        <time>2017-04-02T09:23:48Z</time>
      </trkpt>
      <trkpt lat="48.17329" lon="6.56515">
        <ele>419.27</ele>
        <time>2017-04-02T09:23:50Z</time>
      </trkpt>
      <trkpt lat="48.17326" lon="6.56523">
        <ele>418.79</ele>
        <time>2017-04-02T09:23:51Z</time>
      </trkpt>
      <trkpt lat="48.17321" lon="6.56541">
        <ele>418.31</ele>
        <time>2017-04-02T09:23:53Z</time>
      </trkpt>
      <trkpt lat="48.17314" lon="6.56574">
        <ele>417.35</ele>
        <time>2017-04-02T09:23:57Z</time>
      </trkpt>
      <trkpt lat="48.1731" lon="6.5661">
        <ele>416.87</ele>
        <time>2017-04-02T09:24:01Z</time>
      </trkpt>
      <trkpt lat="48.1731" lon="6.56619">
        <ele>417.35</ele>
        <time>2017-04-02T09:24:02Z</time>
      </trkpt>
      <trkpt lat="48.17314" lon="6.56656">
        <ele>417.35</ele>
        <time>2017-04-02T09:24:06Z</time>
      </trkpt>
      <trkpt lat="48.17315" lon="6.56665">
        <ele>417.83</ele>
        <time>2017-04-02T09:24:07Z</time>
      </trkpt>
      <trkpt lat="48.17319" lon="6.56681">
        <ele>417.83</ele>
        <time>2017-04-02T09:24:09Z</time>
      </trkpt>
      <trkpt lat="48.17321" lon="6.56689">
        <ele>417.83</ele>
        <time>2017-04-02T09:24:10Z</time>
      </trkpt>
      <trkpt lat="48.17332" lon="6.56727">
        <ele>418.31</ele>
        <time>2017-04-02T09:24:15Z</time>
      </trkpt>
      <trkpt lat="48.17334" lon="6.56734">
        <ele>418.31</ele>
        <time>2017-04-02T09:24:16Z</time>
      </trkpt>
      <trkpt lat="48.17335" lon="6.56742">
        <ele>418.31</ele>
        <time>2017-04-02T09:24:17Z</time>
      </trkpt>
      <trkpt lat="48.17337" lon="6.56748">
        <ele>418.31</ele>
        <time>2017-04-02T09:24:18Z</time>
      </trkpt>
      <trkpt lat="48.17339" lon="6.56754">
        <ele>418.31</ele>
        <time>2017-04-02T09:24:19Z</time>
      </trkpt>
      <trkpt lat="48.17342" lon="6.56766">
        <ele>417.83</ele>
        <time>2017-04-02T09:24:22Z</time>
      </trkpt>
      <trkpt lat="48.17342" lon="6.56768">
        <ele>417.83</ele>
        <time>2017-04-02T09:24:23Z</time>
      </trkpt>
      <trkpt lat="48.17335" lon="6.56771">
        <ele>418.79</ele>
        <time>2017-04-02T09:24:27Z</time>
      </trkpt>
      <trkpt lat="48.17312" lon="6.56785">
        <ele>418.79</ele>
        <time>2017-04-02T09:24:37Z</time>
      </trkpt>
      <trkpt lat="48.17286" lon="6.56799">
        <ele>419.27</ele>
        <time>2017-04-02T09:24:46Z</time>
      </trkpt>
      <trkpt lat="48.17277" lon="6.56803">
        <ele>419.27</ele>
        <time>2017-04-02T09:24:50Z</time>
      </trkpt>
      <trkpt lat="48.17271" lon="6.56802">
        <ele>418.79</ele>
        <time>2017-04-02T09:24:53Z</time>
      </trkpt>
      <trkpt lat="48.17253" lon="6.56807">
        <ele>418.31</ele>
        <time>2017-04-02T09:24:59Z</time>
      </trkpt>
      <trkpt lat="48.17222" lon="6.5682">
        <ele>419.75</ele>
        <time>2017-04-02T09:25:08Z</time>
      </trkpt>
      <trkpt lat="48.17205" lon="6.56828">
        <ele>419.27</ele>
        <time>2017-04-02T09:25:13Z</time>
      </trkpt>
      <trkpt lat="48.17184" lon="6.56834">
        <ele>418.79</ele>
        <time>2017-04-02T09:25:18Z</time>
      </trkpt>
      <trkpt lat="48.17164" lon="6.56843">
        <ele>419.27</ele>
        <time>2017-04-02T09:25:22Z</time>
      </trkpt>
      <trkpt lat="48.17143" lon="6.56853">
        <ele>417.35</ele>
        <time>2017-04-02T09:25:28Z</time>
      </trkpt>
      <trkpt lat="48.17121" lon="6.56859">
        <ele>416.87</ele>
        <time>2017-04-02T09:25:36Z</time>
      </trkpt>
      <trkpt lat="48.1712" lon="6.56858">
        <ele>416.87</ele>
        <time>2017-04-02T09:25:37Z</time>
      </trkpt>
      <trkpt lat="48.17118" lon="6.56859">
        <ele>416.87</ele>
        <time>2017-04-02T09:25:39Z</time>
      </trkpt>
      <trkpt lat="48.17114" lon="6.56859">
        <ele>416.87</ele>
        <time>2017-04-02T09:25:42Z</time>
      </trkpt>
      <trkpt lat="48.17106" lon="6.56862">
        <ele>416.87</ele>
        <time>2017-04-02T09:25:51Z</time>
      </trkpt>
      <trkpt lat="48.17081" lon="6.56858">
        <ele>416.87</ele>
        <time>2017-04-02T09:25:59Z</time>
      </trkpt>
      <trkpt lat="48.17072" lon="6.56851">
        <ele>417.35</ele>
        <time>2017-04-02T09:26:02Z</time>
      </trkpt>
      <trkpt lat="48.17058" lon="6.56838">
        <ele>418.31</ele>
        <time>2017-04-02T09:26:07Z</time>
      </trkpt>
      <trkpt lat="48.17043" lon="6.56827">
        <ele>418.31</ele>
        <time>2017-04-02T09:26:12Z</time>
      </trkpt>
      <trkpt lat="48.17033" lon="6.56792">
        <ele>419.75</ele>
        <time>2017-04-02T09:26:18Z</time>
      </trkpt>
      <trkpt lat="48.17015" lon="6.56765">
        <ele>421.19</ele>
        <time>2017-04-02T09:26:26Z</time>
      </trkpt>
      <trkpt lat="48.16998" lon="6.56749">
        <ele>424.08</ele>
        <time>2017-04-02T09:26:37Z</time>
      </trkpt>
      <trkpt lat="48.16998" lon="6.56748">
        <ele>424.56</ele>
        <time>2017-04-02T09:26:38Z</time>
      </trkpt>
      <trkpt lat="48.16978" lon="6.5674">
        <ele>425.52</ele>
        <time>2017-04-02T09:26:48Z</time>
      </trkpt>
      <trkpt lat="48.16958" lon="6.56753">
        <ele>426.48</ele>
        <time>2017-04-02T09:26:59Z</time>
      </trkpt>
      <trkpt lat="48.16937" lon="6.56784">
        <ele>426.96</ele>
        <time>2017-04-02T09:27:11Z</time>
      </trkpt>
      <trkpt lat="48.16928" lon="6.56796">
        <ele>426</ele>
        <time>2017-04-02T09:27:14Z</time>
      </trkpt>
      <trkpt lat="48.16921" lon="6.56807">
        <ele>425.52</ele>
        <time>2017-04-02T09:27:16Z</time>
      </trkpt>
      <trkpt lat="48.16918" lon="6.56812">
        <ele>425.04</ele>
        <time>2017-04-02T09:27:17Z</time>
      </trkpt>
      <trkpt lat="48.16911" lon="6.56825">
        <ele>425.04</ele>
        <time>2017-04-02T09:27:19Z</time>
      </trkpt>
      <trkpt lat="48.16902" lon="6.5685">
        <ele>424.56</ele>
        <time>2017-04-02T09:27:23Z</time>
      </trkpt>
      <trkpt lat="48.16886" lon="6.56879">
        <ele>424.56</ele>
        <time>2017-04-02T09:27:28Z</time>
      </trkpt>
      <trkpt lat="48.16865" lon="6.56906">
        <ele>424.08</ele>
        <time>2017-04-02T09:27:34Z</time>
      </trkpt>
      <trkpt lat="48.1686" lon="6.56907">
        <ele>424.08</ele>
        <time>2017-04-02T09:27:35Z</time>
      </trkpt>
      <trkpt lat="48.16851" lon="6.56909">
        <ele>423.6</ele>
        <time>2017-04-02T09:27:37Z</time>
      </trkpt>
      <trkpt lat="48.16847" lon="6.5691">
        <ele>423.6</ele>
        <time>2017-04-02T09:27:38Z</time>
      </trkpt>
      <trkpt lat="48.16843" lon="6.56913">
        <ele>423.6</ele>
        <time>2017-04-02T09:27:39Z</time>
      </trkpt>
      <trkpt lat="48.1684" lon="6.56918">
        <ele>422.64</ele>
        <time>2017-04-02T09:27:40Z</time>
      </trkpt>
      <trkpt lat="48.16838" lon="6.56924">
        <ele>422.16</ele>
        <time>2017-04-02T09:27:41Z</time>
      </trkpt>
      <trkpt lat="48.16838" lon="6.5693">
        <ele>422.16</ele>
        <time>2017-04-02T09:27:42Z</time>
      </trkpt>
      <trkpt lat="48.16839" lon="6.56938">
        <ele>422.16</ele>
        <time>2017-04-02T09:27:43Z</time>
      </trkpt>
      <trkpt lat="48.16843" lon="6.56969">
        <ele>420.71</ele>
        <time>2017-04-02T09:27:47Z</time>
      </trkpt>
      <trkpt lat="48.16844" lon="6.56976">
        <ele>420.23</ele>
        <time>2017-04-02T09:27:48Z</time>
      </trkpt>
      <trkpt lat="48.16847" lon="6.56993">
        <ele>419.27</ele>
        <time>2017-04-02T09:27:50Z</time>
      </trkpt>
      <trkpt lat="48.16848" lon="6.57001">
        <ele>419.27</ele>
        <time>2017-04-02T09:27:51Z</time>
      </trkpt>
      <trkpt lat="48.16854" lon="6.57073">
        <ele>418.79</ele>
        <time>2017-04-02T09:27:59Z</time>
      </trkpt>
      <trkpt lat="48.16853" lon="6.57081">
        <ele>418.31</ele>
        <time>2017-04-02T09:28:00Z</time>
      </trkpt>
      <trkpt lat="48.1685" lon="6.57087">
        <ele>418.79</ele>
        <time>2017-04-02T09:28:01Z</time>
      </trkpt>
      <trkpt lat="48.16846" lon="6.57091">
        <ele>418.31</ele>
        <time>2017-04-02T09:28:02Z</time>
      </trkpt>
      <trkpt lat="48.16841" lon="6.57094">
        <ele>418.31</ele>
        <time>2017-04-02T09:28:03Z</time>
      </trkpt>
      <trkpt lat="48.16837" lon="6.57097">
        <ele>418.31</ele>
        <time>2017-04-02T09:28:04Z</time>
      </trkpt>
      <trkpt lat="48.16832" lon="6.57099">
        <ele>418.31</ele>
        <time>2017-04-02T09:28:05Z</time>
      </trkpt>
      <trkpt lat="48.16827" lon="6.57102">
        <ele>418.31</ele>
        <time>2017-04-02T09:28:06Z</time>
      </trkpt>
      <trkpt lat="48.16822" lon="6.57103">
        <ele>418.31</ele>
        <time>2017-04-02T09:28:07Z</time>
      </trkpt>
      <trkpt lat="48.16775" lon="6.57118">
        <ele>419.27</ele>
        <time>2017-04-02T09:28:19Z</time>
      </trkpt>
      <trkpt lat="48.16768" lon="6.57122">
        <ele>419.27</ele>
        <time>2017-04-02T09:28:21Z</time>
      </trkpt>
      <trkpt lat="48.16764" lon="6.57125">
        <ele>419.27</ele>
        <time>2017-04-02T09:28:22Z</time>
      </trkpt>
      <trkpt lat="48.1676" lon="6.57129">
        <ele>418.79</ele>
        <time>2017-04-02T09:28:23Z</time>
      </trkpt>
      <trkpt lat="48.16756" lon="6.57132">
        <ele>418.31</ele>
        <time>2017-04-02T09:28:24Z</time>
      </trkpt>
      <trkpt lat="48.16751" lon="6.57135">
        <ele>417.83</ele>
        <time>2017-04-02T09:28:25Z</time>
      </trkpt>
      <trkpt lat="48.16747" lon="6.57137">
        <ele>417.83</ele>
        <time>2017-04-02T09:28:26Z</time>
      </trkpt>
      <trkpt lat="48.16682" lon="6.57171">
        <ele>416.39</ele>
        <time>2017-04-02T09:28:40Z</time>
      </trkpt>
      <trkpt lat="48.16677" lon="6.57173">
        <ele>416.39</ele>
        <time>2017-04-02T09:28:41Z</time>
      </trkpt>
      <trkpt lat="48.16661" lon="6.57178">
        <ele>416.39</ele>
        <time>2017-04-02T09:28:44Z</time>
      </trkpt>
      <trkpt lat="48.16656" lon="6.57179">
        <ele>416.39</ele>
        <time>2017-04-02T09:28:45Z</time>
      </trkpt>
      <trkpt lat="48.16626" lon="6.57187">
        <ele>415.43</ele>
        <time>2017-04-02T09:28:50Z</time>
      </trkpt>
      <trkpt lat="48.16578" lon="6.57209">
        <ele>414.95</ele>
        <time>2017-04-02T09:28:59Z</time>
      </trkpt>
      <trkpt lat="48.16573" lon="6.57214">
        <ele>414.95</ele>
        <time>2017-04-02T09:29:00Z</time>
      </trkpt>
      <trkpt lat="48.16544" lon="6.57246">
        <ele>414.47</ele>
        <time>2017-04-02T09:29:06Z</time>
      </trkpt>
      <trkpt lat="48.16538" lon="6.57249">
        <ele>414.47</ele>
        <time>2017-04-02T09:29:07Z</time>
      </trkpt>
      <trkpt lat="48.16532" lon="6.57253">
        <ele>413.98</ele>
        <time>2017-04-02T09:29:08Z</time>
      </trkpt>
      <trkpt lat="48.16494" lon="6.57269">
        <ele>413.5</ele>
        <time>2017-04-02T09:29:14Z</time>
      </trkpt>
      <trkpt lat="48.16429" lon="6.57316">
        <ele>413.5</ele>
        <time>2017-04-02T09:29:27Z</time>
      </trkpt>
      <trkpt lat="48.16425" lon="6.5732">
        <ele>413.5</ele>
        <time>2017-04-02T09:29:28Z</time>
      </trkpt>
      <trkpt lat="48.1642" lon="6.57322">
        <ele>413.5</ele>
        <time>2017-04-02T09:29:29Z</time>
      </trkpt>
      <trkpt lat="48.16415" lon="6.57322">
        <ele>413.5</ele>
        <time>2017-04-02T09:29:30Z</time>
      </trkpt>
      <trkpt lat="48.1641" lon="6.5732">
        <ele>413.5</ele>
        <time>2017-04-02T09:29:31Z</time>
      </trkpt>
      <trkpt lat="48.16405" lon="6.57318">
        <ele>413.02</ele>
        <time>2017-04-02T09:29:32Z</time>
      </trkpt>
      <trkpt lat="48.16395" lon="6.57313">
        <ele>412.54</ele>
        <time>2017-04-02T09:29:34Z</time>
      </trkpt>
      <trkpt lat="48.16386" lon="6.57307">
        <ele>413.5</ele>
        <time>2017-04-02T09:29:36Z</time>
      </trkpt>
      <trkpt lat="48.16375" lon="6.57297">
        <ele>413.5</ele>
        <time>2017-04-02T09:29:39Z</time>
      </trkpt>
      <trkpt lat="48.16372" lon="6.57294">
        <ele>413.02</ele>
        <time>2017-04-02T09:29:40Z</time>
      </trkpt>
      <trkpt lat="48.16368" lon="6.57294">
        <ele>413.02</ele>
        <time>2017-04-02T09:29:41Z</time>
      </trkpt>
      <trkpt lat="48.16365" lon="6.57295">
        <ele>413.5</ele>
        <time>2017-04-02T09:29:42Z</time>
      </trkpt>
      <trkpt lat="48.16363" lon="6.57298">
        <ele>413.5</ele>
        <time>2017-04-02T09:29:43Z</time>
      </trkpt>
      <trkpt lat="48.16361" lon="6.57301">
        <ele>413.02</ele>
        <time>2017-04-02T09:29:44Z</time>
      </trkpt>
      <trkpt lat="48.16359" lon="6.57304">
        <ele>413.02</ele>
        <time>2017-04-02T09:29:45Z</time>
      </trkpt>
      <trkpt lat="48.16349" lon="6.57322">
        <ele>412.06</ele>
        <time>2017-04-02T09:29:50Z</time>
      </trkpt>
      <trkpt lat="48.16324" lon="6.57348">
        <ele>409.66</ele>
        <time>2017-04-02T09:29:56Z</time>
      </trkpt>
      <trkpt lat="48.16302" lon="6.57372">
        <ele>408.22</ele>
        <time>2017-04-02T09:30:00Z</time>
      </trkpt>
      <trkpt lat="48.16285" lon="6.57395">
        <ele>406.29</ele>
        <time>2017-04-02T09:30:03Z</time>
      </trkpt>
      <trkpt lat="48.16247" lon="6.57462">
        <ele>402.93</ele>
        <time>2017-04-02T09:30:10Z</time>
      </trkpt>
      <trkpt lat="48.16211" lon="6.57524">
        <ele>400.53</ele>
        <time>2017-04-02T09:30:16Z</time>
      </trkpt>
      <trkpt lat="48.16193" lon="6.57547">
        <ele>400.53</ele>
        <time>2017-04-02T09:30:21Z</time>
      </trkpt>
      <trkpt lat="48.16189" lon="6.57537">
        <ele>400.53</ele>
        <time>2017-04-02T09:30:25Z</time>
      </trkpt>
      <trkpt lat="48.16187" lon="6.57535">
        <ele>401.01</ele>
        <time>2017-04-02T09:30:26Z</time>
      </trkpt>
      <trkpt lat="48.16186" lon="6.57533">
        <ele>400.53</ele>
        <time>2017-04-02T09:30:27Z</time>
      </trkpt>
      <trkpt lat="48.16169" lon="6.57498">
        <ele>400.05</ele>
        <time>2017-04-02T09:30:38Z</time>
      </trkpt>
      <trkpt lat="48.16165" lon="6.5749">
        <ele>400.05</ele>
        <time>2017-04-02T09:30:43Z</time>
      </trkpt>
      <trkpt lat="48.16164" lon="6.57486">
        <ele>400.53</ele>
        <time>2017-04-02T09:30:45Z</time>
      </trkpt>
      <trkpt lat="48.16163" lon="6.57483">
        <ele>400.05</ele>
        <time>2017-04-02T09:30:46Z</time>
      </trkpt>
      <trkpt lat="48.16163" lon="6.57481">
        <ele>400.05</ele>
        <time>2017-04-02T09:30:47Z</time>
      </trkpt>
      <trkpt lat="48.16162" lon="6.57479">
        <ele>400.53</ele>
        <time>2017-04-02T09:30:48Z</time>
      </trkpt>
      <trkpt lat="48.16161" lon="6.57477">
        <ele>400.05</ele>
        <time>2017-04-02T09:30:49Z</time>
      </trkpt>
      <trkpt lat="48.1616" lon="6.57474">
        <ele>400.05</ele>
        <time>2017-04-02T09:30:50Z</time>
      </trkpt>
      <trkpt lat="48.16143" lon="6.5743">
        <ele>400.53</ele>
        <time>2017-04-02T09:31:04Z</time>
      </trkpt>
      <trkpt lat="48.16143" lon="6.5743">
        <ele>396.68</ele>
        <time>2017-04-02T09:31:08Z</time>
      </trkpt>
      <trkpt lat="48.16143" lon="6.5743">
        <ele>399.57</ele>
        <time>2017-04-02T09:31:09Z</time>
      </trkpt>
    </trkseg>
  </trk>
</gpx>